     2              OBSERVATION DATA    GPS                 RINEX VERSION / TYPE
teqc 1998Mar9 19980808 00:44:22UTC                          PGM / RUN BY / DATE
                                                            COMMENT
BIT 2 OF LLI FLAGS DATA COLLECTED UNDER A-S CONDITION       COMMENT
BIT 2 OF LLI FLAGS DATA COLLECTED UNDER A-S CONDITION       COMMENT
Original Marker Name: MT LOW F2A 1978                       COMMENT
Campaign Name: L.A. Basin 1997                              COMMENT
4-Character Station Name: JSPH                              COMMENT
6-Character Antenna Code: TRMSST                            COMMENT
Vertical Measurement Point: TGP                             COMMENT
Vertical Offset to Rinex Ref. Point: 0.0629                 COMMENT
Radial Measurement Point: NGP                               COMMENT
Radial Offset to Rinex Ref. Point: 0.2334                   COMMENT
Antenna Height from Field Measurement: 1.5250 m             COMMENT
Original XYZ: -2489830.2069 -4652505.7966 3573603.3911      COMMENT
New XYZ position is based on association with SCEC monument COMMENT
E1E9I5Y3+0011. Position of that monument is believed to be  COMMENT
valid to within 1 m horizontally; vertical accuracy         COMMENT
should be no worse than 3-times this value.                 COMMENT
                                                            COMMENT
Revised Rinex header created by UCSD GPS archive for        COMMENT
GSAC on 15-Apr-1999 (1999:105) 18:55:04 GMT                 COMMENT
For assistance contact dagnew@ucsd.edu or hjohnson@ucsd.edu COMMENT
                                                            COMMENT
MT LOW F2A 1978                                             MARKER NAME
UNKNOWN OBSERVER UCLA                                       OBSERVER / AGENCY
497 TRIMBLE 4000 SST NP 4.81; SP 4.20                       REC # / TYPE / VERS
272 TR 4000SST L1/L2 GEO                                    ANT # / TYPE
 -2489834.0000 -4652511.0000  3573605.0000                  APPROX POSITION XYZ
        1.4441        0.0000        0.0000                  ANTENNA: DELTA H/E/N
     1     1     0                                          WAVELENGTH FACT L1/2
     3    C1    L1    L2                                    # / TYPES OF OBSERV
     0                                                      INTERVAL
  1997     2     6     0     1   30.000000                  TIME OF FIRST OBS
  1997     2     6    23    59   30.000000                  TIME OF LAST OBS
     0                                                      # OF SATELLITES
                                                            END OF HEADER
 97  2  6  0  1 30.0000000  0  6G 2G27G 7G 4G 9G26
  21849700.203          -0.38717
  23528765.2734         -0.58955
  20698789.836          -0.67317
  22714532.3524         -0.17456
  23463057.7664         -0.05656
  23372357.0634         -0.97856
 97  2  6  0  2 30.0000000  0  6G 2G27G 7G 4G 9G26
  21839480.5704     -53678.79548    -20847.66163
  23548413.242      103249.725 5        -0.03631
  20689302.8834     -49883.50547    -19307.31164
  22657809.297     -298075.928 6        -0.11131
  23406977.8444    -294694.22846   -114734.68861
  23370661.148       -8902.269 6        -0.46731
 97  2  6  0  3  0.0000000  0  6G 2G27G 7G 4G 9G26
  21834425.2584     -80264.72548    -41563.98163
  23558297.4304     155201.06345     40481.47661
  20684645.7504     -74339.13747    -38363.64864
  22629524.633     -446719.639 6   -115826.34221
  23379000.156     -441721.665 6   -229301.49521
  23369914.5164     -12832.11446     -3062.70761
 97  2  6  0  3 30.0000000  0  6G 2G27G 7G 4G 9G26
  21829394.4774    -106686.43248    -62152.32863
  23568225.773      207365.796 5     81129.29421
  20680056.7664     -98457.92347    -57157.50664
  22601290.117     -595085.271 6   -231435.88521
  23351065.0474    -588524.64746   -343693.40361
  23369233.1484     -16426.08246     -5863.20961
 97  2  6  0  4  0.0000000  0  6G 2G27G 7G 4G 9G26
  21824403.2584    -132927.99648    -82600.30263
  23578193.6334     259749.34245    121947.61761
  20675531.3054    -122231.64547    -75682.47964
  22573116.516     -743152.757 6   -346813.10921
  23323174.000     -735091.156 6   -457901.05121
  23368611.6024     -19688.37546     -8405.27461
 97  2  6  0  4 30.0000000  0  6G 2G27G 7G 4G 9G26
  21819443.4534    -158978.35048   -102899.29163
  23588201.273      312345.899 5    162931.89621
  20671077.4534    -145661.93147    -93939.84664
  22544994.477     -890920.350 6   -461956.65021
  23295329.055     -881416.797 6   -571920.99621
  23368056.2734     -22617.44746    -10687.68461
 97  2  6  0  5  0.0000000  0  6G 2G27G 7G 4G 9G26
  21814525.8594    -184821.61748   -123036.90863
  23598249.922      365152.866 5    204080.13021
  20666683.9304    -168751.08247   -111931.38364
  22516930.695    -1038388.643 6   -576866.98421
  23267526.617    -1027514.076 6   -685763.00221
  23367561.3984     -25206.03246    -12704.78461
 97  2  6  0  5 30.0000000  0  6G 2G27G 7G 4G 9G26
  21809647.8204    -210460.60548   -143015.34763
  23608341.531      418176.096 5    245396.91121
  20662351.5004    -191499.51047   -129657.42364
  22488926.469    -1185555.288 6   -691542.26021
  23239769.180    -1173389.135 6   -799431.85221
  23367127.6724     -27455.43346    -14457.59061
 97  2  6  0  6  0.0000000  0  6G 2G27G 7G 4G 9G26
  21804809.5084    -235883.99048   -162825.79063
  23618471.141      471411.767 5    286879.20621
  20658085.5004    -213912.66347   -147122.21564
  22460980.328    -1332422.196 6   -805983.98121
  23212049.7504   -1319040.57246   -912926.45461
  23366767.5944     -29361.08446    -15942.53161
 97  2  6  0  6 30.0000000  0  6G 2G27G 7G 4G 9G26
  21800011.2034    -261100.66347   -182475.15663
  23628644.656      524867.290 5    328532.81521
  20653883.7814    -235993.40147   -164327.97964
  22433088.9694   -1478998.33946   -920199.14561
  23184376.984    -1464466.249 6  -1026245.13321
  23366475.0004     -30930.09246    -17165.15761
 97  2  6  0  7  0.0000000  0  6G 2G27G 7G 4G 9G26
  21795252.6724    -286107.59447   -201961.08163
  23638859.3524     578540.85545    370356.32361
  20649747.3594    -257746.27247   -181278.25864
  22405248.4534   -1625301.51746  -1034201.59861
  23156745.617    -1609669.934 6  -1139390.82321
  23366229.781      -32183.955 6    -18142.21921
 97  2  6  0  7 30.0000000  0  6G 2G27G 7G 4G 9G26
  21790528.8204    -310919.33148   -221294.90863
  23649108.9384     632417.02145    412337.71261
  20645671.4694    -279167.22847   -197969.91464
  22377456.6954   -1771333.54246  -1147992.78061
  23129157.023    -1754646.231 6  -1252359.34721
  23366049.750      -33144.738 6    -18890.90321
 97  2  6  0  8  0.0000000  0  6G 2G27G 7G 4G 9G26
  21785850.8914    -335525.30247   -240468.40463
  23659399.1884     686496.01845    454477.15361
  20641651.0084    -300271.40647   -214414.72664
  22349723.5474   -1917093.06646  -1261571.61661
  23101611.4924   -1899389.88946  -1365146.57761
  23365918.906      -33820.751 6    -19417.68321
 97  2  6  0  8 30.0000000  0  6G 2G27G 7G 4G 9G26
  21781208.6254    -359914.39947   -259472.89963
  23669728.258      740776.265 5    496773.38821
  20637695.4384    -321062.32647   -230615.43764
  22322037.2424   -2062573.52246  -1374932.99661
  23074119.094    -2043882.050 6  -1477737.83821
  23365848.3444     -34213.55346
 97  2  6  0  9  0.0000000  0  6G 2G27G 7G 4G 9G26
  21776607.2274    -384077.79647   -278301.52863
  23680093.461      795242.553 5    539214.62621
  20633800.7344    -341548.90947   -246579.01064
  22294410.3984   -2207763.28946  -1488067.86561
  23046671.156    -2188113.759 6  -1590126.15521
  23365828.8984     -34311.30646
 97  2  6  0  9 30.0000000  0  6G 2G27G 7G 4G 9G26
  21772056.0164    -408015.99747   -296954.68063
  23690493.5084     849888.70545    581795.97561
  20629954.0554    -361734.69147   -262308.18464
  22266841.727    -2352633.488 6  -1600953.71721
  23019282.9384   -2332071.02246  -1702300.61461
  23365868.094      -34089.316 6
 97  2  6  0 10  0.0000000  0  6G 2G27G 7G 4G 9G26
  21767545.7814    -431704.97847   -315413.63263
  23700930.8364     904728.25445    624528.04661
  20626174.8754    -381618.09047   -277801.74864
  22239334.6254   -2497169.30546  -1713579.01361
  22991936.477    -2475738.751 6  -1814249.45921
  23365979.695      -33522.339 6    -19185.26421
 97  2  6  0 10 30.0000000  0  6G 2G27G 7G 4G 9G26
  21763082.0864    -455171.21747   -333699.01663
  23711396.5084     959743.19645    667396.77961
  20622446.5234    -401190.18447   -293052.73564
  22211895.281    -2641378.297 6  -1825949.63821
  22964652.852    -2619123.723 6  -1925977.98021
  23366155.305      -32615.833 6    -18478.92921
 97  2  6  0 11  0.0000000  0  6G 2G27G 7G 4G 9G26
  21758655.4534    -478416.36547   -351812.12063
  23721900.367     1014939.549 5    710406.88021
  20618789.1334    -420436.13647   -308049.58364
  22184514.0864   -2785257.22246  -1938063.06361
  22937419.102    -2762232.660 6  -2037491.41221
  23366388.398      -31362.693 6    -17502.47521
 97  2  6  0 11 30.0000000  0  6G 2G27G 7G 4G 9G26
  21754273.4064    -501451.78347   -369761.80162
  23732435.2344    1070312.12545    753554.27661
  20615186.2034    -439351.15847   -322788.56264
  22157197.7814   -2928816.22346  -2049927.19661
  22910236.6094   -2905081.32146  -2148802.03061
  23366689.867      -29784.811 6    -16272.98621
 97  2  6  0 12  0.0000000  0  6G 2G27G 7G 4G 9G26
  21749927.8754    -524299.57347   -387565.27863
  23743007.648     1125856.195 5    796835.32121
  20611647.7114    -457936.72347   -337270.82864
  22129933.6884   -3072082.06646  -2161562.89761
  22883100.930    -3047681.037 6  -2259918.66321
  23367047.969      -27907.209 6    -14809.94421
 97  2  6  0 12 30.0000000  0  6G 2G27G 7G 4G 9G26
  21745613.2424    -546971.56447   -405231.77463
  23753605.930     1181549.273 5    840232.48621
  20608174.3674    -476196.85447   -351499.50664
  22102725.750    -3215059.291 6  -2272973.69321
  22856011.898    -3190034.853 6  -2370843.69721
  23367457.250      -25748.285 6    -13127.69221
 97  2  6  0 12 59.9990000  0  6G 2G27G 7G 4G 9G26
  21741337.7304    -569441.66147   -422740.93962
  23764230.9564    1237391.97545    883746.23061
  20604758.6204    -494146.84447   -365486.51464
  22075577.7694   -3357728.38046  -2384144.38361
  22828971.3004   -3332133.61546  -2481569.98661
  23367919.8234     -23317.46346    -11233.56161
 97  2  6  0 13 29.9990000  0  6G 2G27G 7G 4G 9G26
  21737102.0114    -591705.90847   -440089.70862
  23774887.948     1293389.290 5    927380.43821
  20601399.9014    -511797.12147   -379239.97764
  22048488.073    -3500075.675 7  -2495064.32821
  22801979.495    -3473978.345 6  -2592098.32221
  23368433.487      -20614.496 5     -9127.38221
 97  2  6  0 13 59.9990000  0  7G 2G27G 7G 4G 9G26G24
  21732906.8234    -613749.12647   -457266.24762
  23785575.175     1349542.303 5    971136.00821
  20598096.8704    -529149.19147   -392761.07564
  22021468.230    -3642074.256 6  -2605712.54021
  22775039.5114   -3615550.14746  -2702413.98661
  23369004.980      -17627.086 6     -6799.55221
  24430773.3624         -0.38054
 97  2  6  0 14 29.9990000  0  7G 2G27G 7G 4G 9G26G24
  21728757.3084    -635558.87447   -474260.85163
  23796292.2374    1405858.92045   1015019.03161
  20594850.4014    -546208.06947   -406053.71064
  21994517.5424   -3783704.20146  -2716073.51762
  22748147.5654   -3756857.23546  -2812523.38561
  23369628.3084     -14350.57046     -4246.44061
  24399274.8004    -165501.73044
 97  2  6  0 14 59.9990000  0  7G 2G27G 7G 4G 9G26G24
  21724648.7614    -657141.71547   -491078.65463
  23807044.8394    1462365.62445   1059050.17761
  20591661.7844    -562972.46547   -419116.87764
  21967637.2304   -3924968.74247
  22721305.4174   -3897914.50146
  23370304.5034     -10780.05745     -1464.23561
  24367775.440     -331029.099 4        -0.44331
 97  2  6  0 15 29.9990000  0  7G 2G27G 7G 4G 9G26G24
  21720579.5734    -678516.11647   -507734.03163
  23817834.253     1519063.794 5   1103230.50021
  20588529.8314    -579433.55147   -431943.69864
  21940821.284    -4065872.037 7
  22694510.8084   -4038723.25446
  23371040.1444      -6912.75345      1549.21761
  24336272.7844    -496573.63244   -128996.12961
 97  2  6  0 15 59.9990000  0  7G 2G27G 7G 4G 9G26G24
  21716551.5194    -699680.55547   -524225.80963
  23828658.308     1575953.903 4   1147560.39821
  20585460.6674    -595576.72147   -444522.78864
  21914076.784    -4206422.462 7
  22667764.1984   -4179277.31646
  23371832.433       -2755.180 5      4788.85821
  24304765.784     -662131.093 4   -258001.86521
 97  2  6  0 16 29.9990000  0  7G 2G27G 7G 4G 9G26G24
  21712565.9254    -720643.30447   -540560.41662
  23839521.558     1633031.253 4   1192036.18721
  20582445.4254    -611405.77247   -456857.11164
  21887394.2924   -4346635.75247
  22641065.6284   -4319578.87746
  23372676.4874       1673.49445      8239.75661
  24273265.112     -827681.577 4   -387002.16521
 97  2  6  0 16 59.9990000  0  7G 2G27G 7G 4G 9G26G24
  21708612.0504    -741401.08947   -556735.32363
  23850414.753     1690275.164 4   1236641.77821
  20579492.0974    -626926.30047   -468951.03064
  21860778.925    -4486507.285 7
  22614420.1364   -4459601.59946
  23373570.1124       6369.89145     11899.26061
  24241769.159     -993197.343 5   -515975.41321
 97  2  6  0 17 29.9990000  0  7G 2G27G 7G 4G 9G26G24
  21704704.0034    -761946.60747   -572744.81562
  23861331.7844    1747648.41544   1281348.14561
  20576596.8314    -642146.57847   -480810.97764
  21834229.8084   -4626023.53847  -3372426.13362
  22587832.128    -4599317.659 6  -3468985.90021
  23374514.4404      11328.54345     15763.13161
  24210277.269    -1158682.998 4   -644925.20321
 97  2  6  0 17 59.9990000  0  7G 2G27G 7G 4G 9G26G24
  21700835.9644    -782268.14247   -588579.77662
  23872269.987     1805141.799 4   1326148.09321
  20573755.1674    -657075.75947   -492444.10364
  21807747.1444   -4765181.84647  -3480861.16762
  22561309.558    -4738712.023 6  -3577604.85321
  23375506.136       16550.764 6     19832.36121
  24178790.4094   -1324149.22444   -773859.82761
 97  2  6  0 18 29.9990000  0  7G 2G27G 7G 4G 9G26G24
  21697014.8004    -802359.28447   -604235.21362
  23883233.339     1862752.806 4   1371039.74821
  20570968.6754    -671719.71647   -503854.97864
  21781335.7304   -4903983.52647  -3589018.30662
  22534847.909    -4877772.130 6  -3685963.35121
  23376552.7454      22046.79345     24114.96661
  24147306.9404   -1489591.58044   -902775.88761
 97  2  6  0 18 59.9990000  0  7G 2G27G 7G 4G 9G26G24
  21693234.3004    -822213.37647   -619705.93763
  23894218.5584    1920471.10744   1416014.97361
  20568237.4954    -686077.95447   -515043.21564
  21754988.8864   -5042425.33347  -3696895.01962
  22508448.5424   -5016495.91346  -3794059.78261
  23377649.8314      27818.83545     28612.63661
  24115823.8394   -1655037.77245  -1031694.93461
 97  2  6  0 19 29.9990000  0  7G 2G27G 7G 4G 9G26G24
  21689504.8554    -841832.13647   -634993.28762
  23905222.7534    1978304.84344   1461080.13761
  20565556.2534    -700154.41047   -526011.88164
  21728712.9334   -5180515.53647  -3804497.77262
  22482109.808    -5154901.156 6  -3901907.98921
  23378798.534       33860.815 5     33320.64421
  24084340.300    -1820500.760 5  -1160627.07921
 97  2  6  0 19 59.9990000  0  7G 2G27G 7G 4G 9G26G24
  21685809.1834    -861226.29647   -650105.62562
  23916253.214     2036273.950 4   1506250.78321
  20562933.5114    -713952.35447   -536763.52864
  21702499.3154   -5318265.20347  -3911835.16162
  22455826.261    -5293014.895 6  -4009529.05921
  23379999.6444      40154.16045     38224.53461
  24052850.948    -1985972.121 5  -1289565.69521
 97  2  6  0 20 29.9990000  0  7G 2G27G 7G 4G 9G26G24
  21682162.1444    -880399.31947   -665045.64662
  23927317.6444    2094392.45044   1551537.86861
  20560358.5504    -727470.14347   -547296.87464
  21676353.1054   -5455659.13747  -4018895.36462
  22429598.737    -5430849.615 6  -4116932.71521
  23381238.4804      46689.43845     43316.93261
  24021363.933    -2151433.270 5  -1418496.42121
 97  2  6  0 20 59.9990000  0  7G 2G27G 7G 4G 9G26G24
  21678556.7064    -899359.04747   -679819.46663
  23938405.526     2152663.898 4   1596944.09621
  20557837.8314    -740715.73547   -557618.11364
  21650280.8154   -5592678.40547  -4125663.61062
  22403420.6284   -5568407.49046  -4224120.64461
  23382530.667       53461.528 5     48593.85221
  23989879.0424   -2316879.32545  -1547415.36961
 97  2  6  0 21 29.9990000  0  7G 2G27G 7G 4G 9G26G24
  21674986.3624    -918112.71547   -694432.72362
  23949522.8394    2211100.94044   1642479.40261
  20555372.5424    -753687.76147   -567726.19164
  21624283.1904   -5729301.84647  -4232123.42162
  22377300.6674   -5705676.59046  -4331083.55561
  23383863.714       60471.093 5     54055.83121
  23958400.097    -2482298.908 5  -1676313.69921
 97  2  6  0 21 59.9990000  0  7G 2G27G 7G 4G 9G26G24
  21671456.3554    -936653.45847   -708880.06262
  23960676.776     2269708.040 4   1688147.20221
  20552959.4804    -766369.21447   -577607.84264
  21598361.4334   -5865514.27847  -4338262.96962
  22351240.800    -5842627.778 6  -4437798.74321
  23385241.628       67720.196 5     59704.44721
  23926930.4564   -2647683.11645  -1805184.46461
 97  2  6  0 22 29.9990000  0  7G 2G27G 7G 4G 9G26G24
  21667971.9014    -954969.61547   -723152.40062
  23971858.7764    2328461.15244   1733928.79761
  20550599.9874    -778765.17647   -587267.03964
  21572520.5974   -6001313.65247  -4444080.63162
  22325245.0654   -5979233.21846  -4544244.52261
  23386670.870       75219.770 5     65548.24821
  23895463.4094   -2813031.07145  -1934026.96261
 97  2  6  0 22 59.9990000  0  7G 2G27G 7G 4G 9G26G24
  21664526.7454    -973068.44647   -737255.39362
  23983061.378     2387342.247 4   1779810.10721
  20548293.9804    -790876.99647   -596704.81564
  21546757.159    -6136700.571 7  -4549576.92622
  22299318.4174   -6115470.80646  -4650403.66661
  23388145.737       82968.514 5     71586.20021
  23864010.1594   -2978354.85845  -2062850.64661
 97  2  6  0 23 29.9990000  0  7G 2G27G 7G 4G 9G26G24
  21661127.0584    -990946.54947   -751186.38762
  23994292.003     2446344.431 4   1825785.76121
  20546042.8084    -802701.35347   -605918.60364
  21521071.5654   -6271676.17347  -4654752.70262
  22273464.8084   -6251340.78146  -4756276.35261
  23389665.3704      90953.99045     77808.62261
  23832550.3784   -3143648.92845  -2191651.19261
 97  2  6  0 23 59.9990000  0  7G 2G27G 7G 4G 9G26G24
  21657767.6984   -1008595.96947   -764939.19162
  24005538.855     2505453.935 4   1871845.06921
  20543845.8314    -814242.93247   -614912.04564
  21495461.526    -6406263.422 7  -4759625.85222
  22247677.2534   -6386846.35546  -4861865.08861
  23391231.581       99171.250 5     84211.65721
  23801101.5264   -3308900.36345  -2320418.50861
 97  2  6  0 24 29.9990000  0  7G 2G27G 7G 4G 9G26G24
  21654452.7924   -1026021.23847   -778517.33562
  24016805.136     2564666.076 4   1917984.35121
  20541703.2534    -825511.57047   -623692.79964
  21469921.362    -6540465.351 7  -4864198.76422
  22221959.026    -6522010.223 6  -4967187.55621
  23392836.355      107615.589 5     90791.62621
  23769665.073    -3474116.436 5  -2449158.26621
 97  2  6  0 24 59.9990000  0  7G 2G27G 7G 4G 9G26G24
  21651180.4014   -1043221.62347   -791920.24762
  24028099.9404    2623997.72044   1964216.76961
  20539610.1984    -836502.67747   -632257.29864
  21444459.487    -6674272.496 7  -4968464.03422
  22196299.1124   -6656846.75546  -5072254.96661
  23394481.386      116274.851 5     97539.08121
  23738230.5814   -3639293.88745  -2577867.96261
 97  2  6  0 25 29.9990000  0  7G 2G27G 7G 4G 9G26G24
  21647954.5814   -1060167.31247   -805124.68462
  24039410.769     2683457.109 4   2010548.70221
  20537572.9564    -847210.05347   -640600.70764
  21419070.698    -6807697.649 7  -5072431.65122
  22170696.2614   -6791376.18546  -5177083.07061
  23396172.105      125152.270 5    104456.52021
  23706808.9564   -3804411.71445  -2706531.18261
 97  2  6  0 25 59.9990000  0  7G 2G27G 7G 4G 9G26G24
  21644775.8944   -1076861.93647   -818133.49562
  24050748.6444    2743040.93344   2056977.62461
  20535588.5654    -857644.71547   -648731.60864
  21393750.026    -6940746.907 7  -5176106.37322
  22145153.940    -6925617.852 6  -5281686.94421
  23397907.800      134254.563 5    111549.19521
  23675399.909    -3969476.341 5  -2835152.96321
 97  2  6  0 26 29.9990000  0  7G 2G27G 7G 4G 9G26G24
  21641643.7064   -1093322.37147   -830959.82062
  24062113.964     2802750.691 4   2103504.68121
  20533653.1984    -867818.41147   -656659.16264
  21368506.690    -7073401.266 7  -5279473.37822
  22119664.1754   -7059577.01846  -5386070.69261
  23399679.3314     143573.86045    118810.96861
  23643997.550    -4134497.335 5  -2963740.73421
 97  2  6  0 26 59.9980000  0  7G 2G27G 7G 4G 9G26G24
  21638555.4124   -1109543.93547   -843600.01162
  24073500.3894    2862580.43844   2150125.24461
  20531767.3114    -877734.58647   -664386.04464
  21343343.889    -7205638.555 7  -5382515.40422
  22094229.240    -7193234.083 6  -5490219.03321
  23401494.467      153121.834 5    126250.91621
  23612613.475    -4299444.908 5  -3092271.29121
 97  2  6  0 27 29.9980000  0  7G 2G27G 7G 4G 9G26G24
  21635513.2954   -1125538.26647   -856063.13462
  24084908.5534    2922521.72644   2196832.74261
  20529926.5844    -887401.86747   -671918.98564
  21318256.889    -7337466.104 7  -5485238.14522
  22068852.936    -7326592.284 6  -5594134.49621
  23403359.561      162904.348 5    133873.62221
  23581233.154    -4464342.218 5  -3220762.69321
 97  2  6  0 27 59.9980000  0  7G 2G27G 7G 4G 9G26G24
  21632511.2954   -1141321.06047   -868361.42662
  24096331.3574    2982576.00543   2243628.24661
  20528132.4204    -896833.74947   -679268.49964
  21293255.4284   -7468849.25947  -5587614.61462
  22043539.998    -7459609.977 6  -5697784.62221
  23405263.1934     172923.75445    141680.92561
  23549860.4204   -4629193.89645  -3349218.52061
 97  2  6  0 28 29.9980000  0  7G 2G27G 7G 4G 9G26G24
  21629549.1004   -1156895.07847   -880497.03662
  24107781.5294    3042734.75143   2290505.21761
  20526378.5144    -906042.17247   -686443.89064
  21268339.8654   -7599788.85147  -5689645.44562
  22018295.6074   -7592267.37746  -5801154.00561
  23407211.272      183153.407 5    149652.05121
  23518500.959    -4793998.169 5  -3477637.41621
 97  2  6  0 28 59.9980000  0  7G 2G27G 7G 4G 9G26G24
  21626630.9434   -1172237.29147   -892452.02262
  24119245.334     3102996.527 3   2337462.45021
  20524668.6784    -915018.50447   -693438.43264
  21243506.6314   -7730290.75447  -5791335.22762
  21993120.959    -7724556.546 6  -5904236.45121
  23409198.170      193602.454 5    157794.12521
  23487150.451    -4958744.987 5  -3606011.53321
 97  2  6  0 29 29.9980000  0  7G 2G27G 7G 4G 9G26G24
  21623755.2564   -1187337.99047   -904218.82062
  24130735.389     3163367.788 3   2384505.00721
  20523005.3264    -923760.26847   -700250.19364
  21218755.2644   -7860362.87647  -5892690.11362
  21968016.740    -7856469.486 6  -6007025.74121
  23411226.537      204269.639 5    166106.19321
  23455808.889    -5123436.651 5  -3734342.65121
 97  2  6  0 29 59.9980000  0  7G 2G27G 7G 4G 9G26G24
  21620924.9514   -1202200.24247   -915799.80362
  24142244.232     3223835.228 3   2431622.48221
  20521386.4514    -932273.69347   -706884.02764
  21194082.6394   -7990018.65147  -5993720.56962
  21942986.154    -7988016.863 6  -6109530.16421
  23413298.732      215141.701 5    174577.89721
  23424485.506    -5288054.908 5  -3862616.57221
 97  2  6  0 30 29.9980000  0  7G 2G27G 7G 4G 9G26G24
  21618145.0454   -1216807.10247   -927181.79262
  24153762.8734    3284377.75943   2478798.49761
  20519816.0224    -940531.09747   -713318.36564
  21169486.7404   -8119258.80747  -6094427.16662
  21918021.740    -8119218.792 6  -6211765.40922
  23415405.365      226220.968 5    183211.05121
  23393182.904    -5452576.124 5  -3990814.87321
 97  2  6  0 30 59.9980000  0  7G 2G27G 7G 4G 9G26G24
  21615412.4044   -1231162.95347   -938368.18562
  24165294.7014    3344986.54143   2526026.12761
  20518297.1624    -948517.72547   -719541.71564
  21144974.8654   -8248078.91247  -6194806.45862
  21893117.1004   -8250076.16546  -6313732.16861
  23417558.3184     237517.63745    192013.61261
  23361888.779    -5616997.965 5  -4118935.72821
 97  2  6  0 31 29.9980000  0  7G 2G27G 7G 4G 9G26G24
  21612728.6784   -1245278.39147   -949367.23662
  24176839.3114    3405656.45543   2573301.39661
  20516828.4904    -956236.39047   -725556.25864
  21120542.8734   -8376468.94747  -6294850.62662
  21868281.9514   -8380584.90446  -6415427.26962
  23419743.639      249019.522 5    200976.10521
  23330623.225    -5781307.583 5  -4246969.11821
 97  2  6  0 31 59.9980000  0  6G 2G 7G 4G 9G26G24
  21610087.4984   -1259164.21247   -960187.38462
  20515408.0224    -963688.04847   -731362.74364
  21096190.1704   -8504426.06047  -6394557.44962
  21843514.8654   -8510745.74346  -6516851.27962
  23421968.1004     260696.05145    210074.66961
  23299375.178    -5945509.327 5  -4374918.43921
 97  2  6  0 32 29.9980000  0  6G 2G 7G 4G 9G26G24
  21607490.772    -1272815.536 7   -970824.79322
  20514040.5844    -970872.54247   -736961.05264
  21071931.1394   -8631929.82447  -6493911.01562
  21818815.0844   -8640530.67447  -6617982.38962
  23424221.982      272545.284 5    219307.81421
  23268147.4674   -6109610.74245  -4502789.60061
 97  2  6  0 32 59.9980000  0  6G 2G 7G 4G 9G26G24
  21604933.4754   -1286242.63447   -981287.48962
  20512721.5684    -977816.67447   -742372.06764
  21047747.3734   -8758996.57547  -6592924.05262
  21794192.4984   -8769930.36647  -6718813.29962
  23426507.3654     284560.58145    228670.36161
  23236938.115    -6273627.270 5  -4630594.60321
 97  2  6  0 33 29.9980000  0  6G 2G 7G 4G 9G26G24
  21602420.7094   -1299439.47447   -991570.75962
  20511444.0844    -984529.12147   -747602.53964
  21023653.0454   -8885627.31147  -6691597.33462
  21769640.4984   -8898947.53047  -6819346.14062
  23428824.7484     296731.43645    238154.12061
  23205741.295    -6437568.064 5  -4758340.57921
 97  2  6  0 33 59.9980000  0  6G 2G 7G 4G 9G26G24
  21599954.2794   -1312406.23447  -1001674.74162
  20510210.3654    -991009.87547   -752652.48964
  20999638.3574   -9011823.32547  -6789931.87162
  21745161.9204   -9027584.33447  -6919582.59162
  23431169.9204     309058.98645    247759.96961
  23174553.443    -6601451.323 5  -4886041.75921
 97  2  6  0 34 29.9980000  0  6G 2G 7G 4G 9G26G24
  21597533.3504   -1325141.02847  -1011597.98162
  20509018.4904    -997260.25447   -757522.91364
  20975706.9434   -9137581.29147  -6887925.07662
  21720756.2404   -9155848.76547  -7019528.89262
  23433546.881      321557.917 5    257499.36221
  23143378.529    -6765271.097 5  -5013693.43821
 97  2  6  0 34 59.9980000  0  6G 2G 7G 4G 9G26G24
  21595156.553    -1337634.546 7  -1021333.20522
  20507875.5684   -1003273.09347   -762208.24664
  20951861.1004   -9262901.81547  -6985577.41862
  21696412.7874   -9283755.37347  -7119196.36562
  23435956.6474     334227.19345    267371.49961
  23112220.1234   -6929014.06945  -5141285.30161
 97  2  6  0 35 29.9980000  0  6G 2G 7G 4G 9G26G24
  21592820.842    -1349893.423 7  -1030885.59922
  20506776.7564   -1009054.40647   -766713.16364
  20928098.1004   -9387772.05247  -7082878.88462
  21672140.5064   -9411312.51747  -7218591.52862
  23438394.701      347051.524 5    277364.44421
  23081077.4824   -7092679.72345  -5268816.91561
 97  2  6  0 35 59.9980000  0  6G 2G 7G 4G 9G26G24
  21590534.3654   -1361904.81547  -1040245.14462
  20505721.6474   -1014599.32147   -771033.88464
  20904424.8264   -9512174.62147  -7179815.93762
  21647938.3424   -9538504.37647  -7317702.05762
  23440874.389      360049.872 5    287493.00621
  23049950.8574   -7256241.29145  -5396267.43161
 97  2  6  0 36 29.9980000  0  6G 2G 7G 4G 9G26G24
  21588297.2564   -1373663.68247  -1049407.91562
  20504710.7094   -1019914.42147   -775175.51863
  20880840.7094   -9636102.56447  -7276383.15162
  21623806.8264   -9665323.74147  -7416522.32262
  23443376.451      373218.866 5    297754.53521
  23018849.4824   -7419677.82945  -5523620.52961
 97  2  6  0 36 59.9980000  0  7G 2G 5G 7G 4G 9G26G24
  21586109.881    -1385166.782 7  -1058371.38822
  24117298.1704         -0.24554
  20503741.5294   -1024998.42047   -779137.08063
  20857350.0224   -9759545.83047  -7372572.70062
  21599746.2014   -9791756.74947  -7515041.53462
  23445920.506      386579.043 5    308165.03421
  22987773.8734   -7582981.87645  -5650870.39061
 97  2  6  0 37 29.9980000  0  7G 2G 5G 7G 4G 9G26G24
  21583968.0144   -1396429.59947  -1067147.62662
  24091080.732     -137778.507 4
  20502815.1784   -1029858.85047   -782924.42863
  20833951.4824   -9882506.93847  -7468386.53562
  21575763.5684   -9917796.20547  -7613254.07662
  23448499.303      400131.259 5    318725.17421
  22956721.022    -7746156.550 5  -5778019.45421
 97  2  6  0 37 59.9980000  0  7G 2G 5G 7G 4G 9G26G24
  21581869.7724   -1407449.34347  -1075734.45662
  24064860.3264    -275571.82844        -0.32371
  20501937.6394   -1034478.24947   -786523.96063
  20810645.7404  -10004980.49247  -7563820.46462
  21551854.0224  -10043430.11847  -7711150.61962
  23451113.240      413878.583 5    329437.32821
  22925696.0374   -7909193.46045  -5905061.17061
 97  2  6  0 38 29.9980000  0  7G 2G 5G 7G 4G 9G26G24
  21579815.701    -1418234.395 7  -1084138.40122
  24038632.6234    -413406.11844   -107403.53661
  20501102.5684   -1038867.88847   -789944.45463
  20787430.4124  -10126977.94347  -7658883.40363
  21528023.0844  -10168668.17647  -7808738.69762
  23453765.6864     427799.59945    340284.85261
  22894694.498    -8072105.489 5  -6032005.56621
 97  2  6  0 38 59.9980000  0  7G 2G 5G 7G 4G 9G26G24
  21577807.5064   -1428777.50947  -1092353.83562
  24012391.6074    -551286.61045   -214842.79761
  20500312.2254   -1043022.71447   -793181.98063
  20764306.7724  -10248497.75247  -7753574.15063
  21504264.8184  -10293501.97747  -7906011.76862
  23456449.029      441890.331 5    351264.61221
  22863716.506    -8234899.214 5  -6158857.79421
 97  2  6  0 39 29.9980000  0  7G 2G 5G 7G 4G 9G26G24
  21575850.732    -1439069.769 7  -1100373.79822
  23986138.178     -689231.056 4   -322331.84221
  20499567.3344   -1046940.74047   -796234.98863
  20741274.2174  -10369538.13747  -7847891.32363
  21480587.3424  -10417925.50447  -8002965.15362
  23459154.9364     456108.85045    362343.93761
  22832763.029    -8397567.599 5  -6285612.34521
 97  2  6  0 39 59.9980000  0  7G 2G 5G 7G 4G 9G26G24
  21573942.1154   -1449103.94647  -1108192.64962
  23959881.6704    -827222.71244   -429857.70961
  20498864.5844   -1050638.04547   -799116.00863
  20718331.7484  -10490103.22347  -7941838.12863
  21456990.2564  -10541938.49147  -8099598.63062
  23461878.334      470436.947 5    373508.66521
  22801834.272    -8560101.067 5  -6412261.76721
 97  2  6  0 40 29.9980000  0  7G 2G 5G 7G 4G 9G26G24
  21572081.5454   -1458880.46047  -1115810.71762
  23933616.967     -965243.381 4   -537406.21121
  20498197.0764   -1054135.60347   -801841.37363
  20695475.2094  -10610200.21847  -8035420.18763
  21433472.6074  -10665543.12147  -8195913.91062
  23464625.443      484870.144 5    384755.28521
  22770930.3974   -8722495.43445  -6538802.82161
 97  2  6  0 40 59.9970000  0  7G 2G 5G 7G 4G 9G26G24
  21570272.7674   -1468399.08347  -1123227.84462
  23907353.337    -1103264.670 4   -644955.16821
  20497571.7354   -1057422.73047   -804402.76863
  20672716.0244  -10729816.61047  -8128627.74563
  21410026.9934  -10788731.23747  -8291904.63062
  23467391.790      499408.858 5    396084.11721
  22740056.1494   -8884739.69845  -6665226.90261
 97  2  6  0 41 29.9970000  0  7G 2G 5G 7G 4G 9G26G24
  21568507.4074   -1477672.65546  -1130454.01662
  23881089.9854   -1241278.87144   -752498.61861
  20496984.0484   -1060513.61847   -806811.25563
  20650043.1264  -10848964.09047  -8221469.92963
  21386662.642   -10911513.405 7  -8387579.03022
  23470177.884      514058.173 5    407499.14221
  22709208.8144   -9046851.65345  -6791547.89561
 97  2  6  0 41 59.9970000  0  7G 2G 5G 7G 4G 9G26G24
  21566788.9234   -1486704.14346  -1137491.55362
  23854828.095    -1379273.587 5   -860026.94021
  20496430.1894   -1063420.95147   -809076.69863
  20627457.9154  -10967640.69847  -8313945.18563
  21363376.0644  -11033896.53447  -8482942.49662
  23472994.970      528842.789 5    419019.59721
  22678380.853    -9208846.961 5  -6917777.96921
 97  2  6  0 42 29.9970000  0  7G 2G 5G 7G 4G 9G26G24
  21565115.9854   -1495491.18046  -1144338.60962
  23828577.7744   -1517259.30845   -967548.21161
  20495914.1184   -1066131.34847   -811188.69263
  20604968.454   -11085835.003 7  -8406044.62623
  21340158.399   -11155883.820 7  -8577997.50022
  23475835.399      543775.484 5    430655.42721
  22647574.7904   -9370739.31945  -7043927.83061
 97  2  6  0 42 59.9970000  0  7G 2G 5G 7G 4G 9G26G24
  21563490.1574   -1504026.41646  -1150989.45662
  23802314.860    -1655241.671 5  -1075066.88621
  20495435.8764   -1068639.42647   -813143.03363
  20582567.3144  -11203538.45647  -8497761.58763
  21317026.8294  -11277464.30747  -8672735.53062
  23478705.618      558856.359 5    442406.73421
  22616787.142    -9532524.225 5  -7169993.96421
 97  2  6  0 43 29.9970000  0  7G 2G 5G 7G 4G 9G26G24
  21561914.1964   -1512304.56546  -1157439.97062
  23776056.4234   -1793227.53444  -1182588.30461
  20494998.9234   -1070943.09147   -814938.09063
  20560267.1814  -11320741.58947  -8589088.68163
  21293965.5324  -11398627.43547  -8767148.33962
  23481606.189      574094.301 5    454280.43021
  22586025.3064   -9694183.93545  -7295962.54361
 97  2  6  0 43 59.9970000  0  7G 2G 5G 7G 4G 9G26G24
  21560390.3764   -1520316.40946  -1163682.97462
  23749794.0324   -1931236.27145  -1290127.50261
  20494602.9704   -1073030.44147   -816564.58864
  20538059.298   -11437438.403 7  -8680021.24323
  21270990.8764  -11519376.75347  -8861238.69662
  23484530.2124     589479.25145    466268.66961
  22555293.0324   -9855688.53245  -7421810.24961
 97  2  6  0 44 29.9970000  0  7G 2G 5G 7G 4G 9G26G24
  21558914.8684   -1528075.03246  -1169728.66362
  23723529.5794   -2069279.40745  -1397693.53061
  20494247.1494   -1074897.42747   -818019.38064
  20515948.7674  -11553621.84947  -8770553.77863
  21248093.5244  -11639709.24147  -8955004.25662
  23487483.3294     604995.27945    478359.06361
  22524591.064   -10017021.652 6  -7547524.33521
 97  2  6  0 44 59.9970000  0  7G 2G 5G 7G 4G 9G26G24
  21557490.3294   -1535579.82946  -1175576.57162
  23697254.360    -2207346.282 5  -1505278.04621
  20493930.7284   -1076533.59947   -819294.30864
  20493943.220   -11669275.415 7  -8860673.41723
  21225274.0324  -11759610.78947  -9048434.02262
  23490463.009      620644.590 4    490553.29921
  22493926.392   -10178160.880 6  -7673087.34421
 97  2  6  0 45 29.9970000  0  7G 2G 5G 7G 4G 9G26G24
  21556105.0714   -1542847.96446  -1181240.05962
  23670972.5174   -2345451.90945  -1612892.75761
  20493665.9854   -1077945.04847   -820394.14064
  20472035.1104  -11784402.19147  -8950382.57563
  21202536.6264  -11879090.87947  -9141535.36862
  23493465.6964     636417.86344    502844.13761
  22463298.243   -10339111.388 6  -7798503.28421
 97  2  6  0 45 59.9970000  0  7G 2G 5G 7G 4G 9G26G24
  21554764.5644   -1549882.39146  -1186721.44262
  23644681.8374   -2483602.03144  -1720542.14061
  20493439.9934   -1079146.07347   -821329.99863
  20450228.3374  -11899001.49647  -9039680.71363
  21179882.368   -11998143.453 7  -9234303.59222
  23496484.071      652302.526 4    515221.76521
  22432705.595   -10499877.608 5  -7923775.62221
 97  2  6  0 46 29.9970000  0  7G 2G 5G 7G 4G 9G26G24
  21553467.8064   -1556687.58846  -1192024.20862
  23618391.087    -2621773.626 5  -1828208.23721
  20493251.8994   -1080136.95147   -822102.11264
  20428520.6734  -12013068.20047  -9128563.83563
  21157311.3374  -12116752.68047  -9326726.34562
  23499530.954      668293.271 5    527682.05921
  22402144.712   -10660468.613 6  -8048911.43421
 97  2  6  0 46 59.9970000  0  7G 2G 5G 7G 4G 9G26G24
  21552220.2044   -1563263.59346  -1197148.38162
  23592091.056    -2759970.589 5  -1935894.11521
  20493096.2514   -1080933.12747   -822722.50564
  20406911.6964  -12126628.86247  -9217052.64863
  21134825.1184  -12234923.54447  -9418807.52162
  23502592.524      684372.639 4    540211.39821
  22371620.774   -10820884.524 6  -8173910.80321
 97  2  6  0 47 29.9970000  0  7G 2G 5G 7G 4G 9G26G24
  21551013.8064   -1569602.41946  -1202087.73462
  23565785.0564   -2898192.26445  -2043599.24661
  20492977.6424   -1081547.95247   -823201.59064
  20385395.8144  -12239699.80747  -9305159.85663
  21112420.9934  -12352656.25547  -9510547.27562
  23505669.3144     700533.57844    552804.30561
  22341125.220   -10981132.700 6  -8298779.47221
 97  2  6  0 47 59.9970000  0  7G 2G 5G 7G 4G 9G26G24
  21549853.3064   -1575690.94746  -1206832.06062
  23539488.3214   -3036420.63045  -2151309.58661
  20492900.8994   -1081973.59447   -823533.26064
  20363971.4544  -12352281.42347  -9392885.77763
  21090097.7204  -12469956.33747  -9601949.92462
  23508758.618      716775.052 5    565459.96221
  22310661.446   -11141220.246 6  -8423522.97721
 97  2  6  0 48 29.9970000  0  7G 2G 5G 7G 4G 9G26G24
  21548745.274    -1581525.148 6  -1211378.20922
  23513182.1894   -3174652.30645  -2259022.52061
  20492857.7514   -1082201.56047
  20342641.6964  -12464372.51347  -9480229.46263
  21067858.7354  -12586827.23047  -9693018.13462
  23511861.8924     733104.10245    578183.87761
  22280229.181   -11301146.125 6  -8548140.51021
 97  2  6  0 48 59.9970000  0  7G 2G 5G 7G 4G 9G26G24
  21547685.1574   -1587092.00946  -1215716.03362
  23486870.767    -3312902.478 5  -2366749.85521
  20492852.4234   -1082234.34247
  20321404.5954  -12575967.87247  -9567186.86863
  21045703.3924  -12703264.83947  -9783748.72062
  23514991.9704     749542.53445    590993.01461
  22249829.548   -11460904.510 6  -8672627.53221
 97  2  6  0 49 29.9970000  0  7G 2G 5G 7G 4G 9G26G24
  21546674.5644   -1592392.90246  -1219846.61262
  23460561.907    -3451155.339 5  -2474479.28221
  20492883.9074   -1082067.11247
  20300266.4314  -12687044.66047  -9653740.19063
  21023633.0174  -12819252.72547  -9874128.87462
  23518141.5954     766095.96445    603891.75461
  22219454.2434  -11620502.73246  -8796989.76461
 97  2  6  0 49 59.9970000  0  7G 2G 5G 7G 4G 9G26G24
  21545718.7354   -1597432.33046  -1223773.45561
  23434253.970    -3589408.739 4  -2582209.13821
  20492950.5174   -1081699.92347
  20279229.6814  -12797586.66247  -9739876.80163
  21001647.1814  -12934790.83747  -9964158.55762
  23521311.4544     782758.37244    616875.44261
  22189122.1344  -11779930.72046  -8921219.34261
 97  2  6  0 50 29.9970000  0  7G 2G 5G 7G 4G 9G26G24
  21544806.7594   -1602212.26446  -1227498.08961
  23407941.9544   -3727669.68045  -2689944.86361
  20493054.3064   -1081151.30947   -822892.49163
  20258298.9154  -12907590.21547  -9825593.82963
  20979744.6964  -13049870.74247 -10053831.19462
  23524505.8454     799527.72344    629942.45061
  22158820.649   -11939177.177 6  -9045307.46921
 97  2  6  0 50 59.9970000  0  7G 2G 5G 7G 4G 9G26G24
  21543946.3994   -1606730.52446  -1231018.82261
  23381634.915    -3865928.878 5  -2797679.23721
  20493194.0644   -1080424.37347   -822326.03963
  20237471.0014  -13017044.63047  -9910882.96863
  20957936.4854  -13164492.18247 -10143146.59162
  23527713.165      816389.987 4    643081.84221
  22128548.5404  -12098239.68146  -9169252.25461
 97  2  6  0 51 29.9970000  0  7G 2G 5G 7G 4G 9G26G24
  21543137.5244   -1610992.01146  -1234339.47962
  23355322.790    -4004173.110 5  -2905401.94421
  20493365.8534   -1079526.67647   -821626.53163
  20216747.126   -13125940.186 7  -9995736.62323
  20936208.8994  -13278663.80947 -10232111.48262
  23530933.837      833319.762 4    656273.84721
  22098313.767   -12257117.164 6  -9293052.87321
 97  2  6  0 51 59.9970000  0  7G 2G 5G 7G 4G 9G26G24
  21542374.8924   -1614989.62046  -1237454.51061
  23329020.7434   -4142422.28545  -3013128.49961
  20493565.5644   -1078468.10147   -820801.66263
  20196131.2124  -13234284.67947 -10080160.87963
  20914565.4394  -13392397.24947 -10320734.92862
  23534167.767      850314.097 4    669516.15221
  22068116.1574  -12415805.97746  -9416706.47461
 97  2  6  0 52 29.9970000  0  7G 2G 5G 7G 4G 9G26G24
  21541660.8294   -1618731.73946  -1240370.46161
  23302704.665    -4280689.982 5  -3120869.49621
  20493799.1424   -1077256.16547   -819857.28863
  20175616.017   -13342084.547 7 -10164160.75323
  20893008.3924  -13505682.46547 -10409009.11362
  23537416.7204     867379.11344    682813.53761
  22037956.298   -12574303.625 6  -9540211.12021
 97  2  6  0 52 59.9970000  0  7G 2G 5G 7G 4G 9G26G24
  21540999.1264   -1622222.25246  -1243090.35661
  23276390.7044   -4418982.75545  -3228630.00761
  20494060.7044   -1075885.35047   -818789.11863
  20155205.985   -13449337.530 7 -10247734.48323
  20871538.4854  -13618517.65347 -10496932.62462
  23540677.1964     884511.68644    696163.58961
  22007831.610   -12732597.227 6  -9663556.77321
 97  2  6  0 53 29.9970000  0  7G 2G 5G 7G 4G 9G26G24
  21540380.1654   -1625470.05146  -1245621.13061
  23250070.5324   -4557310.73245  -3336417.95361
  20494350.8064   -1074352.89447   -817594.99363
  20134897.9394  -13556066.47247 -10330899.86863
  20850148.2904  -13730902.95847 -10584505.58262
  23543951.4704     901721.56644    709573.84361
  21977750.712   -12890685.945 6  -9786742.76821
 97  2  6  0 53 59.9970000  0  7G 2G 5G 7G 4G 9G26G24
  21539809.4234   -1628483.43646  -1247969.23561
  23223739.267    -4695689.407 5  -3444245.41421
  20494671.9154   -1072655.52647   -816272.36963
  20114684.626   -13662283.171 7 -10413666.10523
  20828848.2594  -13842844.51147 -10671732.75962
  23547243.0644     919014.98944    723049.21061
  21947707.446   -13048563.709 6  -9909764.38921
 97  2  6  0 54 29.9970000  0  7G 2G 5G 7G 4G 9G26G24
  21539279.774    -1631264.277 6  -1250136.14621
  23197394.9624   -4834107.38945  -3552103.49861
  20495027.6654   -1070783.54647   -814813.68163
  20094568.517   -13767984.137 7 -10496030.47323
  20807632.6734  -13954348.15947 -10758618.71362
  23550545.142      936381.463 4    736581.48021
  21917707.814   -13206213.121 6 -10032608.07121
 97  2  6  0 54 59.9960000  0  7G 2G 5G 7G 4G 9G26G24
  21538800.4964   -1633786.17746  -1252101.27761
  23171055.168    -4972537.862 5  -3659971.33021
  20495423.3164   -1068715.40347   -813202.14563
  20074554.715   -13873160.932 7 -10577986.39223
  20786496.1844  -14065415.88347 -10845164.98762
  23553862.4184     953803.45444    750157.04261
  21887752.0354  -13363624.04846 -10155265.92361
 97  2  6  0 55 29.9960000  0  7G 2G 5G 7G 4G 9G26G24
  21538370.1524   -1636032.07046  -1253851.34461
  23144713.316    -5110965.963 5  -3767837.30721
  20495856.7234   -1066446.10747   -811433.86263
  20054642.0434  -13977807.29147 -10659528.98463
  20765444.6604  -14176034.95447 -10931361.66362
  23557185.0664     971282.35844    763776.93161
  21857841.1374  -13520808.81246 -10277747.54861
 97  2  6  0 55 59.9960000  0  7G 2G 5G 7G 4G 9G26G24
  21537997.9814   -1637987.88246  -1255375.37061
  23118373.4964   -5249377.72145  -3875690.53761
  20496322.5514   -1063990.57847   -809520.46563
  20034834.371   -14081901.080 7 -10740641.00323
  20744481.9734  -14286189.68447 -11017196.51262
  23560519.387      988792.031 4    777420.81021
  21827976.3954  -13677757.98446 -10400045.57961
 97  2  6  0 56 29.9960000  0  7G 2G 5G 7G 4G 9G26G24
  21537679.2234   -1639657.45146  -1256676.35661
  23092035.074    -5387769.444 5  -3983528.17821
  20496822.8324   -1061352.75847   -807465.02263
  20015131.684   -14185447.814 7 -10821326.74323
  20723609.5204  -14395868.32647 -11102660.38762
  23563848.9654    1006309.26444    791070.59461
  21798151.707   -13834480.550 6 -10522167.03621
 97  2  6  0 56 59.9960000  0  7G 2G 5G 7G 4G 9G26G24
  21537417.770    -1641040.720 6  -1257754.24321
  23065705.098    -5526140.789 5  -4091349.94921
  20497358.1294   -1058548.49847   -805279.88263
  19995532.184   -14288438.082 7 -10901578.87523
  20702835.4814  -14505047.10047 -11187734.75362
  23567193.8874    1023855.88744    804743.25961
  21768370.1524  -13990981.56646 -10644115.86161
 97  2  6  0 57 29.9960000  0  7G 2G 5G 7G 4G 9G26G24
  21537206.1684   -1642158.57446  -1258625.30661
  23039378.106    -5664500.586 5  -4199162.72121
  20497919.1294   -1055594.10347   -802977.76363
  19976038.6994  -14390871.29047 -10981396.93363
  20682157.3014  -14613713.83947 -11272410.12762
  23570537.4654    1041440.43644    818445.47161
  21738631.309   -14147262.894 6 -10765893.49221
 97  2  6  0 57 59.9960000  0  7G 2G 5G 7G 4G 9G26G24
  21537039.1764   -1643024.68146  -1259300.20861
  23013045.4964   -5802863.13645  -4306977.62361
  20498509.3244   -1052488.57147   -800557.87163
  19956649.4184  -14492759.59447 -11060790.39063
  20661575.0124  -14721878.08647 -11356693.95362
  23573890.4574    1059058.99744    832174.19261
  21708934.1214  -14303324.86646 -10887500.19661
 97  2  6  0 58 29.9960000  0  7G 2G 5G 7G 4G 9G26G24
  21536923.5124   -1643657.68046  -1259793.46961
  22986717.293    -5941239.845 5  -4414803.58321
  20499128.0824   -1049233.60847   -798021.53563
  19937362.2074  -14594109.39347 -11139764.24263
  20641087.8324  -14829540.46647 -11440586.71462
  23577253.973     1076732.778 4    845945.93121
  21679278.535   -14459169.014 6 -11008937.16421
 97  2  6  0 58 59.9960000  0  7G 2G 5G 7G 4G 9G26G24
  21536841.9964   -1644055.87446  -1260103.75961
  22960377.7704   -6079628.90045  -4522639.17361
  20499778.4184   -1045838.66347   -795376.12463
  19918179.4964  -14694912.92547 -11218312.42763
  20620697.1844  -14936700.97447 -11524088.40162
  23580630.7704    1094466.97843    859764.75561
  21649664.566   -14614792.757 6 -11130202.39121
 97  2  6  0 59 29.9960000  0  7G 2G 5G 7G 4G 9G26G24
  21536813.7074   -1644231.36846
  22934045.410    -6218032.026 5  -4630485.71521
  20500448.6684   -1042296.12547   -792615.70563
  19899100.2774  -14795179.37847 -11296442.11863
  20600395.1764  -15043375.05747 -11607211.05962
  23584010.816     1112226.235 3    873603.09821
  21620090.566   -14770204.482 6 -11251302.40521
 97  2  6  0 59 59.9960000  0  7G 2G 5G 7G 4G 9G26G24
  21536821.9814   -1644174.69846
  22907707.691    -6356429.807 5  -4738328.10221
  20501150.4494   -1038603.83747   -789738.59563
  19880130.0434  -14894884.88147 -11374134.69263
  20580186.0664  -15149568.48447 -11689959.18162
  23587399.6914    1130016.93944    887465.96361
  21590558.0204  -14925385.75346 -11372222.84861
 97  2  6  1  0 29.9960000  0  7G 2G 5G 7G 4G 9G26G24
  21536877.6844   -1643876.80046
  22881373.551    -6494810.297 5  -4846157.01921
  20501883.3794   -1034761.32147   -786744.42263
  19861265.2624  -14994011.95747 -11451376.55763
  20560068.2854  -15255296.07347 -11772344.31062
  23590780.9264    1147833.59444    901349.02561
  21561074.043   -15080331.425 6 -11492959.70921
 97  2  6  1  0 59.9960000  0  7G 2G 5G 7G 4G 9G26G24
  21536981.1684   -1643328.88346  -1259537.31861
  22855046.5354   -6633157.58745  -4953960.04161
  20502643.6764   -1030768.08147   -783632.80163
  19842512.4104  -15092549.74047 -11528159.22663
  20540038.3404  -15360565.62547 -11854372.52862
  23594177.598     1165663.637 3    915242.50821
  21531634.902   -15235039.543 6 -11613511.44321
 97  2  6  1  1 29.9960000  0  7G 2G 5G 7G 4G 9G26G24
  21537135.9734   -1642529.83846  -1258914.69761
  22828727.6374   -6771476.82245  -5061741.21861
  20503432.7624   -1026621.22947   -780401.48163
  19823876.3874  -15190492.56847 -11604478.29963
  20520088.9024  -15465378.91347 -11936045.21462
  23597574.863     1183515.120 3    929152.74521
  21502242.527   -15389503.140 6 -11733872.65821
 97  2  6  1  1 59.9960000  0  7G 2G 5G 7G 4G 9G26G24
  21537337.0354   -1641470.34146  -1258089.12261
  22802408.8094   -6909770.35045  -5169502.36161
  20504252.2384   -1022316.86647   -777047.42863
  19805350.3324  -15287835.75847 -11680330.12363
  20500235.0904  -15569727.71147 -12017355.95963
  23600976.1294    1201405.46443    943093.23761
  21472896.895   -15543712.819 6 -11854036.00721
 97  2  6  1  2 29.9960000  0  7G 2G 5G 7G 4G 9G26G24
  21537588.8794   -1640152.79746  -1257062.47361
  22776092.3014   -7048062.55245  -5277262.47861
  20505098.7154   -1017862.60547   -773576.56763
  19786937.1374  -15384613.14747 -11755741.05763
  20480464.6454  -15673606.80347 -12098300.69962
  23604384.184     1219322.146 3    957054.24721
  21443599.207   -15697680.302 6 -11974010.63221
 97  2  6  1  2 59.9960000  0  7G 2G 5G 7G 4G 9G26G24
  21537888.0594   -1638571.50146  -1255830.30261
  22749772.176    -7186374.482 5  -5385037.95521
  20505973.0274   -1013266.38347   -769995.09363
  19768624.6374  -15480842.82847 -11830725.20663
  20460792.4414  -15776992.92447 -12178861.30163
  23607802.824     1237268.819 3    971038.62721
  21414347.051   -15851391.351 6 -12093785.43421
 97  2  6  1  3 29.9960000  0  7G 2G 5G 7G 4G 9G26G24
  21538244.4654   -1636726.94546  -1254392.99561
  22723444.2934   -7324725.46045  -5492843.86761
  20506877.7704   -1008518.75747   -766295.63663
  19750410.7934  -15576539.87147 -11905294.31163
  20441214.2624  -15879891.22747 -12259041.78963
  23611220.2624    1255231.95443    985035.84361
  21385146.684   -16004842.307 6 -12213357.56721
 97  2  6  1  3 59.9960000  0  7G 2G 5G 7G 4G 9G26G24
  21538642.8404   -1634605.00646  -1252739.54361
  22697113.051    -7463110.493 5  -5600676.32621
  20507809.8094   -1003620.89847   -762479.11863
  19732301.9024  -15671716.15847 -11979457.63763
  20421722.4184  -15982305.72947 -12338845.28963
  23614638.1524    1273197.60143    999034.98161
  21355994.699   -16158036.128 6 -12332729.33721
 97  2  6  1  4 29.9960000  0  7G 2G 5G 7G 4G 9G26G24
  21539100.0434   -1632193.80246  -1250860.69661
  22670770.5824   -7601530.64145  -5708536.11961
  20508768.4964    -998580.98247   -758551.90163
  19714291.6294  -15766372.63047 -12053215.91263
  20402323.4184  -16084237.48047 -12418272.62063
  23618053.637     1291153.027 3   1013026.17821
  21326892.363   -16310964.788 6 -12451894.48721
 97  2  6  1  4 59.9960000  0  7G 2G 5G 7G 4G 9G26G24
  21539617.7314   -1629490.56046  -1248754.27961
  22644428.2234   -7739970.24445  -5816411.10961
  20509755.8794    -993385.88147   -754503.76263
  19696381.5354  -15860476.25847 -12126543.39663
  20383023.0664  -16185678.82647 -12497317.81663
  23621473.035     1309099.068 3   1027010.04121
  21297842.895   -16463618.575 6 -12570845.45721
 97  2  6  1  5 29.9960000  0  7G 2G 5G 7G 4G 9G26G24
  21540185.5664   -1626503.21046  -1246426.48861
  22618086.184    -7878396.714 5  -5924275.84721
  20510777.9494    -988024.75147   -750326.25563
  19678583.9964  -15953992.78647 -12199413.39963
  20363815.5664  -16286614.31747 -12575968.82863
  23624884.340     1327043.732 3   1040992.88021
  21268846.520   -16616001.687 6 -12689585.49721
 97  2  6  1  5 59.9960000  0  7G 2G 5G 7G 4G 9G26G24
  21540808.4814   -1623246.46946  -1243888.78261
  22591747.356    -8016812.560 5  -6032132.30321
  20511823.6374    -982529.44347   -746044.19063
  19660899.6134  -16046924.76947 -12271827.91163
  20344706.0984  -16387034.13447 -12654218.02863
  23628301.5904    1344979.86844   1054969.02161
  21239895.652   -16768131.279 6 -12808128.00521
 97  2  6  1  6 29.9960000  0  7G 2G 5G 7G 4G 9G26G24
  21541469.2624   -1619749.64446  -1241163.99361
  22565409.566    -8155213.337 5  -6139977.02021
  20512892.6994    -976909.92247   -741665.34063
  19643331.2774  -16139255.55447 -12343773.95863
  20325698.6524  -16486917.11347 -12732048.90563
  23631712.5274    1362903.36343   1068935.35461
  21210996.981   -16920004.679 6 -12926470.87621
 97  2  6  1  6 59.9960000  0  7G 2G 5G 7G 4G 9G26G24
  21542174.5204   -1616033.22646  -1238268.09761
  22539076.4494   -8293588.42445  -6247801.72461
  20513986.1294    -971165.14647   -737188.88863
  19625877.3714  -16230978.63247 -12415246.47163
  20306793.6764  -16586256.13247 -12809455.92863
  23635123.1684    1380824.25443   1082899.63261
  21182142.645   -17071628.742 6 -13044619.45021
 97  2  6  1  7 29.9960000  0  7G 2G 5G 7G 4G 9G26G24
  21542930.5664   -1612083.48846  -1235190.39261
  22512750.1684   -8431933.74745  -6355603.23161
  20515101.0354    -965297.47147   -732616.67563
  19608536.4184  -16322108.91447 -12486257.06463
  20287995.8014  -16685038.59047 -12886429.26162
  23638531.340     1398744.925 3   1096863.75621
  21153337.090   -17223000.595 6 -13162571.50821
 97  2  6  1  7 59.9960000  0  7G 2G 5G 7G 4G 9G26G24
  21543728.6844   -1607885.66946  -1231919.37961
  22486429.4264   -8570261.43745  -6463391.00561
  20516240.2234    -959310.16047   -727951.23763
  19591305.1524  -16412665.74047 -12556820.80763
  20269298.9964  -16783292.74247 -12962990.92962
  23641939.2154    1416647.42144   1110813.69761
  21124581.402   -17374113.629 6 -13280321.88121
 97  2  6  1  8 29.9950000  0  7G 2G 5G 7G 4G 9G26G24
  21544576.6714   -1603435.58246  -1228451.79461
  22460111.132    -8708567.734 5  -6571162.12021
  20517404.9994    -953196.12947   -723187.04863
  19574180.0624  -16502647.55447 -12626936.48363
  20250698.5774  -16881042.19047 -13039159.31662
  23645342.3824    1434526.21344   1124745.19561
  21095879.108   -17524944.300 6 -13397852.22521
 97  2  6  1  8 59.9950000  0  7G 2G 5G 7G 4G 9G26G24
  21545472.7884   -1598717.27346  -1224775.20161
  22433791.366    -8846875.871 5  -6678934.64921
  20518593.5384    -946949.07947   -718319.22563
  19557164.265   -16592061.123 7 -12696609.38323
  20232191.6084  -16978304.19247 -13114947.88162
  23648738.616     1452378.425 4   1138655.95021
  21067231.7654  -17675487.73846 -13515158.74661
 97  2  6  1  9 29.9950000  0  7G 2G 5G 7G 4G 9G26G24
  21546425.116    -1593716.609 6  -1220878.60221
  22407470.1404   -8985182.32045  -6786705.86561
  20519807.0154    -940571.77247   -713349.89063
  19540258.6244  -16680900.10547 -12765834.54763
  20213777.4054  -17075079.59547 -13190357.27163
  23652125.593     1470184.652 4   1152530.88921
  21038644.124   -17825721.710 6 -13632224.12821
 97  2  6  1  9 59.9950000  0  7G 2G 5G 7G 4G 9G26G24
  21547426.835    -1588450.915 6  -1216775.49221
  22381153.4374   -9123484.41345  -6894473.68761
  20521044.8984    -934066.83047   -708281.10963
  19523466.6014  -16769140.25247 -12834593.08063
  20195449.9134  -17171371.60547 -13265389.99662
  23655508.062     1487950.125 4   1166374.07521
  21010118.796   -17975619.156 6 -13749027.28221
 97  2  6  1 10 29.9950000  0  6G 2G 5G 7G 4G 9G24
  21548473.7334   -1582944.19746  -1212484.54361
  22354835.6874   -9261788.30145  -7002242.92061
  20522304.3194    -927447.82047   -703123.43762
  19506791.6244  -16856784.87847 -12902887.57663
  20177222.9444  -17267147.47347 -13340020.53363
  20981657.952   -18125185.283 6 -13865572.26421
 97  2  6  1 10 59.9950000  0  6G 2G 5G 7G 4G 9G24
  21549564.7884   -1577209.12846  -1208015.67761
  22328518.5074   -9400088.15545  -7110008.98361
  20523582.8044    -920729.47647   -697888.36163
  19490223.7804  -16943840.25547 -12970722.91563
  20159101.9134  -17362386.50347 -13414232.75463
  20953256.538   -18274433.388 6 -13981869.44721
 97  2  6  1 11 29.9950000  0  6G 2G 5G 7G 4G 9G24
  21550701.3904   -1571230.83346  -1203357.28261
  22302204.6874   -9538361.15745  -7217754.14661
  20524881.2574    -913914.92447   -692578.31963
  19473766.7734  -17030310.60347 -13038102.39363
  20141081.8124  -17457088.53347 -13488026.53963
  20924913.679   -18423373.333 6 -14097926.50121
 97  2  6  1 11 59.9950000  0  6G 2G 5G 7G 4G 9G24
  21551884.7104   -1565011.54346  -1198511.10261
  22275895.554    -9676612.489 5  -7325482.41721
  20526194.3664    -907007.71547   -687196.07862
  19457426.7414  -17116199.26647 -13105028.60063
  20123158.1404  -17551260.03347 -13561406.92362
  20896625.280   -18572028.313 6 -14213761.51222
 97  2  6  1 12 29.9950000  0  6G 2G 5G 7G 4G 9G24
  21553117.812    -1558531.434 6  -1193461.68221
  22249594.608    -9814837.821 5  -7433190.41721
  20527527.3984    -900002.15647   -681737.19763
  19441188.2804  -17201513.06447 -13171506.85963
  20105341.1404  -17644908.06747 -13634379.41163
  20868388.843   -18720417.603 6 -14329389.48922
 97  2  6  1 12 59.9950000  0  6G 2G 5G 7G 4G 9G24
  21554406.5464   -1551771.85646  -1188194.48961
  22223295.585    -9953032.600 5  -7540874.61021
  20528884.1084    -892877.24447   -676185.31763
  19425068.749   -17286243.239 7 -13237530.35623
  20087609.9764  -17738063.32247 -13706967.92163
  20840201.546   -18868538.590 6 -14444808.39922
 97  2  6  1 13 29.9950000  0  6G 2G 5G 7G 4G 9G24
  21555745.280    -1544733.966 6
  22197000.812   -10091214.344 5  -7648548.66221
  20530264.0074    -885621.20047
  19409054.0154  -17370386.34547 -13303096.39063
  20069977.2964  -17830744.43347 -13779186.96463
  20812069.077   -19016380.734 6 -14560010.03622
 97  2  6  1 13 59.9950000  0  6G 2G 5G 7G 4G 9G24
  21557135.4524   -1537438.74146
  22170707.8584  -10229389.16745  -7756217.30961
  20531671.5304    -878217.62247
  19393158.960   -17453933.510 7 -13368198.04923
  20052429.5624  -17922942.41347 -13851029.54263
  20783992.452   -19163919.889 6 -14674975.57322
 97  2  6  1 14 29.9950000  0  6G 2G 5G 7G 4G 9G24
  21558572.124    -1529887.705 6
  22144416.468   -10367548.289 5  -7863873.73121
  20533108.8274    -870665.92047
  19377370.421   -17536886.115 7 -13432836.42423
  20034981.4604  -18014639.87347 -13922482.10863
  20755978.616   -19311131.909 6 -14789686.20822
 97  2  6  1 14 59.9950000  0  6G 2G 5G 7G 4G 9G24
  21560058.858    -1522078.799 6
  22118128.921   -10505685.957 5  -7971513.43321
  20534573.6084    -862967.53347
  19361698.608   -17619237.652 7 -13497006.43023
  20017634.4684  -18105811.06147 -13993524.58863
  20728032.171   -19457993.328 6 -14904123.64422
 97  2  6  1 15 29.9950000  0  6G 2G 5G 7G 4G 9G24
  21561592.327    -1514018.519 6  -1158777.38821
  22091846.1554  -10643797.40045  -8079132.70461
  20536063.1554    -855147.89247   -646785.82263
  19346145.0384  -17700986.66847 -13560706.93963
  20000386.7884  -18196437.07147 -14064142.25963
  20700151.827   -19604502.789 6 -15018286.83122
 97  2  6  1 15 59.9950000  0  6G 2G 5G 7G 4G 9G24
  21563172.2104   -1505694.28246  -1152290.98361
  22065572.327   -10781876.456 5  -8186726.74121
  20537572.3584    -847218.86047   -640607.35063
  19330706.163   -17782126.036 7 -13623932.39624
  19983246.2104  -18286495.56447 -14134317.70563
  20672335.405   -19750680.170 6 -15132191.25222
 97  2  6  1 16 29.9950000  0  6G 2G 5G 7G 4G 9G24
  21564811.6874   -1497091.19046  -1145587.28361
  22039301.569   -10919934.574 6  -8294304.46721
  20539096.1554    -839209.37747   -634366.19063
  19315376.093   -17862675.561 7 -13686698.23623
  19966215.7414  -18375992.40347 -14204055.50263
  20644578.288   -19896548.831 6 -15245855.11422
 97  2  6  1 16 59.9950000  0  6G 2G 5G 7G 4G 9G24
  21566500.1404   -1488209.85646  -1138666.78861
  22013033.710   -11057975.857 5  -8401869.07121
  20540637.2414    -831119.61547   -628062.47862
  19300158.0854  -17942633.73647 -13749003.28663
  19949293.5624  -18464938.37247 -14273364.04863
  20616877.374   -20042110.993 6 -15359280.14622
 97  2  6  1 17 29.9950000  0  6G 2G 5G 7G 4G 9G24
  21568246.8584   -1479045.15846  -1131525.47461
  21986766.2184  -11195990.37145  -8509412.82461
  20542193.6484    -822928.92647   -621680.12362
  19285055.7804  -18021993.58647 -13810842.10963
  19932472.7024  -18553332.32247 -14342242.44763
  20589239.8044  -20187358.97246 -15472460.37062
 97  2  6  1 17 59.9950000  0  6G 2G 5G 7G 4G 9G24
  21570042.9444   -1469591.68746  -1124159.14361
  21960510.273   -11333980.501 5  -8616937.56921
  20543774.4524    -814619.76847   -615205.44762
  19270067.554   -18100759.376 7 -13872218.02823
  19915759.4914  -18641167.85147 -14410685.71463
  20561659.8824  -20332275.57346 -15585382.37562
 97  2  6  1 18 29.9950000  0  6G 2G 5G 7G 4G 9G24
  21571894.5074   -1459859.24646  -1116575.44261
  21934259.1794  -11471930.54746  -8724431.07661
  20545380.3584    -806185.22347   -608633.07162
  19255191.4214  -18178936.93847 -13933135.59164
  19899148.3904  -18728454.50847 -14478701.29063
  20534154.2024  -20476831.83846 -15698023.59562
 97  2  6  1 18 59.9950000  0  6G 2G 5G 7G 4G 9G24
  21573798.999    -1449858.882 6  -1108782.97321
  21908016.335   -11609830.095 5  -8831885.23921
  20547012.5464    -797608.96347   -601950.26362
  19240430.4444  -18256512.30047 -13993583.90463
  19882642.6714  -18815191.41947 -14546288.49163
  20506715.858   -20621022.568 6 -15810379.99522
 97  2  6  1 19 29.9950000  0  6G 2G 5G 7G 4G 9G24
  21575751.9914   -1439590.23346  -1100781.43661
  21881782.4604  -11747681.50046  -8939301.89561
  20548669.7184    -788896.67347   -595161.46362
  19225783.5934  -18333483.16247 -14053561.18463
  19866242.4374  -18901371.83147 -14613442.05763
  20479345.0694  -20764859.67246 -15922460.82962
 97  2  6  1 19 59.9950000  0  6G 2G 5G 7G 4G 9G24
  21577758.3274   -1429049.24446  -1092567.69261
  21855562.601   -11885476.974 6  -9046674.95421
  20550350.9054    -780060.84147   -588276.39862
  19211253.0304  -18409838.11147 -14113058.53063
  19849948.6874  -18986999.50047 -14680164.92063
  20452039.6794  -20908347.66646 -16034269.63162
 97  2  6  1 20 29.9950000  0  6G 2G 5G 7G 4G 9G24
  21579814.0624   -1418249.03646  -1084151.95861
  21829350.491   -12023216.793 5  -9154004.64821
  20552051.1794    -771118.56447   -581308.38762
  19196840.7184  -18485568.98047 -14172069.58363
  19833756.7414  -19072093.40247 -14746471.85363
  20424798.952   -21051496.364 6 -16145814.04722
 97  2  6  1 20 59.9950000  0  6G 2G 5G 7G 4G 9G24
  21581920.8514   -1407181.37246  -1075527.82261
  21803153.4914  -12160899.40245  -9261289.76661
  20553774.8514    -762064.06847   -574252.93262
  19182551.9214  -18560657.96147 -14230580.45963
  19817667.4914  -19156643.61047 -14812355.13663
  20397623.2574  -21194301.69446 -16257090.90562
 97  2  6  1 21 29.9950000  0  6G 2G 5G 7G 4G 9G24
  21584072.0464   -1395859.53446  -1066705.62061
  21776960.452   -12298537.872 6  -9368540.47621
  20555516.0624    -752922.01847   -567129.26062
  19168384.2964  -18635116.26147 -14288599.90564
  19801677.3824  -19240658.56547 -14877821.33263
  20370514.1554  -21336758.94146 -16368096.52662
 97  2  6  1 21 59.9950000  0  6G 2G 5G 7G 4G 9G24
  21586281.8744   -1384275.72746  -1057679.28861
  21750780.288   -12436123.744 6  -9475750.21121
  20557273.9834    -743683.21347   -559930.18562
  19154336.2104  -18708945.77747 -14346129.38863
  19785791.8664  -19324129.62847 -14942863.71763
  20343480.9134  -21478831.92546 -16478802.72662
 97  2  6  1 22 29.9940000  0  6G 2G 5G 7G 4G 9G24
  21588534.6904   -1372417.69546  -1048439.27761
  21724604.2834  -12573660.78546  -9582921.89561
  20559053.7444    -734329.51747   -552641.59262
  19140404.0804  -18782153.43547 -14403174.30463
  19770019.1744  -19407027.97247 -15007459.82863
  20316520.1584  -21620498.28346 -16589192.07662
 97  2  6  1 22 59.9940000  0  6G 2G 5G 7G 4G 9G24
  21590841.3774   -1360296.43546  -1038994.14161
  21698440.213   -12711181.407 6  -9690080.79321
  20560853.7914    -724868.89647   -545269.67862
  19126582.7214  -18854776.50247 -14459763.69363
  19754352.0964  -19489361.14547 -15071615.54563
  20289631.6904  -21761796.70646 -16699294.71862
 97  2  6  1 23 29.9940000  0  6G 2G 5G 7G 4G 9G24
  21593196.2914   -1347911.80446  -1029343.79561
  21672272.807   -12848683.934 6  -9797225.57321
  20562674.6194    -715298.25747   -537812.04062
  19112878.9794  -18926808.13747 -14515892.23163
  19738790.5184  -19571123.02547 -15135326.10563
  20262815.697   -21902724.368 6 -16809108.44322
 97  2  6  1 23 59.9940000  0  6G 2G 5G 7G 4G 9G24
  21595607.2914   -1335256.50246  -1019482.53561
  21646110.135   -12986167.995 6  -9904355.97621
  20564520.3464    -705602.75947   -530257.10762
  19099282.8694  -18998246.59447 -14571558.55063
  19723343.4864  -19652303.96447 -15198583.97563
  20236066.463   -22043288.220 6 -16918638.69322
 97  2  6  1 24 29.9940000  0  6G 2G 5G 7G 4G 9G24
  21598068.0334   -1322326.94246  -1009407.56461
  21619956.041   -13123611.955 6 -10011455.13621
  20566390.6114    -695771.55347   -522596.42962
  19085806.3304  -19069063.59047 -14626740.61863
  19708010.9634  -19732894.44047 -15261381.75363
  20209385.150   -22183501.503 7 -17027895.76622
 97  2  6  1 24 59.9940000  0  6G 2G 5G 7G 4G 9G24
  21600580.1274   -1309127.41046   -999122.23361
  21593812.275   -13260987.974 6 -10118501.35121
  20568282.6664    -685819.75547   -514841.77662
  19072454.5414  -19139236.06447 -14681420.43963
  19692783.5574  -19812894.76347 -15323719.66763
  20182773.065   -22323348.413 6 -17136867.35122
 97  2  6  1 25 29.9940000  0  6G 2G 5G 7G 4G 9G24
  21603139.393    -1295665.481 5   -988632.43121
  21567684.6114  -13398301.93246 -10225499.21061
  20570197.3854    -675775.09147   -507014.76062
  19059220.0414  -19208771.70647 -14735604.03963
  19677672.0804  -19892321.18747 -15385610.38663
  20156232.158   -22462813.450 6 -17245541.37022
 97  2  6  1 25 59.9940000  0  6G 2G 5G 7G 4G 9G24
  21605759.1114   -1281907.79445   -977912.17661
  21541568.518   -13535526.184 6 -10332427.16021
  20572123.5334    -665641.36647   -499118.34762
  19046111.3934  -19277668.27147 -14789289.65263
  19662667.6434  -19971152.92447 -15447037.71463
  20129770.643   -22601877.607 6 -17353903.02222
 97  2  6  1 26 29.9940000  0  6G 2G 5G 7G 4G 9G24
  21608432.6434   -1267848.06845   -966956.55561
  21515476.6824  -13672640.44846 -10439269.41061
  20574067.1354    -655432.11447   -491163.08262
  19033123.1824  -19345915.41247 -14842469.22363
  19647781.7914  -20049393.61147 -15508004.48463
  20103386.463   -22740526.915 7 -17461941.40622
 97  2  6  1 26 59.9940000  0  6G 2G 5G 7G 4G 9G24
  21611168.502    -1253479.285 5   -955760.12621
  21489406.1114  -13809651.11146 -10546030.94661
  20576024.5414    -645155.11147   -483155.02662
  19020257.424   -19413527.783 7 -14895154.16423
  19633000.5494  -20127053.41147 -15568518.61563
  20077083.768   -22878745.559 6 -17569644.21122
 97  2  6  1 27 29.9940000  0  6G 2G 5G 7G 4G 9G24
  21613962.330    -1238800.563 5   -944322.18121
  21463350.205   -13946569.494 6 -10652720.57121
  20577993.6974    -634799.91347   -475086.03662
  19007509.2834  -19480514.94447 -14947351.93263
  19618334.8544  -20204143.82747 -15628589.06563
  20050861.588   -23016544.081 6 -17677019.64622
 97  2  6  1 27 59.9940000  0  6G 2G 5G 7G 4G 9G24
  21616807.9244   -1223842.92645   -932666.89661
  21437310.8464  -14083416.75246 -10759354.77061
  20579978.0414    -624374.30947   -466962.18462
  18994881.104   -19546891.180 7 -14999073.65223
  19603765.3154  -20280686.34747 -15688232.58963
  20024712.221   -23153957.892 6 -17784095.30222
 97  2  6  1 28 29.9940000  0  6G 2G 5G 7G 4G 9G24
  21619703.213    -1208633.389 5   -920815.33221
  21411276.5024  -14220213.11646
  20581977.5494    -613858.55247   -458768.08562
  18982362.541   -19612660.415 7 -15050322.38623
  19589303.6504  -20356695.22647 -15747460.28563
  19998638.268   -23290984.487 7
 97  2  6  1 28 59.9940000  0  6G 2G 5G 7G 4G 9G24
  21622652.760    -1193143.362 5   -908745.18521
  21385260.744   -14356948.136 6 -10972496.05721
  20584004.4474    -603210.19747   -450470.66162
  18969966.2684  -19677799.90247 -15101080.40863
  19574948.6584  -20432138.67747 -15806247.38663
  19972640.065   -23427592.669 7 -17997317.13822
 97  2  6  1 29 29.9940000  0  6G 2G 5G 7G 4G 9G24
  21625656.8614   -1177355.13145   -896442.67861
  21359254.0184  -14493601.01246 -11078978.79761
  20586064.0884    -592397.11047   -442044.87662
  18957700.6584  -19742274.07647 -15151320.00263
  19560703.0414  -20506975.60447 -15864561.87663
  19946728.736   -23563762.325 7 -18103423.33022
 97  2  6  1 29 59.9940000  0  6G 2G 5G 7G 4G 9G24
  21628709.2364   -1161301.89945   -883933.69461
  21333258.9554  -14630202.84646 -11185421.75761
  20588146.7524    -581451.69847   -433515.97762
  18945550.6044  -19806114.81847 -15201066.01463
  19546575.3154  -20581229.40147 -15922421.97963
  19920895.815   -23699524.583 7 -18209212.07222
 97  2  6  1 30 29.9940000  0  6G 2G 5G 7G 4G 9G24
  21631820.0574   -1144968.69245   -871206.52561
  21307276.783   -14766737.593 6 -11291812.44121
  20590252.8154    -570370.33947   -424881.15962
  18933522.7754  -19869318.39547 -15250315.54463
  19532559.4554  -20654889.94547 -15979819.80463
  19895142.541   -23834856.513 7 -18314665.48822
 97  2  6  1 30 59.9940000  0  6G 2G 5G 7G 4G 9G24
  21634983.1904   -1128339.08945   -858248.40761
  21281311.1044  -14903183.82346 -11398134.16161
  20592387.1354    -559163.53047   -416148.57962
  18921618.1974  -19931872.49347 -15299058.98163
  19518658.1504  -20727944.27147 -16036745.25463
  19869471.307   -23969762.625 7 -18419787.10622
 97  2  6  1 31 29.9940000  0  6G 2G 5G 7G 4G 9G24
  21638204.3384   -1111417.46345   -845062.74461
  21255367.6044  -15039528.06246 -11504376.41161
  20594542.9554    -547834.82547   -407321.00962
  18909838.1664  -19993780.61547 -15347299.06363
  19504872.1664  -20800388.96647 -16093195.66263
  19843877.861   -24104251.662 7 -18524583.73422
 97  2  6  1 31 59.9940000  0  6G 2G 5G 7G 4G 9G24
  21641480.3224   -1094192.76745   -831640.91561
  21229442.510   -15175763.713 6 -11610534.02921
  20596721.2524    -536381.27247   -398396.16162
  18898180.9324  -20055050.61047 -15395041.89863
  19491198.9554  -20872229.69047 -16149175.44963
  19818364.4324  -24238321.22547 -18629053.49563
 97  2  6  1 32 29.9940000  0  6G 2G 5G 7G 4G 9G24
  21644812.9164   -1076671.10945   -817987.68861
  21203537.674   -15311898.861 6 -11716613.34221
  20598923.4864    -524813.91247   -389382.63262
  18886641.1354  -20115689.55347 -15442293.01463
  19477643.3154  -20943468.37147 -16204686.10763
  19792931.5104  -24371981.93447 -18733204.67563
 97  2  6  1 32 59.9940000  0  6G 2G 5G 7G 4G 9G24
  21648201.1274   -1058877.18645   -804122.31061
  21177646.533   -15447955.952 6 -11822631.83221
  20601142.5724    -513148.10647   -380292.39562
  18875219.2294  -20175712.24847 -15489063.93163
  19464197.2994  -21014117.69247 -16259737.52763
  19767569.4474  -24505261.51447 -18837058.86963
 97  2  6  1 33 29.9940000  0  6G 2G 5G 7G 4G 9G24
  21651639.2054   -1040812.87145   -790046.23961
  21151771.455   -15583920.896 6 -11928578.52021
  20603385.5804    -501371.24147   -371115.61862
  18863915.7524  -20235108.82347 -15535346.96363
  19450868.3384  -21084163.42747 -16314318.62263
  19742285.135   -24638130.141 7 -18940592.84123
 97  2  6  1 33 59.9940000  0  6G 2G 5G 7G 4G 9G24
  21655130.361    -1022466.701 5   -775750.53721
  21125919.533   -15719785.774 6 -12034447.23721
  20605646.2604    -489483.94847   -361852.78762
  18852734.8854  -20293860.80147 -15581127.71463
  19437656.3074  -21153597.37747 -16368422.99963
  19717083.846   -24770558.080 7 -19043783.41623
 97  2  6  1 34 29.9940000  0  6G 2G 5G 7G 4G 9G24
  21658674.471    -1003840.262 5   -761236.44321
  21100085.6744  -15855537.15146 -12140227.50861
  20607927.0184    -477494.65346   -352510.48162
  18841681.0574  -20351948.95847 -15626391.20063
  19424562.6354  -21222412.05147 -16422044.82263
  19691971.940   -24902520.220 7 -19146611.03123
 97  2  6  1 34 59.9940000  0  6G 2G 5G 7G 4G 9G24
  21662266.2994    -984948.51245   -746515.62061
  21074277.4004  -15991174.96346 -12245919.29461
  20610224.4404    -465418.37346   -343100.38862
  18830753.0254  -20409378.18147 -15671141.22663
  19411583.8694  -21290615.55847 -16475190.41163
  19666951.572   -25034003.407 7 -19249065.42823
 97  2  6  1 35 29.9940000  0  6G 2G 5G 7G 4G 9G24
  21665915.9554    -965786.14345   -731583.92961
  21048484.822   -16126705.232 6 -12351527.27221
  20612538.6504    -453266.80746   -333631.62962
  18819949.9714  -20466152.55447 -15715380.98663
  19398718.9794  -21358217.18047 -16527867.00263
  19642024.471   -25164997.344 7 -19351138.59323
 97  2  6  1 35 59.9940000  0  6G 2G 5G 7G 4G 9G24
  21669619.1504    -946324.22645   -716418.79761
  21022713.393   -16262132.933 6 -12457055.33621
  20614865.6904    -441032.03146   -324098.04562
  18809272.1824  -20522266.20547 -15759105.89963
  19385969.5104  -21425212.15847 -16580070.88463
  19617191.057   -25295496.011 7 -19452825.83523
 97  2  6  1 36 29.9940000  0  6G 2G 5G 7G 4G 9G24
  21673378.8614    -926559.03045   -701017.36861
  20996962.7214  -16397447.36246 -12562495.13461
  20617213.2684    -428693.44546   -314483.55162
  18798721.6194  -20577715.92847 -15802313.46363
  19373337.7214  -21491590.19647 -16631794.03063
  19592452.932   -25425504.571 7 -19554131.17423
 97  2  6  1 36 59.9930000  0  6G 2G 5G 7G 4G 9G24
  21677198.1854    -906493.84345   -685382.18161
  20971234.0604  -16532653.47246 -12667850.52061
  20619584.1384    -416245.96746   -304784.22262
  18788292.7554  -20632521.71247 -15845019.25563
  19360822.3574  -21557357.56047 -16683041.32563
  19567799.880   -25555044.002 7 -19655070.95923
 97  2  6  1 37 29.9930000  0  6G 2G 5G 7G 4G 9G24
  21681078.286     -886106.810 5   -669496.19121
  20945525.2784  -16667753.05146 -12773122.90961
  20621975.9354    -403671.07446   -294985.60062
  18777981.7864  -20686696.53647 -15887233.38663
  19348424.4584  -21622520.07747 -16733817.31763
  19543235.060   -25684131.675 7 -19755658.72323
 97  2  6  1 37 59.9930000  0  6G 2G 5G 7G 4G 9G24
  21685021.3884    -865390.81645   -653353.86161
  20919845.0834  -16802705.94246 -12878280.98461
  20624394.9354    -390955.61146   -285077.44362
  18767793.6774  -20740225.16747 -15928943.98763
  19336143.5214  -21687066.39247 -16784113.15163
  19518757.599   -25812765.727 7 -19855893.01723
 97  2  6  1 38 29.9930000  0  6G 2G 5G 7G 4G 9G24
  21689024.372     -844344.290 5   -636954.01421
  20894196.989   -16937473.720 6 -12983294.82321
  20626846.7324    -378077.65746   -275042.66962
  18757733.4584  -20793082.18647 -15970131.25863
  19323983.4584  -21750972.28847 -16833909.95463
  19494370.607   -25940928.318 7 -19955759.95223
 97  2  6  1 38 59.9930000  0  6G 2G 5G 7G 4G 9G24
  21693088.7554    -822977.32345   -620304.43161
  20868587.0914  -17072077.70646 -13088181.02261
  20629321.0054    -365064.90146   -264902.85661
  18747800.0754  -20845287.49547 -16010810.70463
  19311940.1694  -21814253.47247 -16883219.97763
  19470070.1464  -26068629.55347 -20055267.38263
 97  2  6  1 39 29.9930000  0  6G 2G 5G 7G 4G 9G24
  21697212.450     -801307.073 5   -603418.55221
  20842998.7714  -17206533.67446 -13192951.89361
  20631818.8964    -351945.59846   -254680.02162
  18737993.3254  -20896844.87947 -16050985.28163
  19300012.1074  -21876921.15547 -16932051.94163
  19445858.1614  -26195863.43647 -20154410.64263
 97  2  6  1 39 59.9930000  0  6G 2G 5G 7G 4G 9G24
  21701394.364     -779338.146 5   -586299.91921
  20817442.161   -17340837.238 6 -13297604.00421
  20634335.6144    -338718.71946   -244373.35362
  18728312.1614  -20947712.39847 -16090622.29663
  19288208.5214  -21938953.56847 -16980388.89763
  19421741.5364  -26322598.14847 -20253164.94863
 97  2  6  1 40 29.9930000  0  6G 2G 5G 7G 4G 9G24
  21705633.5364    -757076.08345   -568952.87161
  20791907.1924  -17475025.20246 -13402166.04261
  20636872.2394    -325391.17246   -233988.25561
  18718756.9894  -20997907.42947 -16129735.29463
  19276527.6464  -22000349.83747 -17028230.14963
  19397718.5914  -26448833.05847 -20351529.79163
 97  2  6  1 40 59.9930000  0  6G 2G 5G 7G 4G 9G24
  21709926.5364    -734501.11445   -551362.00361
  20766393.5054  -17609105.11146 -13506643.87661
  20639427.9424    -311958.03146   -223520.86462
  18709335.0134  -21047433.97947 -16168327.39863
  19264962.0994  -22061113.28847 -17075578.29763
  19373795.067   -26574551.936 7 -20449492.52723
 97  2  6  1 41 29.9930000  0  6G 2G 5G 7G 4G 9G24
  21714284.3574    -711614.32045   -533528.14461
  20740900.0364  -17743071.73746 -13611033.42961
  20642007.1694    -298406.70546   -212961.38862
  18700039.6924  -21096293.54647 -16206399.78163
  19253517.5604  -22121247.56247 -17122436.17963
  19349970.7164  -26699751.50447 -20547050.60663
 97  2  6  1 41 59.9930000  0  6G 2G 5G 7G 4G 9G24
  21718702.864     -688395.414 5   -515435.52421
  20715432.7714  -17876909.18046 -13715322.32561
  20644611.5754    -284714.57246   -202292.19062
  18690865.2634  -21144483.92847 -16243950.72063
  19242200.3964  -22180740.38047 -17168794.22563
  19326243.8724  -26824435.12147 -20644206.64463
 97  2  6  1 42 29.9930000  0  6G 2G 5G 7G 4G 9G24
  21723184.3724    -664838.67045   -497079.64161
  20689988.263   -18010619.238 6 -13819511.95921
  20647245.4974    -270881.01046   -191512.78361
  18681817.4194  -21192037.44547 -16281005.40263
  19230998.2634  -22239595.25747 -17214655.17663
  19302611.4584  -26948614.83047 -20740970.02863
 97  2  6  1 42 59.9930000  0  6G 2G 5G 7G 4G 9G24
  21727730.6534    -640950.60845   -478465.58261
  20664568.0994  -18144179.90646 -13923585.18561
  20649904.4824    -256907.78246   -180624.55362
  18672892.6694  -21238947.20947 -16317558.45863
  19219918.4194  -22297812.73447 -17260019.44763
  19279080.9424  -27072280.82847 -20837333.12463
 97  2  6  1 43 29.9930000  0  6G 2G 5G 7G 4G 9G24
  21732337.028     -616741.592 5   -459601.42421
  20639188.2784  -18277577.24246 -14027531.13961
  20652587.2944    -242806.47446   -169636.52061
  18664087.3024  -21285205.11247 -16353603.56363
  19208968.4584  -22355378.95847 -17304876.25263
  19255643.3964  -27195441.95847 -20933302.81363
 97  2  6  1 43 59.9930000  0  6G 2G 5G 7G 4G 9G24
  21737003.6384    -592221.28445   -440494.72061
  20613836.0754  -18410802.84546 -14131343.27861
  20655293.6144    -228589.02446   -158557.98361
  18655411.1224  -21330805.29847 -16389136.17263
  19198135.0914  -22412287.13547 -17349220.29363
  19232302.9664  -27318094.91347 -21028876.52163
 97  2  6  1 44 29.9930000  0  6G 2G 5G 7G 4G 9G24
  21741724.161     -567409.641 5   -421160.99321
  20588516.8414  -18543857.27146 -14235022.03961
  20658019.5284    -214262.80946   -147394.69661
  18646860.1694  -21375744.64247 -16424153.82463
  19187429.4504  -22468544.11447 -17393056.90463
  19209059.833   -27440236.536 7 -21124051.79023
 97  2  6  1 44 59.9930000  0  6G 2G 5G 7G 4G 9G24
  21746500.0214    -542314.11345   -401606.03961
  20563228.0914  -18676738.32446 -14338565.69861
  20660764.6074    -199832.39446   -136150.21762
  18638432.7554  -21420018.28747 -16458652.75763
  19176847.7784  -22524169.20947 -17436401.14163
  19185914.5994  -27561876.37647 -21218836.06463
 97  2  6  1 45 29.9930000  0  6G 2G 5G 7G 4G 9G24
  21751330.0994    -516932.67045   -381828.30861
  20537973.1224  -18809458.21446 -14441983.77461
  20663531.9744    -185296.39546   -124823.47061
  18630137.7864  -21463619.96347 -16492628.07763
  19166379.0754  -22579169.01647 -17479258.13963
  19162862.1464  -27683013.67047 -21313228.73863
 97  2  6  1 45 59.9930000  0  6G 2G 5G 7G 4G 9G24
  21756216.7004    -491255.39245   -361820.05461
  20512745.4664  -18942025.72546 -14545283.12561
  20666320.2714    -170636.80046   -113400.40561
  18621967.3414  -21506546.84647 -16526077.59063
  19156033.8964  -22633545.61247 -17521629.51863
  19139909.271   -27803629.707 7 -21407215.24123
 97  2  6  1 46 29.9930000  0  6G 2G 5G 7G 4G 9G24
  21761155.6614    -465285.37745   -341583.69961
  20487543.6854  -19074459.47646 -14648478.24961
  20669133.1224    -155856.04146   -101882.93561
  18613926.2084  -21548801.24147 -16559003.08063
  19145802.0914  -22687301.99147 -17563517.61263
  19117056.646   -27923726.551 7 -21500797.17823
 97  2  6  1 46 59.9930000  0  6G 2G 5G 7G 4G 9G24
  21766154.5364    -439023.13045   -321119.62161
  20462370.2944  -19206760.45046 -14751569.89361
  20671970.7324    -140949.80246    -90267.68661
  18606014.8174  -21590386.27747 -16591406.99463
  19135692.4114  -22740435.71247 -17604920.51763
  19094301.4034  -28043299.77447 -21593971.10063
 97  2  6  1 47 29.9930000  0  6G 2G 5G 7G 4G 9G24
  21771204.6694    -412475.73845   -300433.37361
  20437218.1924  -19338920.62546 -14854551.83761
  20674828.6074    -125923.05246    -78558.53161
  18598227.0834  -21631310.33947 -16623295.86563
  19125701.9354  -22792931.15547 -17645826.05963
  19071648.677   -28162344.008 7 -21686732.81023
 97  2  6  1 47 59.9930000  0  6G 2G 5G 7G 4G 9G24
  21776315.497     -385635.234 5   -279518.71021
  20412102.6614  -19470913.21046 -14957403.17761
  20677712.1854    -110770.13746    -66751.06961
  18590564.0214  -21671576.37747 -16654671.98363
  19115839.6464  -22844769.21447 -17686219.36163
  19049094.958   -28280858.763 7 -21779081.94823
 97  2  6  1 48 29.9930000  0  6G 2G 5G 7G 4G 9G24
  21781476.122     -358503.993 5   -258377.48621
  20387020.2554  -19602721.63546 -15060111.01761
  20680617.8964     -95505.86946    -54856.83461
  18583022.9194  -21711200.89447 -16685548.21863
  19106095.2324  -22895954.63947 -17726104.11263
  19026640.247   -28398861.600 7 -21871032.18923
 97  2  6  1 48 59.9930000  0  6G 2G 5G 7G 4G 9G24
  21786699.0214    -331065.46045   -236996.83561
  20361975.474   -19734324.714 6 -15162658.85821
  20683545.3804     -80128.01246    -42874.10461
  18575602.0994  -21750195.71247 -16715933.77463
  19096482.3884  -22946491.18247 -17765483.23863
  19004282.466   -28516352.837 7 -21962583.78023
 97  2  6  1 49 29.9930000  0  6G 2G 5G 7G 4G 9G24
  21791982.4824    -303299.52845   -215361.04461
  20336972.2394  -19865720.48946 -15265045.16261
  20686489.3724     -64653.72546    -30816.21661
  18568303.2164  -21788558.39447 -16745826.77163
  19086985.6614  -22996378.04147 -17804356.12563
  18982024.864   -28633324.151 7 -22053730.23423
 97  2  6  1 49 59.9930000  0  6G 2G 5G 7G 4G 9G24
  21797332.6464    -275190.75745   -193458.13961
  20312005.8334  -19996921.11646 -15367279.39761
  20689451.6074     -49083.00546    -18683.19561
  18561124.8644  -21826274.04447 -16775215.57563
  19077617.8964  -23045625.42547 -17842730.71263
  18959865.388   -28749767.635 7 -22144465.39623
 97  2  6  1 50 29.9930000  0  6G 2G 5G 7G 4G 9G24
  21802746.1924    -246730.42945   -171281.27161
  20287076.1774  -20127936.68646 -15469369.43961
  20692433.1464     -33412.45746     -6472.38061
  18554072.8254  -21863338.06347 -16804096.61663
  19068363.7324  -23094240.80047 -17880612.83363
  18937809.146   -28865666.876 7 -22234776.46123
 97  2  6  1 50 59.9930000  0  6G 2G 5G 7G 4G 9G24
  21808226.7164    -217936.56645   -148844.51661
  20262173.4584  -20258795.51246 -15571337.34661
  20695430.7784     -17654.72946      5806.36461
  18547144.0834  -21899747.57247 -16832467.66063
  19059232.3174  -23142239.30747 -17918014.27163
  18915858.802   -28981016.618 7 -22324659.35823
 97  2  6  1 51 29.9920000  0  6G 2G 5G 7G 4G 9G24
  21813765.9844    -188823.89045   -126159.31661
  20237297.2814  -20389515.12046 -15673196.76261
  20698447.3914      -1812.78246     18150.73961
  18540341.1024  -21935499.32447 -16860326.16363
  19050213.3754  -23189620.40447 -17954934.61363
  18894016.859   -29095804.012 7 -22414104.05823
 97  2  6  1 51 59.9920000  0  6G 2G 5G 7G 4G 9G24
  21819367.0864    -159403.79145   -103234.59761
  20212449.8284  -20520096.97246 -15774948.83461
  20701482.4064      14135.31546     30577.82761
  18533659.0164  -21970604.69047 -16887680.98763
  19041320.2894  -23236370.95847 -17991363.62063
  18872274.9064  -29210040.09547 -22503119.16563
 97  2  6  1 52 29.9920000  0  6G 2G 5G 7G 4G 9G24
  21825019.289     -129689.098 5    -80080.30921
  20187630.9144  -20650523.04546 -15876579.52761
  20704539.7664      30206.96746     43101.18861
  18527104.6644  -22005063.07347 -16914531.66863
  19032543.2114  -23282477.42547 -18027290.74163
  18850644.5084  -29323717.89947 -22591699.25063
 97  2  6  1 52 59.9920000  0  6G 2G 5G 7G 4G 9G24
  21830728.7664     -99692.41345    -56706.26661
  20162843.0944  -20780783.14946 -15978080.90061
  20707621.8674      46400.50446     55719.53161
  18520668.7034  -22038867.13247 -16940872.48763
  19023896.8754  -23327930.17747 -18062708.47463
  18829118.2974  -29436840.81147 -22679846.95763
 97  2  6  1 53 29.9920000  0  6G 2G 5G 7G 4G 9G24
  21836490.4304     -69414.74645    -33113.32961
  20138088.6174  -20910855.83746 -16079436.22661
  20710727.6804      62724.59946     68439.60061
  18514362.8594  -22072017.35947 -16966703.82763
  19015372.0474  -23372719.48647 -18097609.24163
  18807697.5554  -29549415.38947 -22767567.38763
 97  2  6  1 53 59.9920000  0  6G 2G 5G 7G 4G 9G24
  21842303.563      -38859.603 5     -9304.15421
  20113379.3204  -21040715.52646 -16180625.58062
  20713859.1024      79175.57946     81258.54861
  18508178.7974  -22104503.14247 -16992017.41863
  19006973.6804  -23416855.00547 -18132000.55863
  18786378.3364  -29661443.25647 -22854861.81363
 97  2  6  1 54 29.9920000  0  6G 2G 5G 7G 4G 9G24
  21848167.414       -8038.324 4     14712.41021
  20088708.9454  -21170363.56447 -16281650.00962
  20717008.2274      95735.22046     94162.16561
  18502126.0084  -22136317.67947 -17016807.95863
  18998696.2894  -23460360.19647 -18165900.71163
  18765163.9614  -29772923.62147 -22941729.61363
 97  2  6  1 54 59.9920000  0  6G 2G 5G 7G 4G 9G24
  21854087.539       23068.133 5     38951.16621
  20064078.4224  -21299789.15647 -16382501.10262
  20720179.8444     112399.74646    107147.50961
  18496199.8134  -22167467.00647 -17041080.14963
  18990537.0474  -23503226.03847 -18199302.67263
  18744056.2814  -29883846.43247 -23028162.95563
 97  2  6  1 55 29.9920000  0  6G 2G 5G 7G 4G 9G24
  21860060.1254      54456.62044     63409.72161
  20039490.7974  -21429005.05547 -16483188.80062
  20723369.0084     129155.03046    120203.57461
  18490390.5944  -22197985.19847 -17064860.55563
  18982499.6174  -23545474.42547 -18232223.49863
  18723053.0784  -29994222.15547 -23114169.98663
 97  2  6  1 55 59.9920000  0  6G 2G 5G 7G 4G 9G24
  21866088.586       86130.010 4     88090.26921
  20014936.3754  -21558027.89447 -16583726.06562
  20726575.1564     146002.26346    133331.28561
  18484703.2814  -22227884.20247 -17088158.47463
  18974575.8134  -23587106.66747 -18264664.21463
  18702155.2424  -30104046.18147 -23199747.12763
 97  2  6  1 56 29.9920000  0  6G 2G 5G 7G 4G 9G24
  21872165.6644     118076.58044    112983.67461
  19990413.8284  -21686894.57547 -16684141.65262
  20729794.6174     162926.32546    146518.85961
  18479122.3364  -22257204.54647 -17111005.48863
  18966768.1644  -23628135.23847 -18296634.53663
  18681353.8994  -30213349.67347 -23284918.65963
 97  2  6  1 56 59.9920000  0  6G 2G 5G 7G 4G 9G24
  21878296.938      150292.959 4    138087.30021
  19965917.9924  -21815630.07847 -16784455.01662
  20733026.8054     179913.33546    159755.49161
  18473648.5704  -22285970.86147 -17133420.79263
  18959073.1334  -23668576.74147 -18328147.40363
  18660650.5164  -30322149.22347 -23369697.50963
 97  2  6  1 57 29.9920000  0  6G 2G 5G 7G 4G 9G24
  21884486.0314     182800.96144    163418.20561
  19941449.0944  -21944203.84147 -16884642.35762
  20736277.9144     196991.26646    173062.97261
  18468288.4924  -22314137.98747 -17155369.19664
  18951491.4924  -23708408.09347 -18359184.82763
  18640050.1414  -30430402.85347 -23454050.96563
 97  2  6  1 57 59.9920000  0  6G 2G 5G 7G 4G 9G24
  21890722.742      215586.948 4    188965.71321
  19917015.7194  -22072615.02547 -16984703.00962
  20739543.9694     214153.85946    186436.41361
  18463043.4064  -22341696.05547 -17176843.00864
  18944030.1804  -23747640.27947 -18389755.36663
  18619552.0084  -30538119.79347 -23537986.22663
 97  2  6  1 58 29.9920000  0  6G 2G 5G 7G 4G 9G24
  21897021.141      248660.386 4    214737.19121
  19892615.1254  -22200827.64547 -17084608.93162
  20742826.5864     231401.79446    199876.35961
  18457923.1724  -22368612.08147 -17197816.52764
  18936674.9144  -23786267.49247 -18419854.50663
  18599159.7894  -30645290.14847 -23621495.57763
 97  2  6  1 58 59.9920000  0  6G 2G 5G 7G 4G 9G24
  21903373.5084     282072.18744    240772.31661
  19868269.516   -22328771.707 7 -17184305.58322
  20746134.6954     248789.08046    213424.90161
  18452934.5944  -22394815.76647 -17218234.97764
  18929454.0084  -23824229.06747 -18449434.96163
  18578884.5474  -30751841.16047 -23704522.32563
 97  2  6  1 59 29.9920000  0  6G 2G 5G 7G 4G 9G24
  21909790.508      315781.183 4    267039.07721
  19843967.0554  -22456477.34847 -17283816.46362
  20749465.0554     266289.92246    227061.91961
  18448077.1564  -22420341.27547 -17238124.97364
  18922352.8834  -23861546.67647 -18478513.63063
  18558718.0784  -30857812.51047 -23787097.38763
 97  2  6  1 59 59.9920000  0  6G 2G 5G 7G 4G 9G24
  21916260.3834     349777.87644    293529.97661
  19819708.1804  -22583963.14147 -17383156.02762
  20752815.5314     283896.95446    240781.68161
  18443349.7194  -22445203.36847 -17257498.02864
  18915369.9924  -23898226.51247 -18507095.32663
  18538654.1494  -30963236.98147 -23869246.30563
 97  2  6  2  0 29.9920000  0  6G 2G 5G 7G 4G 9G24
  21922785.774      384064.933 4    320247.11921
  19795486.1174  -22711248.81247 -17482339.64862
  20756185.3834     301609.93346    254584.00561
  18438737.0004  -22469420.01347 -17276368.13464
  18908515.3364  -23934256.65847 -18535170.77563
  18518699.9304  -31068111.44647 -23950966.64963
 97  2  6  2  0 59.9920000  0  6G 2G 5G 7G 4G 9G24
  21929362.9384     418637.81244    347187.00961
  19771296.3284  -22838362.56847 -17581389.31362
  20759576.8364     319430.11946    268469.86661
  18434246.2894  -22493027.46447 -17294763.54264
  18901785.3054  -23969631.80547 -18562735.83563
  18498844.4304  -31172437.75347 -24032259.85563
 97  2  6  2  1 29.9920000  0  6G 2G 5G 7G 4G 9G24
  21935996.1174     453488.71144    374343.54961
  19747137.9534  -22965319.76847 -17680316.98962
  20762987.3594     337344.20546    282428.89161
  18429869.2744  -22516038.94847 -17312694.56664
  18895173.2814  -24004364.17647 -18589800.02963
  18479094.9064  -31276229.72647 -24113136.70163
 97  2  6  2  1 59.9920000  0  6G 2G 5G 7G 4G 9G24
  21942681.461      488630.578 4    401726.78721
  19723012.5244  -23092098.22147 -17779105.37462
  20766412.0004     355349.29146    296458.82661
  18425601.9924  -22538452.53947 -17330159.69664
  18888688.2194  -24038462.78647 -18616370.38563
  18459449.7504  -31379471.49147 -24193584.81063
 97  2  6  2  2 29.9920000  0  6G 2G 5G 7G 4G 9G24
  21949422.359      524062.397 4    429335.94821
  19698924.9384  -23218683.36347 -17877743.14662
  20769853.0704     373437.58946    310553.61161
  18421450.2274  -22560283.62247 -17347170.92764
  18882314.0084  -24071938.19347 -18642455.12863
  18439908.7894  -31482144.88247 -24273590.03463
 97  2  6  2  2 59.9920000  0  6G 2G 5G 7G 4G 9G24
  21956219.1724     559769.79644    457159.89461
  19674876.3134  -23345064.97747 -17976222.30362
  20773312.7344     391596.93146    324703.74661
  18417402.5554  -22581536.87647 -17363731.89963
  18876058.2584  -24104820.24347 -18668077.51163
  18420477.6414  -31584261.81347 -24353161.65063
 97  2  6  2  3 29.9920000  0  6G 2G 5G 7G 4G 9G24
  21963068.3524     595762.88944    485206.41361
  19650868.578   -23471220.503 7 -18074525.28422
  20776777.5704     409822.25746    338905.29661
  18413474.6724  -22602189.49947 -17379824.83964
  18869911.1024  -24137125.71747 -18693250.61963
  18401153.0944  -31685815.06347 -24432294.03963
 97  2  6  2  3 59.9920000  0  6G 2G 5G 7G 4G 9G24
  21969973.641      632059.862 3    513489.72821
  19626912.8674  -23597118.08547 -18172627.27962
  20780262.6414     428131.43146    353172.18661
  18409661.3994  -22622225.36147 -17395437.19363
  18863873.9144  -24168840.40647 -18717963.37463
  18381936.9064  -31786787.63247 -24510973.94863
 97  2  6  2  4 29.9920000  0  6G 2G 5G 7G 4G 9G24
  21976933.899      668628.895 4    541985.04321
  19602996.0474  -23722788.32547 -18270552.13262
  20783757.7974     446509.13746    367492.47461
  18405963.0314  -22641654.25447 -17410576.58664
  18857951.4384  -24199981.90647 -18742229.49263
  18362832.6024  -31887201.40847 -24589218.43263
 97  2  6  2  4 59.9920000  0  6G 2G 5G 7G 4G 9G24
  21983944.5084     705451.94144    570678.30861
  19579123.4694  -23848246.87647 -18368312.03462
  20787267.6094     464947.81146    381860.26361
  18402385.5474  -22660469.59347 -17425237.88764
  18852131.8674  -24230542.61547 -18766043.03863
  18343824.0394  -31987073.64747 -24667040.94763
 97  2  6  2  5 29.9920000  0  5G 5G 7G 4G 9G24
  19555292.6094  -23973480.08147 -18465896.33662
  20790793.3134     483470.90946    396293.85161
  18398924.1644  -22678651.07947 -17439405.27264
  18846435.3754  -24260494.88747 -18789382.48563
  18324926.7274  -32086382.26547 -24744424.27263
 97  2  6  2  5 59.9920000  0  6G30G 5G 7G 4G 9G24
  22219228.2194         -0.14853
  19531500.0394  -24098504.90547 -18563318.26462
  20794336.6884     502088.38746    410800.97561
  18395580.3994  -22696218.36847 -17453094.06964
  18840852.1494  -24289833.60247 -18812243.82763
  18306136.1954  -32185130.47247 -24821370.90863
 97  2  6  2  6 29.9910000  0  6G30G 5G 7G 4G 9G24
  22191044.964     -148094.621 3
  19507747.7454  -24223325.64747 -18660581.17262
  20797897.4014     520809.04146    425388.49461
  18392356.3164  -22713173.91047 -17466306.17464
  18835384.4564  -24318547.15547 -18834618.03863
  18287454.1444  -32283300.62147 -24897867.11463
 97  2  6  2  6 59.9910000  0  6G30G 5G 7G 4G 9G24
  22162872.9174    -296145.47643        -0.14371
  19484031.0894  -24347957.36647 -18757696.78462
  20801479.7694     539623.11346    440048.80661
  18389238.1054  -22729547.48447 -17479064.80064
  18830041.6914  -24346644.51347 -18856512.09163
  18268880.5424  -32380907.22847 -24973924.19863
 97  2  6  2  7 29.9910000  0  6G30G 5G 7G 4G 9G24
  22134711.5264    -444141.65243   -115321.80761
  19460352.8784  -24472379.62847 -18854649.18762
  20805079.5584     558548.48546    454795.84761
  18386232.5814  -22745345.92747 -17491375.26964
  18824808.1984  -24374137.62047 -18877935.29763
  18250418.0894  -32477931.24247 -25049527.31363
 97  2  6  2  7 59.9910000  0  6G30G 5G 7G 4G 9G24
  22106555.651     -592089.049 3   -230605.44321
  19436714.2924  -24596598.73647 -18951443.29362
  20808701.5664     577577.26346    469623.46461
  18383331.6594  -22760584.56947 -17503249.53164
  18819691.9174  -24401028.00647 -18898888.85063
  18232064.5814  -32574384.77147 -25124685.89063
 97  2  6  2  8 29.9910000  0  6G30G 5G 7G 4G 9G24
  22078409.995     -739997.474 3   -345858.69121
  19413116.9414  -24720610.94647 -19048076.17062
  20812338.8784     596685.84246    484513.26661
  18380538.2224  -22775267.31147 -17514690.62664
  18814686.9254  -24427331.89047 -18919385.38863
  18213816.5034  -32670278.27847 -25199408.09363
 97  2  6  2  8 59.9910000  0  6G30G 5G 7G 4G 9G24
  22050272.659     -887858.701 4   -461075.16621
  19389561.448   -24844396.051 7 -19144532.07922
  20815986.9874     615874.15246    499465.18561
  18377852.8394  -22789380.53647 -17525687.94064
  18809792.0584  -24453050.34947 -18939425.75163
  18195672.8784  -32765616.12547 -25273697.31363
 97  2  6  2  9 29.9910000  0  6G30G 5G 7G 4G 9G24
  22022141.9954   -1035694.19543   -576271.58861
  19366052.316   -24967946.347 7 -19240805.00922
  20819652.3784     635131.65146    514471.01761
  18375277.7694  -22802906.84547 -17536227.91864
  18805011.0424  -24478184.72347 -18959010.98863
  18177635.4174  -32860401.08647 -25347555.71163
 97  2  6  2  9 59.9910000  0  6G30G 5G 7G 4G 9G24
  21994012.8234   -1183505.45644   -691449.13861
  19342584.1054  -25091262.37447 -19336895.40362
  20823328.4724     654436.98546    529514.12361
  18372819.6984  -22815834.75747 -17546301.61364
  18800339.9414  -24502716.38347 -18978126.57363
  18159705.8474  -32954623.75247 -25420975.94863
 97  2  6  2 10 29.9910000  0  6G30G 5G 7G 4G 9G24
  21965890.9954   -1331289.44444   -806605.41661
  19319163.9874  -25214339.55147 -19432799.68462
  20827008.9564     673776.77346    544584.08461
  18370474.8234  -22828149.16747 -17555897.24164
  18795790.0114  -24526641.80347 -18996769.76863
  18141886.1444  -33048266.77547 -25493944.52063
 97  2  6  2 10 59.9910000  0  6G30G 5G 7G 4G 9G24
  21937775.839    -1479039.146 4   -921735.00921
  19295788.9094  -25337173.00747 -19528514.05062
  20830693.972      693156.502 6    559685.16521
  18368250.0584  -22839849.41547 -17565014.31764
  18791352.9484  -24549943.17847 -19014926.69663
  18124177.7304  -33141323.23047 -25566456.02463
 97  2  6  2 11 29.9910000  0  6G30G 5G 7G 4G 9G24
  21909665.5584   -1626758.63944  -1036841.04361
  19272462.6594  -25459761.47847 -19624037.53362
  20834390.6914     712581.33346    574821.39561
  18366135.1204  -22850946.73147 -17573661.56864
  18787041.6674  -24572615.66947 -19032593.58363
  18106584.0814  -33233775.16647 -25638496.47663
 97  2  6  2 11 59.9910000  0  6G30G 5G 7G 4G 9G24
  21881558.995    -1774441.876 4  -1151918.84321
  19249177.6364  -25582112.50147 -19719375.98262
  20838095.8474     732055.68946    589996.21561
  18364135.0894  -22861473.07847 -17581863.91964
  18782841.9094  -24594661.07047 -19049771.83463
  18089108.1054  -33325617.74647 -25710062.11063
 97  2  6  2 12 29.9910000  0  6G30G 5G 7G 4G 9G24
  21853464.2374   -1922098.62544  -1266975.98961
  19225941.9564  -25704223.82847 -19814527.65162
  20841816.3004     751590.31346    605217.99361
  18362232.8554  -22871457.10347 -17589643.67964
  18778767.0034  -24616102.89247 -19066479.76363
  18071743.7614  -33416869.87947 -25781167.64263
 97  2  6  2 12 59.9910000  0  6G30G 5G 7G 4G 9G24
  21825371.5424   -2069738.56944  -1382020.05861
  19202750.7064  -25826095.63347 -19909492.67962
  20845548.0504     771203.20446    620500.75561
  18360432.0034  -22880928.19447 -17597023.74164
  18774794.7844  -24636957.99647 -19082730.50862
  18054486.0894  -33507554.48147 -25851830.94763
 97  2  6  2 13 29.9910000  0  6G30G 5G 7G 4G 9G24
  21797279.8704   -2217355.53044  -1497046.20761
  19179603.3704  -25947731.71547 -20004274.02762
  20849295.6674     790910.30246    635856.92161
  18358731.2224  -22889870.28647 -17603991.60964
  18770937.0584  -24657232.21147 -19098528.61263
  18037339.8004  -33597664.30247 -25922046.37863
 97  2  6  2 13 59.9910000  0  6G30G 5G 7G 4G 9G24
  21769196.2224   -2364933.15744  -1612041.73561
  19156502.1444  -26069136.24447 -20098874.95362
  20853065.0264     810720.22545    651293.22261
  18357130.1984  -22898267.22947 -17610534.67664
  18767192.0814  -24676929.89647 -19113877.47563
  18020299.0424  -33687210.05747 -25991822.27363
 97  2  6  2 14 29.9910000  0  6G30G 5G 7G 4G 9G24
  21741119.964    -2512474.431 4  -1727008.90221
  19133440.9094  -26190325.07447 -20193307.79762
  20856853.1204     830623.40646    666802.17961
  18355639.8314  -22906111.58447 -17616647.15564
  18763542.5974  -24696089.41947 -19128806.98363
  18003360.5584  -33776224.02247 -26061183.79363
 97  2  6  2 14 59.9910000  0  6G30G 5G 7G 4G 9G24
  21713052.3944   -2659969.76844  -1841940.26861
  19110416.9724  -26311314.09447 -20287584.94562
  20860656.3084     850615.54346    682380.46461
  18354257.9564  -22913379.38847 -17622310.37864
  18759999.3084  -24714715.11447 -19143320.52563
  17986522.1754  -33864703.97747 -26130129.20163
 97  2  6  2 15 29.9910000  0  6G30G 5G 7G 4G 9G24
  21684995.409    -2807399.555 4  -1956820.60421
  19087433.4874  -26432087.28147 -20381693.91462
  20864478.0814     870688.57746    698021.77961
  18352985.8624  -22920050.77747 -17627508.86164
  18756560.3944  -24732793.18047 -19157407.34063
  17969794.1284  -33952620.54147 -26198635.60163
 97  2  6  2 15 59.9910000  0  6G30G 5G 7G 4G 9G24
  21656956.222    -2954759.907 4  -2071646.79721
  19064499.7534  -26552610.69247 -20475608.26162
  20868316.2694     890850.63946    713732.47061
  18351830.0504  -22926135.05347 -17632249.85364
  18753225.3864  -24750308.60047 -19171055.73363
  17953171.7224  -34039963.82747 -26266695.29063
 97  2  6  2 16 29.9910000  0  6G30G 5G 7G 4G 9G24
  21628919.245    -3102077.173 4  -2186439.42721
  19041612.9644  -26672886.54647 -20569329.69662
  20872164.0894     911076.40646    729492.80661
  18350777.1284  -22931660.22347 -17636555.17564
  18750003.7304  -24767260.46647 -19184264.98263
  17936660.9014  -34126732.49947 -26334307.22763
 97  2  6  2 16 59.9910000  0  6G30G 5G 7G 4G 9G24
  21600894.136    -3249355.478 4  -2301201.70621
  19018772.4644  -26792903.50547 -20662849.39362
  20876026.1514     931363.85446    745301.19461
  18349830.9954  -22936637.08647 -17640433.24864
  18746887.8004  -24783609.13247 -19197004.21763
  17920264.9174  -34212899.97147 -26401450.69663
 97  2  6  2 17 29.9910000  0  6G30G 5G 7G 4G 9G24
  21572874.058    -3396606.182 4  -2415942.45721
  18995985.9414  -26912653.21447 -20756160.84962
  20879896.1054     951704.79346    761151.27261
  18348983.3234  -22941095.63147 -17643907.44164
  18743892.8624  -24799353.90147 -19209272.88463
  17903978.7144  -34298472.23647 -26468130.36863
 97  2  6  2 17 59.9910000  0  6G30G 5G 7G 4G 9G24
  21544860.5194   -3543825.15744  -2530658.49061
  18973247.3784  -27032137.35547 -20849265.36362
  20883781.4174     972115.43845    777055.66261
  18348231.5264  -22945031.36247 -17646974.23964
  18741013.6204  -24814492.79247 -19221069.42763
  17887809.6594  -34383457.78847 -26534352.85563
 97  2  6  2 18 29.9910000  0  6G30G 5G 7G 4G 9G24
  21516850.0424   -3691004.53044  -2645343.67561
  18950558.1984  -27151376.58047 -20942179.03362
  20887673.2304     992584.95745    793005.92661
  18347583.0424  -22948439.15647 -17649629.65564
  18738247.0424  -24829035.43847 -19232401.37163
  17871745.3704  -34467855.08947 -26600116.97463
 97  2  6  2 18 59.9910000  0  6G30G 5G 7G 4G 9G24
  21488851.9874   -3838135.04644  -2759990.77861
  18927912.2374  -27270379.84747 -21034908.84862
  20891578.105     1013104.150 5    808994.89421
  18347037.9804  -22951316.76747 -17651871.94663
  18735584.3944  -24843008.02947 -19243289.11963
  17855795.6914  -34551682.43247 -26665436.96163
 97  2  6  2 19 29.9910000  0  6G30G 5G 7G 4G 9G24
  21460865.206    -3985213.540 5  -2874597.35421
  18905312.0344  -27389152.91247 -21127459.27562
  20895489.7374    1033658.28645    825011.09361
  18346590.7844  -22953660.59747 -17653698.30363
  18733028.3474  -24856441.70947 -19253756.93663
  17839946.5114  -34634963.39447 -26730331.20363
 97  2  6  2 19 59.9910000  0  6G30G 5G 7G 4G 9G24
  21432887.198    -4132243.504 5  -2989166.11521
  18882750.6364  -27507705.89547 -21219838.21563
  20899406.5894    1054233.95745    841044.07661
  18346247.8864  -22955469.85747 -17655108.11163
  18730574.5814  -24869348.68447 -19263814.33163
  17824200.0664  -34717711.06747 -26794809.89263
 97  2  6  2 20 29.9910000  0  6G30G 5G 7G 4G 9G24
  21404919.1444   -4279204.83345  -3103681.38761
  18860235.5584  -27626015.71147 -21312027.67362
  20903326.8474    1074844.07745    857103.89861
  18346003.8314  -22956731.32447 -17656091.06363
  18728222.8164  -24881717.33247 -19273452.25763
  17808562.3234  -34799900.56947 -26858853.64863
 97  2  6  2 20 59.9910000  0  6G30G 5G 7G 4G 9G24
  21376967.4644   -4426084.78745  -3218133.26661
  18837773.9644  -27744061.65347 -21404011.51462
  20907260.8944    1095504.36045    873202.82061
  18345872.9644  -22957437.30947 -17656641.17963
  18725968.1674  -24893550.05647 -19282672.57063
  17793028.2844  -34881525.21147 -26922457.25263
 97  2  6  2 21 29.9910000  0  6G30G 5G 7G 4G 9G24
  21349027.6204   -4572903.86145  -3332537.70761
  18815361.9484  -27861836.43447 -21495784.06763
  20911201.9644    1116229.70945    889352.44161
  18345844.8164  -22957602.12047
  18723814.9804  -24904854.16047 -19291480.98063
  17777605.5114  -34962568.79247 -26985608.07963
 97  2  6  2 21 59.9900000  0  7G30G 5G 7G 4G 9G10G24
  21321106.943    -4719643.705 5  -3446880.40521
  18793006.7564  -27979319.28147 -21587329.12663
  20915166.1864    1137047.61445    905574.17461
  18345916.9984  -22957221.27047
  18721768.9364  -24915617.99347 -19299868.38963
  21932028.1864         -0.69253
  17762300.5454  -35042993.26447 -27048276.48663
 97  2  6  2 22 29.9900000  0  7G30G 5G 7G 4G 9G10G24
  21293193.9984   -4866324.24745  -3561176.88061
  18770700.6864  -28096526.97547 -21678659.79063
  20919146.1314    1157957.35145    921867.46761
  18346083.8264  -22956310.47847 -17655763.10763
  18719822.7954  -24925849.76547 -19307841.21763
  21905049.889     -141741.286 3
  17747113.9514  -35122806.48647 -27110468.59563
 97  2  6  2 22 59.9900000  0  7G30G 5G 7G 4G 9G10G24
  21265292.6074   -5012954.11045  -3675433.89561
  18748450.5144  -28213461.07447 -21769777.26063
  20923135.3034    1178942.73845    938219.71961
  18346358.9984  -22954883.19847 -17654650.93263
  18717976.8814  -24935552.07147 -19315401.45863
  21878072.0684    -283524.72543        -0.25671
  17732041.3344  -35202020.94147 -27172194.13063
 97  2  6  2 23 29.9900000  0  7G30G 5G 7G 4G 9G10G24
  21237397.959    -5159552.529 5  -3789666.39121
  18726245.9204  -28330143.87147 -21860698.91163
  20927142.5684    1199976.59145    954609.72661
  18346724.1934  -22952967.37247 -17653158.07263
  18716228.4824  -24944721.62047 -19322546.57763
  21851079.943     -425359.278 3   -110520.59121
  17717076.9824  -35280665.31947 -27233475.45063
 97  2  6  2 23 59.9900000  0  7G30G 5G 7G 4G 9G10G24
  21209508.9284   -5306103.09145  -3903861.61661
  18704088.0844  -28446579.31147 -21951427.82363
  20931152.0924    1221052.84745    971032.77661
  18347181.1934  -22950562.89347 -17651284.44863
  18714591.1074  -24953331.14747 -19329255.31063
  21824085.9674    -567230.30843   -221069.36961
  17702215.3184  -35358752.96247 -27294322.95363
 97  2  6  2 24 29.9900000  0  7G30G 5G 7G 4G 9G10G24
  21181624.8344   -5452609.42345  -4018022.35361
  18681981.6784  -28562748.40047 -22041949.17663
  20935170.084     1242172.261 5    987489.45521
  18347732.5614  -22947667.74447 -17649028.48163
  18713063.9674  -24961357.71947 -19335509.79163
  21797078.8504    -709147.99143   -331654.50461
  17687462.6074  -35436283.29247 -27354736.18563
 97  2  6  2 24 59.9900000  0  7G30G 5G 7G 4G 9G10G24
  21153757.826    -5599067.325 5  -4132145.38721
  18659929.6004  -28678643.41747 -22132256.96963
  20939193.3974    1263327.60145   1003974.13061
  18348377.1784  -22944280.28547 -17646388.89764
  18711648.1624  -24968802.87047 -19341311.21663
  21770062.397     -851114.814 3   -442277.92821
  17672815.2484  -35513253.20047 -27414712.72163
 97  2  6  2 25 29.9900000  0  7G30G 5G 7G 4G 9G10G24
  21125899.1394   -5745462.88745  -4246219.81561
  18637927.7794  -28794259.54047 -22222347.44263
  20943233.2644    1284543.06045   1020505.63961
  18349116.7564  -22940390.22147 -17643357.67364
  18710340.4904  -24975665.84447 -19346658.99963
  21743039.0764    -993122.65943   -552933.29461
  17658276.9364  -35589650.79947 -27474243.30163
 97  2  6  2 25 59.9900000  0  7G30G 5G 7G 4G 9G10G24
  21098050.600    -5891793.389 5  -4360243.53821
  18615980.6624  -28909591.82147 -22312216.74063
  20947279.6314    1305819.59145   1037084.75661
  18349953.2404  -22935999.31847 -17639936.19063
  18709139.2174  -24981974.85847 -19351575.12863
  21716010.732    -1135170.505 3   -663619.84921
  17643846.5764  -35665473.97347 -27533326.27863
 97  2  6  2 26 29.9900000  0  7G30G 5G 7G 4G 9G10G24
  21070224.4514   -6038047.32045  -4474207.64161
  18594088.2794  -29024633.72347 -22401859.76763
  20951339.4674    1327162.57045   1053715.63361
  18350886.9124  -22931096.34147 -17636115.68164
  18708040.4674  -24987753.70547 -19356078.13563
  21688969.8424   -1277245.69144   -774327.70961
  17629529.7954  -35740717.31847 -27591957.44063
 97  2  6  2 26 59.9900000  0  7G30G 5G 7G 4G 9G10G24
  21042410.8814   -6184204.95345  -4588096.67661
  18572249.4754  -29139396.33047 -22491285.15763
  20955419.8504    1348574.89845   1070400.55561
  18351917.3654  -22925675.89547 -17631891.95164
  18707036.5534  -24993025.32547 -19360185.90463
  21661939.920    -1419319.796 3   -885034.68921
  17615320.2794  -35815385.12347 -27650140.13063
 97  2  6  2 27 29.9900000  0  7G30G 5G 7G 4G 9G10G24
  21014613.9594   -6330270.17645  -4701913.69861
  18550466.5764  -29253869.61947 -22580485.11263
  20959510.943     1370066.198 5   1087147.01121
  18353045.1934  -22919745.73247 -17627271.04664
  18706127.8504  -24997797.16347 -19363904.22863
  21634904.482    -1561388.531 4   -995737.53421
  17601220.6074  -35889478.35347 -27707875.10463
 97  2  6  2 27 59.9900000  0  7G30G 5G 7G 4G 9G10G24
  20986838.092    -6476242.112 5  -4815658.05521
  18528739.9754  -29368041.11747 -22669449.91963
  20963610.4284    1391632.55145   1103951.96261
  18354269.6934  -22913309.12547 -17622255.49964
  18705317.3114  -25002062.51547 -19367227.88463
  21607869.8734   -1703443.10943  -1106429.30961
  17587235.2954  -35962988.39947 -27765155.64463
 97  2  6  2 28 29.9900000  0  7G30G 5G 7G 4G 9G10G24
  20959076.5294   -6622128.54645  -4929335.75461
  18507071.5454  -29481915.68147 -22758183.33963
  20967725.2014    1413264.67245   1120808.13961
  18355589.2484  -22906376.21347 -17616853.22664
  18704607.4514  -25005804.48947 -19370143.73163
  21580838.2484   -1845488.45244  -1217113.93461
  17573355.6704  -36035913.68547 -27821980.52663
 97  2  6  2 28 59.9900000  0  7G30G 5G 7G 4G 9G10G24
  20931331.4674   -6767943.41545  -5042957.69661
  18485458.2254  -29595493.98047 -22846685.90563
  20971851.5764    1434947.53945   1137703.87861
  18356998.6234  -22898967.24147 -17611079.99264
  18703994.7254  -25009023.74247 -19372652.24763
  21553809.9044   -1987536.19944  -1327800.40961
  17559588.1074  -36108261.71747 -27878355.59963
 97  2  6  2 29 29.9900000  0  7G30G 5G 7G 4G 9G10G24
  20903596.365    -6913686.022 5  -5156523.34621
  18463900.2874  -29708778.91347 -22934959.87463
  20975987.8264    1456679.07245   1154637.52161
  18358496.7404  -22891094.06247 -17604945.04864
  18703483.9434  -25011713.25047 -19374747.98463
  21526776.3734   -2129594.75744  -1438495.31461
  17545930.8574  -36180027.04647 -27934276.62363
 97  2  6  2 29 59.9900000  0  7G30G 5G 7G 4G 9G10G24
  20875873.756    -7059360.144 5  -5270035.61221
  18442392.9904  -29821805.00447 -23023032.14963
  20980128.8814    1478432.67345   1171588.37261
  18360081.0844  -22882761.81847 -17598452.38964
  18703073.4044  -25013881.29847 -19376437.38763
  21499739.568    -2271666.338 4  -1549200.38421
  17532383.0224  -36251224.67747 -27989755.27663
 97  2  6  2 30 29.9900000  0  7G30G 5G 7G 4G 9G10G24
  20848166.607    -7204966.086 5  -5383494.74521
  18420930.7014  -29934579.26447 -23110908.18663
  20984270.2094    1500198.01645   1188548.37861
  18361757.1934  -22873969.67747 -17591601.36264
  18702753.5684  -25015534.95547 -19377725.95763
  21472703.2404   -2413754.67844  -1659918.48761
  17518941.4904  -36321861.02047 -28044796.57163
 97  2  6  2 30 59.9900000  0  7G30G 5G 7G 4G 9G10G24
  20820472.990    -7350498.914 5  -5496896.92121
  18399521.8974  -30047088.12747 -23198577.43163
  20988419.0374    1521990.49145   1205529.51861
  18363519.1394  -22864708.26247 -17584384.67364
  18702532.2254  -25016694.80447 -19378629.74463
  21445667.2404   -2555840.06244  -1770634.31161
  17505607.2014  -36391929.31247 -28099395.22763
 97  2  6  2 31 29.9900000  0  7G30G 5G 7G 4G 9G10G24
  20792789.826    -7495971.855 5  -5610252.43921
  18378161.0224  -30159342.05547 -23286048.01463
  20992566.1474    1543793.28445   1222518.70161
  18365366.8344  -22854987.75547 -17576810.24964
  18702407.8974  -25017374.71147 -19379159.55763
  21418620.826    -2697940.199 4  -1881361.62621
  17492379.8574  -36461446.46247 -28153564.41563
 97  2  6  2 31 59.9900000  0  7G30G 5G 7G 4G 9G10G24
  20765121.4754   -7641367.39745  -5723547.61761
  18356855.8734  -30271296.94247 -23373285.57763
  20996722.154     1565629.070 5   1239533.60321
  18367308.9904  -22844782.93047 -17568858.43364
  18702375.8574  -25017546.06147
  21391587.115    -2840018.703 4  -1992072.09321
  17479260.4904  -36530396.17947 -28207291.46163
 97  2  6  2 32 29.9900000  0  7G30G 5G 7G 4G 9G10G24
  20737471.193    -7786678.555 5  -5836777.08121
  18335612.4824  -30382930.67347 -23460272.89363
  21000880.0844    1587505.11845   1256579.85861
  18369344.1154  -22834106.65347 -17560539.25264
  18702430.0924  -25017224.62947
  21364552.139    -2982078.785 4  -2102768.20021
  17466246.0294  -36598777.89947 -28260575.90763
 97  2  6  2 32 59.9900000  0  7G30G 5G 7G 4G 9G10G24
  20709836.6394   -7931899.13145  -5949935.94561
  18314432.4284  -30494238.66647 -23547006.38763
  21005053.7724    1609427.38145   1273662.13661
  18371462.4364  -22822966.54247 -17551858.64864
  18702587.1624  -25016415.57547 -19378412.22162
  21337521.897    -3124124.849 4  -2213453.39221
  17453341.5294  -36666586.73147 -28313413.94463
 97  2  6  2 33 29.9900000  0  7G30G 5G 7G 4G 9G10G24
  20682222.1474   -8077007.04945  -6063007.02161
  18293311.6934  -30605222.27247 -23633487.11063
  21009240.8504    1631405.39045   1290787.84761
  18373670.8894  -22811349.46047 -17542806.36764
  18702841.9284  -25015085.70146 -19377375.96562
  21310496.6624   -3266147.94544  -2324120.69161
  17440549.5374  -36733816.65747 -28365800.89063
 97  2  6  2 33 59.9900000  0  7G30G 5G 7G 4G 9G10G24
  20654632.5534   -8222007.01845  -6175993.97161
  18272251.9124  -30715899.77447 -23719729.31863
  21013431.756     1653445.737 5   1307962.11821
  18375972.1784  -22799260.25447 -17533386.21064
  18703189.4434  -25013249.63046 -19375945.26962
  21283476.2404   -3408152.46444  -2434773.50061
  17427865.4754  -36800470.54647 -28417738.97163
 97  2  6  2 34 29.9900000  0  7G30G 5G 7G 4G 9G10G24
  20627056.084    -8366908.376 5  -6288904.09621
  18251246.6704  -30826278.85547 -23805738.99163
  21017639.0924    1675545.63545   1325182.81461
  18378362.0454  -22786697.43647 -17523596.99464
  18703634.0534  -25010908.66246 -19374121.14862
  21256445.428    -3550164.868 4  -2545432.47921
  17415295.0764  -36866539.06047 -28469220.91863
 97  2  6  2 34 59.9900000  0  7G30G 5G 7G 4G 9G10G24
  20599496.529    -8511724.552 5  -6401747.83321
  18230296.4284  -30936369.97147 -23891524.26963
  21021854.6474    1697709.75345   1342453.54261
  18380844.1864  -22773649.14247 -17513429.49264
  18704181.6704  -25008049.34646 -19371893.12462
  21229426.4124   -3692184.33244  -2656096.94761
  17402829.9284  -36932030.52847 -28520253.22063
 97  2  6  2 35 29.9900000  0  7G30G 5G 7G 4G 9G10G24
  20571955.4364   -8656459.22845  -6514528.08061
  18209402.2724  -31046171.47847 -23977083.87663
  21026082.9594    1719940.21545   1359775.97161
  18383424.8734  -22760104.41347 -17502875.15364
  18704821.7564  -25004669.86646 -19369259.77662
  21202399.8264   -3834203.74444  -2766761.36961
  17390476.1864  -36996949.91947 -28570839.74463
 97  2  6  2 35 59.9900000  0  7G30G 5G 7G 4G 9G10G24
  20544426.889    -8801116.892 5  -6627248.28821
  18188568.2564  -31155655.40047 -24062396.00563
  21030331.568     1742243.593 5   1377155.21221
  18386093.3974  -22746065.85647 -17491936.01764
  18705565.9364  -25000779.93546 -19366228.67762
  21175374.3894   -3976217.46844  -2877421.39361
  17378234.7874  -37061278.87247 -28620966.18863
 97  2  6  2 36 29.9900000  0  7G30G 5G 7G 4G 9G10G24
  20516915.334    -8945698.327 5  -6739909.11821
  18167792.3184  -31264829.56947 -24147466.77963
  21034584.6234    1764592.75445   1394570.13961
  18388854.6624  -22731566.99747 -17480638.20064
  18706396.6784  -24996396.87546 -19362813.31462
  21148352.561    -4118219.521 4  -2988072.29921
  17366103.3504  -37125033.97147 -28670645.47363
 97  2  6  2 36 59.9900000  0  7G30G 5G 7G 4G 9G10G24
  20489416.6314   -9090203.63345  -6852510.63161
  18147073.8654  -31373708.77247 -24232307.70763
  21038840.9674    1786973.73545   1412009.85261
  18391694.1704  -22716630.95647 -17468999.72664
  18707320.2644  -24991550.94546 -19359037.27662
  21121335.8114   -4260197.41444  -3098704.38261
  17354074.8504  -37188241.33747 -28719897.96063
 97  2  6  2 37 29.9900000  0  7G30G 5G 7G 4G 9G10G24
  20461939.670    -9234602.863 5  -6965029.48221
  18126417.3814  -31482261.00747 -24316893.85663
  21043107.3974    1809399.49745   1429484.46961
  18394620.0924  -22701265.97247 -17457027.01163
  18708331.9984  -24986229.15646 -19354890.43062
  21094326.7644   -4402126.67044  -3209298.58361
  17342155.8654  -37250869.77047 -28768699.32363
 97  2  6  2 37 59.9900000  0  7G30G 5G 7G 4G 9G10G24
  20434487.5684   -9378869.72245  -7077445.19861
  18105825.8424  -31590475.35047 -24401216.71363
  21047385.6004    1831875.05145   1446997.88561
  18397621.9594  -22685485.53147 -17444730.56363
  18709437.8894  -24980421.86046 -19350365.26862
  21067327.5064   -4544000.83544  -3319849.85561
  17330349.7874  -37312909.56047 -28817042.00563
 97  2  6  2 38 29.9890000  0  7G30G 5G 7G 4G 9G10G24
  20407058.290    -9523007.581 5  -7189760.38221
  18085291.4394  -31698375.76847 -24485294.95363
  21051669.7514    1854382.38845   1464536.05961
  18400701.9314  -22669309.55547 -17432125.90863
  18710631.0874  -24974145.51746 -19345474.61062
  21040334.5564   -4685839.08744  -3430373.12761
  17318652.0794  -37374391.28047 -28864949.82263
 97  2  6  2 38 59.9890000  0  7G30G 5G 7G 4G 9G10G24
  20379653.774    -9667013.165 5  -7301972.51121
  18064821.2204  -31805945.16047 -24569115.26063
  21055963.704     1876954.367 5   1482124.60321
  18403857.5174  -22652715.89447 -17419195.77863
  18711920.2984  -24967385.78046 -19340207.27962
  21013354.7594   -4827646.21244  -3540872.17461
  17307058.5404  -37435307.35347 -28912416.88163
 97  2  6  2 39 29.9890000  0  7G30G 5G 7G 4G 9G10G24
  20352277.196    -9810882.589 5  -7414078.52221
  18044415.3064  -31913184.67447 -24652678.51263
  21060269.3534    1899591.24345   1499763.71561
  18407096.8454  -22635706.38747 -17405941.61363
  18713296.0174  -24960132.87246 -19334555.66962
  20986377.501    -4969415.358 5  -3651341.61221
  17295576.9624  -37495644.90447 -28959433.13963
 97  2  6  2 39 59.9890000  0  7G30G 5G 7G 4G 9G10G24
  20324922.8214   -9954625.61645  -7526086.05361
  18024067.0404  -32020110.31747 -24735997.19463
  21064591.0014    1922284.35345   1517446.65961
  18410412.7044  -22618278.60747 -17392361.52263
  18714769.0484  -24952405.19546 -19328534.10662
  20959404.7744   -5111147.55544  -3761782.26361
  17284203.6814  -37555419.98047 -29006011.11263
 97  2  6  2 40 29.9890000  0  7G30G 5G 7G 4G 9G10G24
  20297589.7204  -10098271.12445  -7638017.59661
  18003780.0954  -32126722.30847 -24819071.47163
  21068918.9624    1945022.78645   1535164.90361
  18413808.7744  -22600426.16747 -17378450.52963
  18716328.2824  -24944218.37446 -19322154.77162
  20932441.8294   -5252828.34444  -3872182.86861
  17272933.4464  -37614643.48547 -29052159.28463
 97  2  6  2 40 59.9890000  0  7G30G 5G 7G 4G 9G10G24
  20270264.7284  -10241852.15345  -7749898.90061
  17983550.6104  -32233029.43647 -24901908.18963
  21073249.1184    1967780.07445   1552897.85861
  18417283.3534  -22582169.18547 -17364224.30563
  18717969.8144  -24935580.92746 -19315424.30962
  20905490.3144   -5394459.88745  -3982545.09661
  17261766.4154  -37673320.90947 -29097881.94063
 97  2  6  2 41 29.9890000  0  7G30G 5G 7G 4G 9G10G24
  20242953.3684  -10385371.66245  -7861732.27861
  17963380.8064  -32339021.40747 -24984499.33363
  21077580.6894    1990556.18945   1570645.46661
  18420836.8534  -22563499.78447 -17349676.71763
  18719697.6494  -24926489.88046 -19308340.39562
  20878552.728    -5536027.639 5  -4092857.58121
  17250706.3294  -37731442.13647 -29143171.19563
 97  2  6  2 41 59.9890000  0  7G30G 5G 7G 4G 9G10G24
  20215663.0014  -10528799.95945  -7973494.56461
  17943278.6264  -32444658.33747 -25066813.81963
  21081927.259     2013381.937 5   1588431.74221
  18424472.6574  -22544394.63447 -17334789.58363
  18721516.9854  -24916934.12846 -19300894.35562
  20851631.2594   -5677511.66445  -4203104.82561
  17239755.1494  -37788993.80147 -29188016.63662
 97  2  6  2 42 29.9890000  0  7G30G 5G 7G 4G 9G10G24
  20188385.048   -10672132.357 5  -8085182.12421
  17923246.4314  -32549932.70247 -25148845.78363
  21086277.1264    2036256.28445   1606255.90261
  18428187.4394  -22524862.93547 -17319570.07763
  18723427.4704  -24906908.48346 -19293082.17562
  20824719.2744   -5818908.78845  -4313284.38561
  17228912.8214  -37845972.04447 -29232415.25462
 97  2  6  2 42 59.9890000  0  7G30G 5G 7G 4G 9G10G24
  20161135.360   -10815339.374 5  -8196772.01121
  17903279.8214  -32654853.52547 -25230602.26863
  21090644.5324    2059193.35245   1624128.93761
  18431982.5484  -22504922.84747 -17304032.34563
  18725423.4544  -24896421.27746 -19284910.33662
  20797830.0714   -5960224.71345  -4423400.63461
  17218179.8144  -37902376.37647 -29276366.67063
 97  2  6  2 43 29.9890000  0  7G30G 5G 7G 4G 9G10G24
  20133914.4544  -10958384.19145  -8308235.48761
  17883381.9704  -32759423.06347 -25312085.02063
  21095017.6964    2082202.21045   1642057.91561
  18435854.1184  -22484568.81547 -17288172.05563
  18727505.5714  -24885486.46546 -19276389.70862
  20770958.407    -6101447.140 5  -4533444.02721
  17207552.3294  -37958217.89747 -29319879.53362
 97  2  6  2 43 59.9890000  0  7G30G 5G 7G 4G 9G10G24
  20106723.3994  -11101269.83745  -8419574.92761
  17863547.1814  -32863656.02947 -25393305.51063
  21099408.267     2105263.672 5   1660027.86721
  18439804.3764  -22463816.86647 -17272001.70463
  18729669.4074  -24874109.13746 -19267524.25162
  20744096.189    -6242589.746 5  -4643425.21321
  17197030.6034  -38013506.75447 -29362961.74662
 97  2  6  2 44 29.9890000  0  7G30G 5G 7G 4G 9G10G24
  20079565.7594  -11243997.03045  -8530790.91461
  17843772.5794  -32967566.79547 -25474274.93264
  21103802.7044    2128365.32145   1678029.15661
  18443828.0794  -22442669.89647 -17255523.54063
  18731919.0244  -24862285.11346 -19258310.72562
  20717255.7594   -6383654.68645  -4753345.88961
  17186614.8604  -38068248.25847 -29405617.45662
 97  2  6  2 44 59.9890000  0  7G30G 5G 7G 4G 9G10G24
  20052430.189   -11386578.603 5  -8641893.40821
  17824060.0874  -33071159.25747 -25554996.32763
  21108206.345     2151507.062 5   1696061.66821
  18447929.0014  -22421124.30647 -17238734.77163
  18734251.4784  -24850020.88746 -19248754.19762
  20690419.9934   -6524654.73344  -4863215.98061
  17176299.6654  -38122456.90147 -29447857.94062
 97  2  6  2 45 29.9890000  0  7G30G 5G 7G 4G 9G10G24
  20025323.0954  -11529035.14345  -8752898.48961
  17804412.2354  -33174411.12747 -25635452.32764
  21112618.204     2174672.375 5   1714112.53421
  18452106.7284  -22399167.69647 -17221625.71763
  18736671.6034  -24837301.18046 -19238842.74862
  20663602.6424   -6665592.43745  -4973037.51061
  17166084.7824  -38176131.22147 -29489682.08562
 97  2  6  2 45 59.9890000  0  7G30G 5G 7G 4G 9G10G24
  19998232.118   -11671383.240 5  -8863819.05221
  17784827.9934  -33277322.69647 -25715643.15464
  21117028.0014    2197845.34045   1732169.38961
  18456360.2984  -22376810.30247 -17204204.37063
  18739180.7204  -24824120.25546 -19228571.91862
  20636790.4074   -6806492.87045  -5082829.99561
  17155974.2824  -38229260.83347 -29531081.76662
 97  2  6  2 46 29.9890000  0  7G30G 5G 7G 4G 9G10G24
  19971171.415   -11813609.016 5  -8974644.30821
  17765311.8924  -33379881.21547 -25795558.88864
  21121442.970     2221037.990 5   1750241.56421
  18460693.9544  -22354038.26947 -17186459.93063
  18741776.9624  -24810482.54346 -19217945.14262
  20609992.001    -6947337.426 5  -5192578.94321
  17145970.4074  -38281833.18447 -29572047.22262
 97  2  6  2 46 59.9890000  0  7G30G 5G 7G 4G 9G10G24
  19944126.1734  -11955720.56945  -9085380.57161
  17745866.8374  -33482064.91647 -25875182.56064
  21125860.4544    2244256.75545
  18465104.7744  -22330856.55547 -17168396.25763
  18744457.4854  -24796395.42446 -19206968.17962
  20583201.8374   -7088107.51445  -5302269.86661
  17136076.0644  -38333835.82047 -29612568.74762
 97  2  6  2 47 29.9890000  0  7G30G 5G 7G 4G 9G10G24
  19917108.3294  -12097701.66245  -9196015.16561
  17726493.3374  -33583873.19847 -25954513.67364
  21130282.642     2267502.604 5
  18469595.5874  -22307264.83247 -17150013.09263
  18747221.5644  -24781867.64346 -19195647.83862
  20556429.087    -7228790.221 5  -5411892.72121
  17126288.4784  -38385259.49847 -29652639.13262
 97  2  6  2 47 59.9890000  0  7G30G 5G 7G 4G 9G10G24
  19890118.165   -12239547.066 5  -9306544.02421
  17707189.0014  -33685318.52947 -26033561.98264
  21134712.8604    2290791.24345        -0.29871
  18474160.8294  -22283275.89547 -17131320.41363
  18750065.6264  -24766925.13146 -19184004.32462
  20529682.071    -7369373.399 5  -5521438.01921
  17116615.5484  -38436099.01947 -29692254.33262
 97  2  6  2 48 29.9890000  0  7G30G 5G 7G 4G 9G10G24
  19863148.7984  -12381267.12045  -9416975.22861
  17687953.6734  -33786405.75247 -26112331.24364
  21139156.4784    2314131.80745     18187.14161
  18478799.1964  -22258905.93147 -17112330.83263
  18752979.5644  -24751594.06346 -19172058.03962
  20502946.204    -7509847.407 5  -5630898.24721
  17107046.6344  -38486376.62047 -29731431.66962
 97  2  6  2 48 59.9890000  0  7G30G 5G 7G 4G 9G10G24
  19836202.751   -12522859.411 5  -9527306.85321
  17668785.0094  -33887134.13347 -26190820.88864
  21143607.4154    2337531.01845     36420.27061
  18483507.4854  -22234165.01547 -17093052.19663
  18755973.0324  -24735869.50546 -19159805.14362
  20476235.7044   -7650211.90945  -5740273.15961
  17097585.8064  -38536099.60447 -29770176.83762
 97  2  6  2 49 29.9890000  0  6G30G 5G 4G 9G10G24
  19809284.8684  -12664314.73045  -9637531.76761
  17649680.7744  -33987528.65347 -26269050.37764
  18488283.0484  -22209062.14947 -17073491.51563
  18759040.3144  -24719754.36746 -19147247.90562
  20449542.353    -7790486.407 5  -5849577.91921
  17088227.5404  -38585276.02247 -29808496.11462
 97  2  6  2 49 59.9890000  0  6G30G 5G 4G 9G10G24
  19782395.0564  -12805625.86846  -9747644.31661
  17630640.4464  -34087585.22347 -26347016.52364
  18493126.4544  -22183607.34747 -17053656.59963
  18762184.9544  -24703238.50646 -19134378.41462
  20422867.360    -7930662.676 5  -5958806.15121
  17078972.1034  -38633913.59547 -29846395.51062
 97  2  6  2 50 29.9890000  0  6G30G 5G 4G 9G10G24
  19755533.1734  -12946774.21145  -9857630.02461
  17611666.2354  -34187296.76647 -26424713.81964
  18498039.1184  -22157790.39047 -17033539.49763
  18765407.6344  -24686304.05746 -19121182.75762
  20396215.4394   -8070728.40345  -6067948.25361
  17069817.8924  -38682019.55647 -29883880.66362
 97  2  6  2 50 59.9890000  0  6G30G 5G 4G 9G10G24
  19728705.392   -13087768.202 6  -9967495.44621
  17592756.7284  -34286665.46547 -26502143.96864
  18503020.6814  -22131619.09447 -17013146.27563
  18768705.6964  -24668956.41946 -19107665.13562
  20369580.618    -8210690.615 5  -6177009.68021
  17060762.9394  -38729603.15547 -29920958.78562
 97  2  6  2 51 29.9890000  0  6G30G 5G 4G 9G10G24
  19701892.7204  -13228661.62946 -10077282.53261
  17573904.9154  -34385730.72247 -26579337.67764
  18508056.6894  -22105150.50047 -16992521.39463
  18772076.0244  -24651251.46746 -19093869.09362
  20342957.7354   -8350601.30045  -6286030.96261
  17051797.4314  -38776718.65247 -29957672.14662
 97  2  6  2 51 59.9890000  0  6G30G 5G 4G 9G10G24
  19675121.8214  -13369349.15746 -10186909.16661
  17555134.4394  -34484365.76047 -26656196.14764
  18513168.8374  -22078280.12847 -16971583.44463
  18775534.5244  -24633085.51846 -19079713.82262
  20316365.3374   -8490348.25045  -6394924.65361
  17042940.9394  -38823264.03047 -29993941.26862
 97  2  6  2 52 29.9890000  0  6G30G 5G 4G 9G10G24
  19648379.7674  -13509880.83546 -10296414.35361
  17536441.8214  -34582604.57447 -26732745.87164
  18518354.1654  -22051040.70047 -16950357.91463
  18779067.4464  -24614501.86646 -19065233.07162
  20289790.751    -8629987.449 5  -6503734.39221
  17034184.5954  -38869274.77947 -30029793.79562
 97  2  6  2 52 59.9890000  0  6G30G 5G 4G 9G10G24
  19621664.5094  -13650274.46846 -10405811.97761
  17517822.4234  -34680450.14447 -26808989.17764
  18523603.3924  -22023450.04547 -16928858.70263
  18782684.0874  -24595503.87946 -19050429.45662
  20263236.884    -8769532.425 5  -6612470.70621
  17025532.4234  -38914741.18047 -30065222.15462
 97  2  6  2 53 29.9890000  0  7G30G 5G 6G 4G 9G10G24
  19594977.7124  -13790515.36446 -10515090.58461
  17499273.6734  -34777919.51747 -26884939.33964
  21526082.3064         -0.37153
  18528920.1964  -21995513.32647 -16907089.82863
  18786378.1734  -24576090.89346 -19035302.46962
  20236701.6494   -8908980.51945  -6721131.53761
  17016985.6734  -38959656.36747 -30100220.98662
 97  2  6  2 53 59.9890000  0  7G30G 5G 6G 4G 9G10G24
  19568322.0874  -13930594.83146 -10624243.40261
  17480796.5484  -34875021.00147 -26960602.82864
  21503540.0404    -118491.80843
  18534300.7514  -21967230.67947 -16885051.39863
  18790150.4854  -24556270.52546 -19019858.04462
  20210187.243    -9048313.728 5  -6829702.82821
  17008543.4854  -39004016.45047 -30134787.27863
 97  2  6  2 54 29.9880000  0  7G30G 5G 6G 4G 9G10G24
  19541696.926   -14070508.388 6 -10733266.93821
  17462386.2624  -34971766.44847 -27035988.88364
  21480999.129     -236921.021 2        -0.18231
  18539748.3484  -21938609.02547 -16862748.80563
  18793996.6294  -24536059.30546 -19004109.05062
  20183700.692    -9187506.975 5  -6938165.07521
  17000207.8564  -39047819.41547 -30168919.45462
 97  2  6  2 54 59.9880000  0  7G30G 5G 6G 4G 9G10G24
  19515104.0434  -14210247.18746 -10842154.31261
  17444043.8874  -35068152.97447 -27111095.26864
  21458474.9104    -355288.95343    -92234.91261
  18545259.2154  -21909643.39647 -16840178.19163
  18797917.8954  -24515466.96346 -18988063.07662
  20157242.270    -9326541.365 5  -7046503.54221
  16991981.8244  -39091049.60447 -30202605.30763
 97  2  6  2 55 29.9880000  0  7G30G 5G 6G 4G 9G10G24
  19488547.1524  -14349808.31046 -10950903.22361
  17425769.6764  -35164185.17747 -27185925.54464
  21435962.0124    -473602.30043   -184427.05261
  18550836.8714  -21880349.40747 -16817351.71063
  18801897.5984  -24494529.33846 -18971748.04862
  20130811.215    -9465422.419 5  -7154722.52721
  16983858.2624  -39133738.55147 -30235869.41563
 97  2  6  2 55 59.9880000  0  7G30G 5G 6G 4G 9G10G24
  19462017.4964  -14489224.25446 -11059539.00861
  17407563.8794  -35259859.26047 -27260476.78763
  21413458.3714    -591867.77543   -276581.92961
  18556471.4264  -21850731.10747 -16794272.51363
  18805946.4574  -24473267.99046 -18955180.77162
  20104409.473    -9604161.022 5  -7262830.49821
  16975833.0434  -39175911.38247 -30268731.35763
 97  2  6  2 56 29.9880000  0  7G30G 5G 6G 4G 9G10G24
  19435515.7384  -14628491.44346 -11168058.88661
  17389428.2384  -35355165.33647 -27334741.27063
  21390963.473     -710060.816 3   -368680.36121
  18562173.5904  -21820764.29447 -16770921.74963
  18810055.2854  -24451663.85146 -18938346.38962
  20078035.7774   -9742762.84845  -7370831.90561
  16967908.1294  -39217557.44747 -30301182.82762
 97  2  6  2 56 59.9880000  0  7G30G 5G 6G 4G 9G10G24
  19409039.4964  -14767622.82146 -11276472.93261
  17371363.3244  -35450092.98647 -27408710.87363
  21368482.2154    -828200.47243   -460737.21761
  18567942.7464  -21790450.29447 -16747300.44963
  18814236.6764  -24429703.57846 -18921234.49662
  20051681.7774   -9881251.90045  -7478745.42061
  16960080.7314  -39258689.28347 -30333233.60462
 97  2  6  2 57 29.9880000  0  7G30G 5G 6G 4G 9G10G24
  19382590.4494  -14906618.93846 -11384781.58461
  17353373.0204  -35544633.32747 -27482378.67863
  21346012.168     -946282.775 3   -552749.32321
  18573778.9344  -21759783.70047 -16723404.40163
  18818488.6214  -24407356.37146 -18903821.08962
  20025351.746   -10019615.789 5  -7586561.41721
  16952348.6764  -39299317.25447 -30364891.75562
 97  2  6  2 57 59.9880000  0  7G30G 5G 6G 4G 9G10G24
  19356166.2314  -15045482.07246 -11492986.61561
  17335457.4424  -35638781.66747 -27555741.02463
  21323556.2544   -1064310.03943   -644718.58761
  18579681.4734  -21728763.81547 -16699233.05763
  18822815.8244  -24384605.52646 -18886093.17162
  19999047.879   -10157845.593 5  -7694272.92721
  16944717.4654  -39339423.71747 -30396143.53662
 97  2  6  2 58 29.9880000  0  7G30G 5G 6G 4G 9G10G24
  19329769.5674  -15184190.78546 -11601071.31661
  17317616.9104  -35732528.53047 -27628790.52463
  21301101.363    -1182294.055 3   -736654.12321
  18585645.3174  -21697410.29947 -16674801.73863
  18827227.7074  -24361446.91546 -18868047.51862
  19972773.0204  -10295938.93745  -7801878.10761
  16937185.4884  -39379004.02647 -30426985.33262
 97  2  6  2 58 59.9880000  0  7G30G 5G 6G 4G 9G10G24
  19303405.3014  -15322734.47046 -11709027.42861
  17299856.3174  -35825860.89947 -27701517.04163
  21278655.4574   -1300248.06043   -828566.28061
  18591670.5984  -21665756.37547 -16650136.34563
  18831706.0744  -24337898.93346 -18849698.46362
  19946521.285   -10433889.119 5  -7909371.74021
  16929751.4964  -39418070.22647 -30457426.52062
 97  2  6  2 59 29.9880000  0  7G30G 5G 6G 4G 9G10G24
  19277079.2464  -15461084.99046 -11816833.02861
  17282175.2314  -35918777.37147 -27773919.48363
  21256220.801    -1418158.072 3   -920444.17621
  18597750.6064  -21633812.24147 -16625244.80963
  18836256.4964  -24313982.19346 -18831062.05862
  19920300.3874  -10571679.52845  -8016740.87061
  16922416.5354  -39456616.47647 -30487462.55263
 97  2  6  2 59 59.9880000  0  7G30G 5G 6G 4G 9G10G24
  19250791.652   -15599223.321 6 -11924473.27321
  17264573.5124  -36011280.72947 -27846000.02163
  21233792.2774   -1536016.43143  -1012281.81961
  18603885.7384  -21601574.78947 -16600124.72163
  18840873.0044  -24289717.62546 -18812154.62262
  19894107.1924  -10709311.28445  -8123986.37161
  16915180.8404  -39494643.93447 -30517094.33263
 97  2  6  3  0 29.9880000  0  7G30G 5G 6G 4G 9G10G24
  19224547.3014  -15737136.83046 -12031938.34361
  17247048.6064  -36103376.51547 -27917762.96763
  21211373.6524   -1653800.31543  -1104061.43661
  18610074.7464  -21569040.57647 -16574773.38063
  18845556.527   -24265113.976 6 -18792982.96422
  19867948.8404  -10846777.33545  -8231102.75361
  16908039.6924  -39532167.35347 -30546333.35563
 97  2  6  3  0 59.9880000  0  7G30G 5G 6G 4G 9G10G24
  19198346.1214  -15874826.18246 -12139228.72761
  17229597.5274  -36195081.98147 -27989221.76463
  21188983.2934   -1771487.30843  -1195765.55761
  18616323.0274  -21536207.54647 -16549189.20563
  18850301.5434  -24240182.19146 -18773555.62862
  19841822.4964  -10984065.20845  -8338080.31261
  16900995.5514  -39569183.17147 -30575176.83863
 97  2  6  3  1 29.9880000  0  7G30G 5G 6G 4G 9G10G24
  19172182.488   -16012325.714 6 -12246371.20821
  17212213.9344  -36286431.00947 -28060402.83063
  21166604.4184   -1889075.24643  -1287392.49561
  18622625.0824  -21503085.63947 -16523379.92463
  18855105.1374  -24214936.80246 -18753883.90762
  19815733.7314  -11121182.23545  -8444924.72061
  16894046.9574  -39605704.08347 -30603634.67863
 97  2  6  3  1 59.9880000  0  7G30G 5G 6G 4G 9G10G24
  19146049.2934  -16149648.72046 -12353376.14561
  17194901.1374  -36377411.93947 -28131297.05663
  21144247.9424   -2006559.12343  -1378938.33861
  18628986.1604  -21469659.69647 -16497333.73363
  18859974.0594  -24189363.87946 -18733956.96262
  19789675.9884  -11258122.20945  -8551631.17961
  16887192.4654  -39641717.51547 -30631697.08163
 97  2  6  3  2 29.9880000  0  7G30G 5G 6G 4G 9G10G24
  19119951.3014  -16286797.65346 -12460245.43461
  17177661.5274  -36468002.71547 -28201887.26463
  21121913.1924   -2123944.99543  -1470407.82361
  18635404.9964  -21435932.88947 -16471053.10463
  18864904.1064  -24163444.67346 -18713760.18862
  19763649.645   -11394881.444 5  -8658196.79621
  16880441.1844  -39677199.35247 -30659345.25863
 97  2  6  3  2 59.9880000  0  7G30G 5G 6G 4G 9G10G24
  19093884.5514  -16423781.47346 -12566986.06961
  17160498.2464  -36558198.42947 -28272169.63463
  21099587.6134   -2241264.34443  -1561825.49561
  18641876.5594  -21401923.37047 -16444552.18263
  18869901.4654  -24137183.62446 -18693297.04662
  19737654.5744  -11531472.19545  -8764631.13061
  16873791.2314  -39712145.48547 -30686576.00863
 97  2  6  3  3 29.9880000  0  7G30G 5G 6G 4G 9G10G24
  19067847.2544  -16560601.44346 -12673599.02761
  17143411.2074  -36647994.26747 -28342140.42163
  21077267.457    -2358541.052 3  -1653209.91821
  18648401.8634  -21367632.39547 -16417831.94063
  18874963.2464  -24110584.41246 -18672570.38962
  19711694.5674  -11667909.44145  -8870945.84461
  16867240.6524  -39746567.97847 -30713398.72563
 97  2  6  3  3 59.9880000  0  7G30G 5G 6G 4G 9G10G24
  19041848.0274  -16697232.34346 -12780064.65361
  17126401.1994  -36737377.89147 -28411790.00163
  21054956.3954   -2475787.09443  -1744570.45361
  18654981.9264  -21333055.44847 -16390888.86762
  18880091.2384  -24083641.69346 -18651576.06762
  19685758.7704  -11804197.59645  -8977144.37361
  16860787.6374  -39780474.03447 -30739819.02663
 97  2  6  3  4 29.9880000  0  7G30G 5G 6G 4G 9G10G24
  19015885.8244  -16833666.22346 -12886376.73961
  17109468.0904  -36826362.32047 -28481128.52563
  21032655.4654   -2593003.85343  -1835908.14161
  18661611.7464  -21298212.23447 -16363738.30662
  18885283.3094  -24056356.69446 -18630315.05762
  19659855.652   -11940328.689 5  -9083220.52221
  16854431.1924  -39813884.86247 -30765853.43663
 97  2  6  3  4 59.9880000  0  7G30G 5G 6G 4G 9G10G24
  18989963.817   -16969887.652 6 -12992523.29521
  17092611.5594  -36914945.89747 -28550154.69763
  21010353.051    -2710181.387 3  -1927215.28121
  18668294.0674  -21263092.60547 -16336372.36662
  18890538.3014  -24028736.78646 -18608793.06161
  19633982.692   -12076284.870 5  -9189160.38221
  16848164.9104  -39846812.62247 -30791511.42363
 97  2  6  3  5 29.9880000  0  7G30G 5G 6G 4G 9G10G24
  18964081.481   -17105897.778 6 -13098505.19521
  17075833.3564  -37003114.41347 -28618857.43463
  20988065.0354   -2827312.66843  -2018486.39561
  18675033.0514  -21227685.90147 -16308782.72662
  18895856.2934  -24000787.22246 -18587014.19661
  19608144.785   -12212059.528 5  -9294958.79521
  16841989.3794  -39879266.64047 -30816800.25863
 97  2  6  3  5 59.9880000  0  7G30G 5G 6G 4G 9G10G24
  18938239.0744  -17241698.67246 -13204324.06061
  17059136.0904  -37090858.15447 -28687229.18163
  20965783.0044   -2944390.25443  -2109715.64361
  18681825.9574  -21191993.05347 -16280970.11462
  18901237.1684  -23972500.99746 -18564973.00161
  19582347.059   -12347639.380 5  -9400605.41221
  16835906.4344  -39911234.69347 -30841710.43063
 97  2  6  3  6 29.9880000  0  7G30G 5G 6G 4G 9G10G24
  18912437.004   -17377287.547 6
  17042521.3014  -37178172.90847 -28755266.64763
  20943519.1214   -3061414.44043  -2200903.27961
  18688672.2934  -21156013.47847 -16252934.08462
  18906681.6994  -23943889.70846 -18542678.52161
  19556582.9424  -12483021.57945
  16829919.3244  -39942698.14447 -30866227.39163
 97  2  6  3  6 59.9880000  0  7G30G 5G 6G 4G 9G10G24
  18886675.6764  -17512661.10446
  17025987.8014  -37265054.00547 -28822966.19563
  20921258.801    -3178379.541 3  -2292044.86321
  18695575.3404  -21119730.46247 -16224661.60362
  18912187.6294  -23914969.84046 -18520143.57461
  19530858.1604  -12618213.15145
  16824029.3244  -39973648.20447 -30890344.31763
 97  2  6  3  7 29.9880000  0  7G30G 5G 6G 4G 9G10G24
  18860952.7314  -17647838.15946
  17009535.4734  -37351515.21847 -28890338.56364
  20899014.7854   -3295287.01443  -2383141.57561
  18702534.7074  -21083158.17147 -16196163.71362
  18917747.6134  -23885749.90246 -18497374.81261
  19505168.3634  -12753211.65745
  16818237.8564  -40004082.54747 -30914059.38663
 97  2  6  3  7 59.9880000  0  7G30G 5G 6G 4G 9G10G24
  18835265.582   -17782817.908 6 -13625975.35421
  16993159.7314  -37437569.77547 -28957394.06164
  20876782.660    -3412131.497 3  -2474189.17921
  18709548.8634  -21046305.50647 -16167447.35362
  18923361.7464  -23856238.75446 -18474379.14961
  19479518.3564  -12888002.03445  -9821667.15461
  16812544.6374  -40033998.70647 -30937370.66863
 97  2  6  3  8 29.9880000  0  7G30G 5G 6G 4G 9G10G24
  18809620.512   -17917598.524 6 -13730999.19521
  16976862.9654  -37523208.71847 -29024125.70964
  20854554.6924   -3528907.32943  -2565183.28161
  18716615.1924  -21009173.17647 -16138513.06962
  18929032.543   -23826442.976 6 -18451161.69321
  19453910.0514  -13022574.03045  -9926528.43561
  16806948.0594  -40063410.45947 -30960288.91063
 97  2  6  3  8 59.9880000  0  7G30G 5G 6G 4G 9G10G24
  18784005.5044  -18052206.82146 -13835888.76761
  16960645.5904  -37608433.15347 -29090534.35863
  20832343.535    -3645625.902 3  -2656132.77221
  18723727.6994  -20971789.31047 -16109382.79062
  18934755.5204  -23796374.05146 -18427731.37861
  19428341.4424  -13156925.79145 -10031218.10161
  16801441.1604  -40092350.48247 -30982839.56763
 97  2  6  3  9 29.9880000  0  7G30G 5G 6G 4G 9G10G24
  18758420.3404  -18186647.36346 -13940647.63061
  16944509.1214  -37693233.31647 -29156612.40964
  20810144.363    -3762303.980 3  -2747050.71121
  18730884.0124  -20934183.69547 -16080079.71362
  18940530.1684  -23766023.83546 -18404081.86961
  19402817.5824  -13291057.00145 -10135735.91661
  16796021.9494  -40120830.01947 -31005031.40863
 97  2  6  3  9 59.9880000  0  7G30G 5G 6G 4G 9G10G24
  18732874.8244  -18320894.81746 -14045256.01261
  16928454.7384  -37777592.50647 -29222346.83964
  20787948.4104   -3878929.40444  -2837927.63061
  18738084.3174  -20896350.28147 -16050599.12662
  18946359.512   -23735380.540 6 -18380203.99421
  19377337.6684  -13424965.91845 -10240080.51261
  16790690.7314  -40148840.78047 -31026857.96863
 97  2  6  3 10 29.9880000  0  7G30G 5G 6G 4G 9G10G24
  18707366.176   -18454937.474 6 -14149704.81421
  16912484.8634  -37861516.91747 -29287742.48664
  20765767.184    -3995510.624 3  -2928770.10021
  18745324.5674  -20858298.06747 -16020948.05562
  18952251.3794  -23704434.71746 -18356090.37861
  19351896.5204  -13558664.44045 -10344261.16261
  16785448.4964  -40176391.50247 -31048326.05063
 97  2  6  3 10 59.9880000  0  7G30G 5G 6G 4G 9G10G24
  18681900.9884  -18588767.76346 -14253988.14261
  16896593.6524  -37945027.19847 -29352815.43564
  20743585.3714   -4112060.87343  -3019588.41261
  18752605.0434  -20820044.88247 -15991140.38162
  18958193.7074  -23673201.51046 -18331752.82961
  19326489.9814  -13692164.72046 -10448287.34761
  16780292.4344  -40203488.06947 -31069440.25263
 97  2  6  3 11 29.9870000  0  7G30G 5G 6G 4G 9G10G24
  18656481.1014  -18722355.01246 -14358082.09061
  16880781.1944  -38028123.56947 -29417565.85164
  20721421.1094   -4228551.64544  -3110360.39261
  18759926.9294  -20781566.20647 -15961156.99662
  18964190.5694  -23641679.20046 -18307190.00661
  19301125.4994  -13825452.78746 -10552148.16661
  16775225.2734  -40230108.82447 -31090183.69163
 97  2  6  3 11 59.9870000  0  7G30G 5G 6G 4G 9G10G24
  18631105.0234  -18855694.00046 -14461982.58261
  16865046.1634  -38110808.44147 -29481995.61564
  20699262.7734   -4344981.62744  -3201085.02661
  18767295.8044  -20742842.67247 -15930982.80562
  18970245.3594  -23609873.11446 -18282406.06361
  19275804.2184  -13958529.37446 -10655844.19261
  16770252.4054  -40256246.06747 -31110550.37063
 97  2  6  3 12 29.9870000  0  7G30G 5G 6G 4G 9G10G24
  18605782.9844  -18988766.75446 -14565675.62361
  16849392.8514  -38193067.37447 -29546093.47464
  20677123.859    -4461343.560 4  -3291756.61521
  18774710.5774  -20703875.51847 -15900618.78962
  18976350.2414  -23577794.54646 -18257409.78761
  19250522.694   -14091385.060 6 -10759368.08521
  16765369.7264  -40281909.88547 -31130548.14163
 97  2  6  3 12 59.9870000  0  7G30G 5G 6G 4G 9G10G24
  18580510.8594  -19121573.87746
  16833822.9604  -38274888.05247 -29609849.85664
  20654986.741    -4577635.495 4  -3382373.68221
  18782176.0624  -20664651.32747 -15870054.48562
  18982501.4054  -23545457.61946 -18232212.20261
  19225283.1714  -14224008.81746
  16760575.5854  -40307091.64547 -31150170.28263
 97  2  6  3 13 29.9870000  0  7G30G 5G 6G 4G 9G10G24
  18555284.0304  -19254141.23846
  16818335.7734  -38356269.49047 -29673263.94864
  20632871.757    -4693870.227 4  -3472946.16521
  18789685.8124  -20625173.40847 -15839292.46962
  18988706.3744  -23512863.16146 -18206813.93761
  19200090.9684  -14356404.80246
  16755875.0774  -40331793.00147 -31169418.08363
 97  2  6  3 13 59.9870000  0  7G30G 5G 6G 4G 9G10G24
  18530101.9294  -19386469.33246
  16802935.2964  -38437200.97647 -29736327.44764
  20610760.3664   -4810058.80744  -3563482.69561
  18797247.0154  -20585450.27147 -15808339.37762
  18994957.6014  -23480000.82646 -18181206.93261
  19174940.2804  -14488571.71246
  16751266.9294  -40356016.44747 -31188293.48963
 97  2  6  3 14 29.9870000  0  7G30G 5G 6G 4G 9G10G24
  18504964.9604  -19518572.65646
  16787618.9764  -38517691.59647 -29799047.40963
  20588659.444    -4926207.624 4  -3653988.23421
  18804850.5624  -20545486.03247 -15777198.41362
  19001263.2964  -23446868.12146 -18155389.25461
  19149832.6944  -14620506.88746
  16746746.9134  -40379767.49447 -31206800.79763
 97  2  6  3 14 59.9870000  0  7G30G 5G 6G 4G 9G10G24
  18479865.2024  -19650472.63646 -15081290.55861
  16772385.4834  -38597745.83047 -29861427.33263
  20566563.4444   -5042329.55144  -3744472.84461
  18812503.3904  -20505278.38947 -15745867.78662
  19007622.2184  -23413451.61846 -18129350.42761
  19124771.8354  -14752195.52146 -11274285.26161
  16742318.3514  -40403034.85847 -31224931.20063
 97  2  6  3 15 29.9870000  0  7G30G 5G 6G 4G 9G10G24
  18454804.2734  -19782169.42146 -15183911.42561
  16757234.9134  -38677367.99847 -29923470.58463
  20544468.8124   -5158423.46244  -3834935.59861
  18820195.8434  -20464846.69247 -15714362.56662
  19014034.7884  -23379757.89946 -18103095.58061
  19099758.390   -14883644.550 6 -11376713.05821
  16737982.5154  -40425825.80247 -31242690.37363
 97  2  6  3 15 59.9870000  0  7G30G 5G 6G 4G 9G10G24
  18429787.6794  -19913632.39246 -15286350.09661
  16742165.0074  -38756553.21347 -29985173.35463
  20522383.054    -5274477.643 4  -3925367.38521
  18827932.1094  -20424192.94847 -15682684.32462
  19020496.0234  -23345798.11146 -18076633.42961
  19074792.5854  -15014848.47346 -11478949.86661
  16733734.9914  -40448148.27847 -31260084.50563
 97  2  6  3 16 29.9870000  0  7G30G 5G 6G 4G 9G10G24
  18404815.5544  -20044853.32346 -15388600.16362
  16727178.4054  -38835307.91447 -30046540.65363
  20500308.116    -5390497.126 4  -4015772.15921
  18835709.9444  -20383322.53947 -15650837.25762
  19027004.882   -23311593.387 6 -18049980.43421
  19049872.7574  -15145801.13146 -11580990.87361
  16729574.3824  -40470009.42347 -31277119.15963
 97  2  6  3 16 59.9870000  0  7G30G 5G 6G 4G 9G10G24
  18379893.3044  -20175824.68546 -15490655.76262
  16712275.8824  -38913623.75647 -30107565.97563
  20478238.5234   -5506477.58844  -4106146.50761
  18843525.4844  -20342252.32947 -15618834.49562
  19033558.6484  -23277157.61946 -18023147.38261
  19025003.2414  -15276505.06146 -11682838.08261
  16725500.5234  -40491415.77647 -31293799.42663
 97  2  6  3 17 29.9870000  0  7G30G 5G 6G 4G 9G10G24
  18355022.3044  -20306529.83146 -15592503.91461
  16697460.0694  -38991479.05247 -30168232.43563
  20456176.476    -5622409.814 4  -4196483.28321
  18851379.7184  -20300976.67346 -15586671.64962
  19040156.0694  -23242497.35146 -17996139.38761
  19000175.6554  -15406959.32246 -11784490.73061
  16721512.0694  -40512374.85647 -31310131.17163
 97  2  6  3 17 59.9870000  0  7G30G 5G 6G 4G 9G10G24
  18330199.9134  -20436969.45546 -15694145.16762
  16682735.9524  -39068859.10947 -30228528.58163
  20434122.3434   -5738298.85644  -4286786.39661
  18859276.2734  -20259479.22646 -15554335.97562
  19046791.3044  -23207601.97846 -17968948.19461
  18975401.3274  -15537145.14346 -11885934.20961
  16717610.1484  -40532886.26947 -31326114.08763
 97  2  6  3 18 29.9870000  0  7G30G 5G 6G 4G 9G10G24
  18305422.9524  -20567170.51746 -15795600.52362
  16668100.4604  -39145766.54247 -30288456.45163
  20412076.0544   -5854153.81444  -4377062.94761
  18867213.8984  -20217767.53046 -15521833.35862
  19053479.3904  -23172468.68546 -17941571.61261
  18950677.5384  -15667066.42646 -11987171.55461
  16713789.1164  -40552956.84747 -31341753.49263
 97  2  6  3 18 59.9870000  0  7G30G 5G 6G 4G 9G10G24
  18280690.4054  -20697136.41846 -15896872.64362
  16653555.6554  -39222195.94847 -30348011.83763
  20390037.1014   -5969970.66545  -4467309.79961
  18875192.6794  -20175838.62046 -15489161.47762
  19060213.8904  -23137094.26446 -17914007.13861
  18926005.8594  -15796726.12846 -12088205.07061
  16710053.4524  -40572594.47047 -31357055.53163
 97  2  6  3 19 29.9870000  0  7G30G 5G 6G 4G 9G10G24
  18256006.1014  -20826849.11646 -15997947.45262
  16639103.8044  -39298146.87147 -30407194.36763
  20368005.6244   -6085744.84045  -4557523.39361
  18883218.3354  -20133667.40246 -15456300.79262
  19066989.9684  -23101477.24346 -17886253.63461
  18901385.1484  -15926108.89646 -12189022.79661
  16706401.4054  -40591781.18647 -31372006.20763
 97  2  6  3 19 59.9870000  0  7G30G 5G 6G 4G 9G10G24
  18231375.1944  -20956285.99946 -16098807.34562
  16624735.1404  -39373648.21447 -30466026.58363
  20345989.0384   -6201447.96945  -4647681.64861
  18891286.9294  -20091269.29746 -15423263.30562
  19073812.2264  -23065611.60346 -17858306.38461
  18876817.2264  -16055213.69146 -12289623.91961
  16702838.5624  -40610507.18347 -31386597.88863
 97  2  6  3 20 29.9870000  0  7G30G 5G 6G 4G 9G10G24
  18206799.0234  -21085445.96546 -16199451.45862
  16610447.6554  -39448732.31747 -30524533.67763
  20323983.7264   -6317078.10045  -4737783.02461
  18899391.8434  -20048675.32246 -15390073.19362
  19080681.3824  -23029521.30346 -17830184.07461
  18852298.0854  -16184055.22746 -12390019.90161
  16699360.4604  -40628786.31847 -31400841.36263
 97  2  6  3 20 59.9870000  0  7G30G 5G 6G 4G 9G10G24
  18182275.1484  -21214313.56646 -16299867.76562
  16596239.1484  -39523396.83547 -30582713.81763
  20301997.249    -6432631.192 4  -4827824.36021
  18907533.5234  -20005885.60746 -15356730.56162
  19087590.3594  -22993215.37446 -17801893.74061
  18827832.960   -16312624.610 6 -12490203.82421
  16695969.2734  -40646607.27247 -31414727.81563
 97  2  6  3 21 29.9870000  0  7G30G 5G 6G 4G 9G10G24
  18157809.0154  -21342888.39746 -16400055.93762
  16582111.4214  -39597643.43447 -30640568.31163
  20280019.7654   -6548107.20444  -4917805.64861
  18915709.3194  -19962921.25046 -15323251.84462
  19094541.8124  -22956694.05446 -17773435.57961
  18803420.9914  -16440916.29346 -12590171.36161
  16692667.4914  -40663963.53447 -31428252.16763
 97  2  6  3 21 59.9870000  0  7G30G 5G 6G 4G 9G10G24
  18133396.2964  -21471171.56546 -16500016.83762
  16568066.2264  -39671449.56147 -30698079.57563
  20258059.468    -6663508.032 4  -5007728.33621
  18923916.0544  -19919798.41746 -15289649.63862
  19101534.4684  -22919945.44546 -17744800.30461
  18779062.1404  -16568925.48246 -12689918.76961
  16689450.5624  -40680858.93747 -31441417.41563
 97  2  6  3 22 29.9870000  0  7G30G 5G 6G 4G 9G10G24
  18109038.2654  -21599177.10446 -16599761.41462
  16554113.7964  -39744768.36247 -30755211.10363
  20236108.921    -6778866.718 4  -5097618.21121
  18932155.3124  -19876499.27646 -15255910.04962
  19108566.3434  -22882981.60646 -17715997.33261
  18754761.3044  -16696631.45346 -12789429.90161
  16686323.9374  -40697292.21247 -31454222.56163
 97  2  6  3 22 59.9870000  0  7G30G 5G 6G 4G 9G10G24
  18084730.3194  -21726917.94746 -16699299.72262
  16540258.4294  -39817583.62947 -30811950.26363
  20214160.2024   -6894212.32444  -5187497.88261
  18940428.1714  -19833028.45846 -15222036.68762
  19115638.6944  -22845812.75946 -17687034.60661
  18730514.4604  -16824034.16446 -12888704.73761
  16683283.4444  -40713269.01547 -31466672.01563
 97  2  6  3 23 29.9870000  0  7G30G 5G 6G 4G 9G10G24
  18060474.1244  -21854383.52546 -16798623.54262
  16526499.9764  -39889884.28147 -30868288.42963
  20192214.4994   -7009541.25144  -5277364.55461
  18948732.6164  -19789379.79346 -15188024.74162
  19122753.9374  -22808428.36646 -17657903.93161
  18706331.3824  -16951121.19146 -12987733.57261
  16680329.1164  -40728794.25847 -31478769.59763
 97  2  6  3 23 59.9870000  0  7G30G 5G 6G 4G 9G10G24
  18036268.0854  -21981581.43946 -16897738.78462
  16512838.0154  -39961674.52348 -30924228.87963
  20170270.0074   -7124856.65145  -5367220.68061
  18957075.7264  -19745545.05846 -15153867.81062
  19129907.3434  -22770832.31146 -17628608.31161
  18682208.3824  -17077902.05446 -13086523.83761
  16677458.1324  -40743882.82847 -31490526.92063
 97  2  6  3 24 29.9870000  0  7G30G 5G 6G 4G 9G10G24
  18012117.8274  -22108489.66746 -16996628.31962
  16499272.5234  -40032964.08547 -30979779.17963
  20148331.507    -7240135.454 5  -5457048.28121
  18965455.5074  -19701505.72746 -15119551.45062
  19137102.6714  -22733020.77146 -17599144.78261
  18658142.3594  -17204357.52646 -13185060.56261
  16674670.5694  -40758531.68847 -31501941.61163
 97  2  6  3 24 59.9870000  0  7G30G 5G 6G 4G 9G10G24
  17988025.5774  -22235104.00446 -17095288.83862
  16485794.7184  -40103789.99048 -31034968.19663
  20126406.976    -7355365.399 5  -5546837.81721
  18973870.0774  -19657291.01346 -15085098.43162
  19144338.1164  -22695000.68246 -17569518.75561
  18634134.2104  -17330515.20046 -13283365.22461
  16671962.2964  -40772760.71647 -31513029.16263
 97  2  6  3 25 29.9870000  0  7G30G 5G 6G 4G 9G10G24
  17963986.8354  -22361417.82146 -17193715.18962
  16472403.8824  -40174162.60448 -31089804.00463
  20104493.7264   -7470521.89145  -5636570.12661
  18982317.8194  -19612900.97746 -15050508.80262
  19151614.2494  -22656762.65946 -17539722.89661
  18610183.9374  -17456382.02346 -13381443.25661
  16669332.5544  -40786578.42647 -31523796.20563
 97  2  6  3 25 59.9870000  0  7G30G 5G 6G 4G 9G10G24
  17940010.7884  -22487414.58947 -17291894.48462
  16459098.8124  -40244079.65148 -31144284.81963
  20082597.4294   -7585594.04845  -5726236.72061
  18990796.5934  -19568334.25146 -15015781.48662
  19158932.7024  -22618311.59246 -17509761.03461
  18586286.7344  -17581956.93446 -13479293.82261
  16666783.2024  -40799977.08847 -31534236.71763
 97  2  6  3 26 29.9870000  0  7G30G 5G 6G 4G 9G10G24
  17916096.2804  -22613094.63947 -17389826.98962
  16445881.7104  -40313539.66948 -31198409.51263
  20060711.7264   -7700593.52345  -5815846.70161
  18999307.4444  -19523608.21146 -14980930.02861
  19166285.8044  -22579663.60246 -17479645.73561
  18562446.0544  -17707234.88346 -13576912.99261
  16664312.0154  -40812959.36947 -31544352.77863
 97  2  6  3 26 59.9870000  0  7G30G 5G 6G 4G 9G10G24
  17892239.3434  -22738463.53547 -17487517.03562
  16432752.3514  -40382530.07048 -31252168.27763
  20038841.944    -7815522.165 5  -5905401.44721
  19007849.2804  -19478724.01446 -14945955.33861
  19173681.085   -22540806.732 6 -17449367.67221
  18538663.1404  -17832212.13846 -13674297.85661
  16661922.7104  -40825517.37347 -31554138.23263
 97  2  6  3 27 29.9870000  0  7G30G 5G 6G 4G 9G10G24
  17868442.3664  -22863519.90447 -17584963.54762
  16419717.8584  -40451028.61248 -31305543.76863
  20016982.741    -7930381.671 5  -5994902.32821
  19016426.2414  -19433654.59646 -14910836.30962
  19181119.7494  -22501725.19746 -17418914.53861
  18514946.1714  -17956856.86146 -13771423.60361
  16659617.0854  -40837630.52047 -31563577.04963
 97  2  6  3 27 59.9870000  0  7G30G 5G 6G 4G 9G10G24
  17844701.0464  -22988271.78147 -17682172.79362
  16406776.8194  -40519027.20448 -31358529.68063
  19995137.0774   -8045189.72245  -6084363.13161
  19025035.8824  -19388409.85046 -14875580.66761
  19188595.1094  -22462441.37246 -17388303.77061
  18491295.3984  -18081154.90346 -13868279.20961
  16657398.1554  -40849295.61147 -31572666.72563
 97  2  6  3 28 29.9860000  0  7G30G 5G 6G 4G 9G10G24
  17821018.5574  -23112735.02147 -17779157.12862
  16393932.5804  -40586528.11147 -31411127.79063
  19973297.158    -8159961.726 5  -6173795.83221
  19033676.0184  -19343003.05046 -14840198.74961
  19196105.9634  -22422966.96946 -17357544.49061
  18467706.7054  -18205096.06446 -13964856.72561
  16655261.1974  -40860521.86147 -31581414.45464
 97  2  6  3 28 59.9860000  0  7G30G 5G 6G 4G 9G10G24
  17797388.5024  -23236905.89647 -17875913.64762
  16381184.9164  -40653521.62947 -31463330.53663
  19951462.471    -8274699.794 5  -6263202.09621
  19042351.3694  -19297417.20046 -14804677.31461
  19203655.5724  -22383301.11946 -17326636.03261
  18444190.8464  -18328683.30146 -14061158.45561
  16653209.2364  -40871308.53047 -31589819.65263
 97  2  6  3 29 29.9860000  0  7G30G 5G 6G 4G 9G10G24
  17773818.4944  -23360771.79847 -17972432.52462
  16368534.1664  -40719997.87247 -31515130.21363
  19929634.182    -8389410.201 5  -6352586.80721
  19051058.0494  -19251661.87746 -14769023.81861
  19211231.8694  -22343471.54846 -17295600.00961
  18420740.3854  -18451916.53646 -14157184.33661
  16651239.6114  -40881665.65047 -31597890.13463
 97  2  6  3 29 59.9860000  0  7G30G 5G 6G 4G 9G10G24
  17750307.2764  -23484326.33347 -18068708.78062
  16355981.3774  -40785959.21747 -31566528.66363
  19907809.7214   -8504097.79845  -6441953.74761
  19059795.3694  -19205749.73846 -14733248.13461
  19218839.4474  -22303494.90646 -17264449.39461
  18397353.7834  -18574807.21046 -14252943.29061
  16649345.1974  -40891613.50147 -31605641.70163
 97  2  6  3 30 29.9860000  0  7G30G 5G 6G 4G 9G10G24
  17726856.3854  -23607557.26447 -18164732.87562
  16343527.4084  -40851409.07547 -31617528.54963
  19885991.4944   -8618751.05645  -6531293.90061
  19068560.7444  -19159685.43246 -14697353.86761
  19226475.307   -22263372.594 6 -17233185.28421
  18374035.0964  -18697359.31446 -14348438.42861
  16647526.9474  -40901167.24647 -31613086.17263
 97  2  6  3 30 59.9860000  0  7G30G 5G 6G 4G 9G10G24
  17703468.5024  -23730469.37047 -18260508.53162
  16331167.6114  -40916360.40347 -31668139.97063
  19864182.1434   -8733363.62445  -6620602.37461
  19077354.5184  -19113476.09746 -14661346.59661
  19234136.502   -22223114.491 6 -17201815.36321
  18350771.221   -18819597.076 6 -14443688.60421
  16645783.2214  -40910338.36247 -31620232.49664
 97  2  6  3 31 29.9860000  0  7G30G 5G 6G 4G 9G10G24
  17680135.2054  -23853073.75947 -18356044.41562
  16318899.9864  -40980828.14448 -31718374.57563
  19842380.385    -8847923.996 5  -6709870.15421
  19086173.1044  -19067127.26346 -14625230.62361
  19241824.0414  -22182720.01546 -17170339.16361
  18327574.6664  -18941517.02246 -14538691.14462
  16644109.2604  -40919130.16047 -31627083.24764
 97  2  6  3 31 59.9860000  0  7G30G 5G 6G 4G 9G10G24
  17656866.9404  -23975362.40047 -18451334.26062
  16306724.1434  -41044811.89248 -31768232.05163
  19820593.7134   -8962406.18145  -6799077.02561
  19095021.3074  -19020632.50046 -14589000.94561
  19249539.4944  -22142178.77646 -17138748.59261
  18304433.0804  -19063103.91346 -14633434.16261
  16642510.6824  -40927528.63447 -31633627.51063
 97  2  6  3 32 29.9860000  0  7G30G 5G 6G 4G 9G10G24
  17633660.7834  -24097301.15947 -18546351.46962
  16294643.7444  -41108294.14848 -31817698.75263
  19798829.479    -9076782.771 5  -6888201.60621
  19103900.8934  -18973964.90846 -14552636.58661
  19257288.1824  -22101461.72046 -17107021.00961
  18281365.8934  -19184330.83846 -14727896.68061
  16640995.4084  -40935491.53147 -31639832.35863
 97  2  6  3 32 59.9860000  0  7G30G 5G 6G 4G 9G10G24
  17610522.1904  -24218894.62147 -18641099.61562
  16282660.0494  -41171269.28548 -31866770.29463
  19777083.940    -9191074.320 5  -6977259.93321
  19112817.7834  -18927113.53246 -14516129.02261
  19265072.2834  -22060549.05046 -17075141.01261
  18258367.0184  -19305191.83846 -14822074.06862
  16639567.2134  -40942999.77647 -31645682.94263
 97  2  6  3 33 29.9860000  0  7G30G 5G 6G 4G 9G10G24
  17587447.8774  -24340150.65247 -18735584.82062
  16270771.0414  -41233749.06448 -31915455.84463
  19755339.182    -9305322.749 5  -7066284.65521
  19121763.1114  -18880105.47846 -14479499.37961
  19272889.8614  -22019458.70246 -17043122.55661
  18235436.2134  -19425691.39646 -14915969.82162
  16638220.1664  -40950078.59747 -31651198.89463
 97  2  6  3 33 59.9860000  0  7G30G 5G 6G 4G 9G10G24
  17564443.0494  -24461050.52147 -18829792.49962
  16258975.9164  -41295734.29348 -31963756.02263
  19733602.846    -9419549.650 5  -7155292.58621
  19130736.1584  -18832954.94446 -14442758.70461
  19280745.5104  -21978184.87645 -17010961.13361
  18212574.9864  -19545824.07646 -15009579.68862
  16636954.9554  -40956725.54047 -31656378.33163
 97  2  6  3 34 29.9860000  0  7G30G 5G 6G 4G 9G10G24
  17541500.2914  -24581602.90947 -18923729.41962
  16247274.5264  -41357219.78348 -32011666.80063
  19711867.760    -9533774.018 5  -7244298.57421
  19139734.9084  -18785658.93046 -14405904.67661
  19288634.2684  -21936717.62345 -16978649.00261
  18189788.2604  -19665585.66846 -15102900.40062
  16635770.5804  -40962949.99947 -31661228.55663
 97  2  6  3 34 59.9860000  0  7G30G 5G 6G 4G 9G10G24
  17518620.9554  -24701838.80747 -19017419.71962
  16235669.7444  -41418207.09448 -32059189.38763
  19690130.346    -9647997.476 5  -7333303.83221
  19148759.1274  -18738239.42246 -14368954.41861
  19296561.4404  -21895083.74245 -16946207.02761
  18167064.2604  -19784980.15846 -15195935.05862
  16634661.2524  -40968780.77347 -31665772.01863
 97  2  6  3 35 29.9860000  0  7G30G 5G 6G 4G 9G10G24
  17495801.4864  -24821746.30047 -19110854.12662
  16224158.5334  -41478696.81348 -32106324.24163
  19668406.0574   -9762185.44645  -7422281.43061
  19157805.9634  -18690697.40046 -14331908.69061
  19304506.4944  -21853305.34645 -16913652.43561
  18144419.2364  -19903996.92846 -15288675.38062
  16633622.9014  -40974228.81247 -31670017.24163
 97  2  6  3 35 59.9860000  0  7G30G 5G 6G 4G 9G10G24
  17473045.8154  -24941342.91647 -19204046.27862
  16212741.7364  -41538690.53848 -32153072.59863
  19646686.455    -9876316.820 5  -7511214.95821
  19166875.3694  -18643039.46046 -14294772.64561
  19312483.6354  -21811390.97245 -16880991.88661
  18121839.5414  -20022640.21746 -15381124.69361
  16632661.4014  -40979294.56747 -31673964.57963
 97  2  6  3 36 29.9860000  0  7G30G 5G 6G 4G 9G10G24
  17450349.0414  -25060618.56347 -19296988.33862
  16201426.2134  -41598154.75448 -32199408.34963
  19624981.557    -9990358.162 5  -7600078.30221
  19175969.9944  -18595245.55146 -14257530.64461
  19320487.5024  -21769335.16845 -16848221.14161
  18099334.6904  -20140900.28246 -15473275.38662
  16631770.0264  -40983974.81647 -31677611.51964
 97  2  6  3 36 59.9860000  0  7G30G 5G 6G 4G 9G10G24
  17427712.4404  -25179553.51247 -19389664.91062
  16190211.0964  -41657098.47048 -32245338.52463
  19603297.791   -10104306.819 5  -7688869.41921
  19185085.2684  -18547336.31746 -14220198.77461
  19328513.713   -21727154.386 5 -16815353.00021
  18076903.7834  -20258785.42046 -15565133.93062
  16630949.4084  -40988279.01647 -31680965.44264
 97  2  6  3 37 29.9860000  0  7G30G 5G 6G 4G 9G10G24
  17405154.3544  -25298115.04347 -19482050.51562
  16179093.3854  -41715513.01548 -32290856.34763
  19581627.924   -10218172.730 5  -7777596.06821
  19194227.4164  -18499303.89446 -14182770.92761
  19336565.666   -21684834.226 5 -16782376.26821
  18054542.1904  -20376287.63046 -15656694.07562
  16630203.9714  -40992205.48747 -31684025.02764
 97  2  6  3 37 59.9860000  0  7G30G 5G 6G 4G 9G10G24
  17382665.1584  -25416298.67447 -19574141.65062
  16168080.5184  -41773390.95048 -32335956.03363
  19559975.338   -10331979.763 5  -7866276.83521
  19203389.7214  -18451152.67646 -14145250.51061
  19344650.2294  -21642363.01545 -16749281.84361
  18032252.4864  -20493413.81246 -15747961.22361
  16629527.0804  -40995752.71947 -31686789.10164
 97  2  6  3 38 29.9860000  0  7G30G 5G 6G 4G 9G10G24
  17360247.9714  -25534087.13547 -19665924.86962
  16157167.1584  -41830742.51248 -32380645.56163
  19538324.838   -10445754.002 5  -7954932.05821
  19212574.7134  -18402887.61946 -14107641.38261
  19352757.057   -21599762.408 5 -16716086.58921
  18010042.5414  -20610156.45446 -15838929.49462
  16628925.0654  -40998928.94347 -31689264.07364
 97  2  6  3 38 59.9860000  0  7G30G 5G 6G 4G 9G10G24
  17337911.7134  -25651471.07047 -19757392.86362
  16146350.8934  -41887580.80548 -32424935.15563
  19516677.385   -10559502.455 5  -8043567.17521
  19221783.2134  -18354493.34846 -14069931.56361
  19360884.5184  -21557038.57645 -16682795.30561
  17987899.1114  -20726499.75246 -15929586.59862
  16628391.0884  -41001721.83147 -31691440.34764
 97  2  6  3 39 29.9860000  0  7G30G 5G 6G 4G 9G10G24
  17315647.7764  -25768473.49547 -19848563.57662
  16135632.8384  -41943904.40148 -32468823.67763
  19495035.8934  -10673227.97645  -8132184.41361
  19231017.1904  -18305969.33346 -14032120.64661
  19369038.5264  -21514202.12645 -16649416.24061
  17965833.0884  -20842445.46346 -16019933.89062
  16627934.3854  -41004136.71347 -31693322.06564
 97  2  6  3 39 59.9860000  0  7G30G 5G 6G 4G 9G10G24
  17293450.8154  -25885111.32447 -19939450.19462
  16125009.4944  -41999729.86248 -32512324.04563
  19473396.174   -10786937.368 5  -8220789.07621
  19240269.5654  -18257343.27546 -13994230.22261
  19377208.9014  -21471272.34245 -16615964.46361
  17943849.4474  -20957998.85546 -16109975.47862
  16627541.7214  -41006182.67847 -31694916.32164
 97  2  6  3 40 29.9860000  0  7G30G 5G 6G 4G 9G10G24
  17271326.5264  -26001382.77947 -20030051.33062
  16114481.0024  -42055059.76748 -32555438.24963
  19451765.276   -10900624.327 5  -8309376.26221
  19249542.5494  -18208625.60046 -13956268.40561
  19385388.4714  -21428267.96845 -16582454.54661
  17921934.518   -21073158.278 6 -16199710.07822
  16627222.6514  -41007863.21747 -31696225.83464
 97  2  6  3 40 59.9860000  0  7G30G 5G 6G 4G 9G10G24
  17249269.3934  -26117292.94247 -20120370.93363
  16104051.2914  -42109865.56548 -32598144.06763
  19430140.611   -11014257.046 5  -8397921.19821
  19258829.4084  -18159808.57246 -13918229.17161
  19393592.2134  -21385165.98445 -16548868.59461
  17900092.8774  -21187919.11646 -16289134.09462
  16626977.8614  -41009168.69847 -31697243.08864
 97  2  6  3 41 29.9860000  0  7G30G 5G 6G 4G 9G10G24
  17227276.6974  -26232868.66747 -20210429.93762
  16093719.5334  -42164155.58648 -32640447.98563
  19408522.3774  -11127856.04845  -8486439.84261
  19268130.0804  -18110938.98146 -13880148.97961
  19401810.3384  -21341985.77045 -16515221.68361
  17878327.0104  -21302308.67946 -16378268.79762
  16626795.5964  -41010118.88747 -31697983.49064
 97  2  6  3 41 59.9860000  0  7G30G 5G 6G 4G 9G10G24
  17205348.9714  -26348088.38147 -20300211.52762
  16083488.0494  -42217921.88048 -32682343.80563
  19386919.690   -11241406.477 5  -8574920.65521
  19277444.6274  -18061997.10446 -13842012.45561
  19410043.8074  -21298713.85445 -16481503.33361
  17856636.0654  -21416304.40746 -16467096.63062
  16626687.7524  -41010687.90747 -31698426.88164
 97  2  6  3 42 29.9860000  0  7G30G 5G 6G 4G 9G10G24
  17183491.9164  -26462953.45447 -20389716.77263
  16073357.9944  -42271159.16648 -32723827.40263
  19365317.846   -11354898.826 5
  19286774.3854  -18012958.87246 -13803800.84961
  19418295.1514  -21255346.34245 -16447710.47661
  17835020.4554  -21529898.75146
  16626652.4714  -41010871.60947
 97  2  6  3 42 59.9860000  0  7G30G 5G 6G 4G 9G10G24
  17161700.2834  -26577465.85247 -20478947.21462
  16063326.3384  -42323873.71947 -32764903.67963
  19343728.6114  -11468337.45345  -8751749.92061
  19296128.3614  -17963811.95146 -13765504.54961
  19426572.494   -21211867.091 5 -16413830.56021
  17813482.4324  -21643080.71446 -16643805.41062
  16626689.9244  -41010678.51947
 97  2  6  3 43 29.9860000  0  7G30G 5G 6G 4G 9G10G24
  17139982.4634  -26691598.94347 -20567882.08663
  16053392.1824  -42376077.54247 -32805582.00063
  19322152.5804  -11581732.01645  -8840109.28961
  19305502.0184  -17914537.46146 -13727108.85561
  19434866.8544  -21168274.21645 -16379862.08261
  17792020.7834  -21755846.80846 -16731675.07762
  16626796.7294  -41010115.26047 -31697980.66264
 97  2  6  3 43 59.9860000  0  7G30G 5G 6G 4G 9G10G24
  17118335.1434  -26805358.54547 -20656525.93363
  16043551.7764  -42427792.81148 -32845879.61763
  19300577.4324  -11695100.86445  -8928448.59861
  19314904.4714  -17865133.85446 -13688612.55161
  19443177.4944  -21124587.75945 -16345820.68961
  17770641.1274  -21868204.33946 -16819226.38362
  16626965.0654  -41009216.87747 -31697280.61964
 97  2  6  3 44 29.9860000  0  7G30G 5G 6G 4G 9G10G24
  17096762.4324  -26918728.69647
  16033806.5884  -42479000.74847 -32885781.90363
  19279007.986   -11808450.199 5
  19324330.4714  -17815606.03446 -13650019.44961
  19451510.6974  -21080805.01045 -16311704.27861
  17749336.502   -21980152.658 6 -16906458.82022
  16627200.8384  -41007990.03547 -31696324.63764
 97  2  6  3 44 59.9860000  0  7G30G 5G 6G 4G 9G10G24
  17075264.9404  -27031702.21747 -20832897.62463
  16024159.9474  -42529693.93147 -32925283.08763
  19257444.8854  -11921778.03545  -9105080.09161
  19333773.6434  -17765979.82846 -13611349.68661
  19459859.1824  -21036932.13845 -16277517.63961
  17728110.5574  -22091688.73246 -16993370.03962
  16627498.9634  -41006422.23247 -31695102.97064
 97  2  6  3 45 29.9850000  0  7G30G 5G 6G 4G 9G10G24
  17053841.6074  -27144279.65447 -20920620.30363
  16014614.0604  -42579865.15047 -32964377.55063
  19235883.8184  -12035079.50345  -9193366.91761
  19343230.2634  -17716279.69346 -13572622.30961
  19468220.6774  -20992996.34345 -16243281.96561
  17706965.7714  -22202812.73446 -17079960.15462
  16627863.6074  -41004507.20747 -31693610.74564
 97  2  6  3 45 59.9850000  0  7G30G 5G 6G 4G 9G10G24
  17032491.7944  -27256466.83447 -21008038.89263
  16005168.0054  -42629497.12147 -33003051.82863
  19214332.513   -12148348.670 5  -9281628.59221
  19352703.3184  -17666512.00546 -13533842.30261
  19476593.560   -20948995.717 5 -16208995.75821
  17685903.7634  -22313499.42946 -17166209.51662
  16628300.2084  -41002221.69647 -31691829.81864
 97  2  6  3 46 29.9850000  0  7G30G 5G 6G 4G 9G10G24
  17011217.5604  -27368270.93547 -21095158.96463
  15995826.7714  -42678590.36947 -33041306.31763
  19192781.7944  -12261577.77245  -9369859.04961
  19362177.5914  -17616713.36646 -13495038.17061
  19484975.927   -20904948.143 5 -16174672.99821
  17664924.1614  -22423743.34546 -17252113.85462
  16628803.1924  -40999561.22947 -31689756.73164
 97  2  6  3 46 59.9850000  0  7G30G 5G 6G 4G 9G10G24
  16990007.4114  -27479726.32747 -21182007.31263
  15986576.8414  -42727192.57447 -33079178.17063
  19171240.107   -12374793.957 5  -9458079.41421
  19371653.0524  -17566918.16546 -13456236.72261
  19493359.700   -20860885.284 5 -16140338.33421
  17644022.6614  -22533577.13446 -17337698.61562
  16629370.4824  -40996581.22447 -31687434.64764
 97  2  6  3 47 29.9850000  0  7G30G 5G 6G 4G 9G10G24
  16968863.2864  -27590845.33547 -21268593.55163
  15977420.3644  -42775317.97947 -33116678.49163
  19149690.8334  -12488014.88045  -9546303.48161
  19381128.6074  -17517124.27646 -13417436.29061
  19501743.443   -20816822.547 5 -16106003.77121
  17623197.2164  -22643021.54046 -17422979.95562
  16629990.1694  -40993326.98547 -31684898.87564
 97  2  6  3 47 59.9850000  0  7G30G 5G 6G 4G 9G10G24
  16947791.2554  -27701566.50447 -21354869.78263
  15968363.1224  -42822910.50947 -33153763.59163
  19128161.5684  -12601180.78345  -9634484.67761
  19390617.0994  -17467263.91446 -13378584.06961
  19510142.1854  -20772693.88245 -16071617.81961
  17602454.0214  -22752024.76046 -17507917.51962
  16630671.0134  -40989753.38447 -31682114.24764
 97  2  6  3 48 29.9850000  0  7G30G 5G 6G 4G 9G10G24
  16926800.2164  -27811878.14747 -21440826.89663
  15959408.7784  -42869966.12647 -33190430.31263
  19106638.1384  -12714279.51245  -9722613.53961
  19400119.7244  -17417321.81446 -13339668.16261
  19518557.872   -20728475.091 5 -16037161.62921
  17581795.3414  -22860600.37646 -17592521.88962
  16631410.8414  -40985869.62347 -31679087.93864
 97  2  6  3 48 59.9850000  0  7G30G 5G 6G 4G 9G10G24
  16905885.4354  -27921778.81447 -21526463.77563
  15950554.5054  -42916494.66547 -33226686.32063
  19085127.3964  -12827322.85145  -9810699.23261
  19409646.4974  -17367267.84546 -13300665.08261
  19526990.794   -20684157.403 5 -16002628.38421
  17561213.3574  -22968761.92346 -17676803.60162
  16632204.0214  -40981688.81847 -31675830.15864
 97  2  6  3 49 29.9850000  0  7G30G 5G 6G 4G 9G10G24
  16885049.1774  -28031276.60147 -21611786.72363
  15941799.3254  -42962499.76647 -33262534.45463
  19063623.2164  -12940311.57745  -9898742.36461
  19419195.6304  -17317099.51246 -13261572.87761
  19535439.2474  -20639756.31045 -15968030.13161
  17540714.3574  -23076494.49446 -17760751.05062
  16633062.8724  -40977185.79647 -31672321.31064
 97  2  6  3 49 59.9850000  0  7G30G 5G 6G 4G 9G10G24
  16864287.9424  -28140378.98347 -21696801.56563
  15933141.5834  -43008002.83147 -33297991.39763
  19042129.5364  -13053269.19045  -9986761.26761
  19428756.7004  -17266845.46646 -13222413.89961
  19543900.3724  -20595292.66445 -15933383.13461
  17520293.5054  -23183795.97746 -17844362.58662
  16633978.8414  -40972373.07547 -31668571.13664
 97  2  6  3 50 29.9850000  0  7G30G 5G 6G 4G 9G10G24
  16843602.9894  -28249084.51647 -21781507.17663
  15924575.7394  -43053015.42347 -33333066.15663
  19020637.021   -13166215.438 5 -10074771.29921
  19438331.8104  -17216522.01446 -13183200.82661
  19552373.1304  -20550782.26445 -15898699.70561
  17499953.6534  -23290668.24346 -17927639.66262
  16634950.8254  -40967261.20447 -31664587.85564
 97  2  6  3 50 59.9850000  0  7G30G 5G 6G 4G 9G10G24
  16822997.4274  -28357370.45447 -21865885.82963
  15916107.9274  -43097514.20347 -33367740.53663
  18999143.700   -13279147.607 5 -10162770.35721
  19447923.9114  -17166123.25746 -13143929.07561
  19560847.2864  -20506238.51545 -15863990.28761
  17479705.0754  -23397078.35746 -18010556.62262
  16635985.2714  -40961825.73347 -31660352.41664
 97  2  6  3 51 29.9850000  0  7G30G 5G 6G 4G 9G10G24
  16802470.2784  -28465230.70047 -21949932.77963
  15907743.1224  -43141471.45447 -33401992.95363
  18977661.200   -13392056.859 5 -10250751.56221
  19457519.0284  -17115690.84046 -13104631.10161
  19569326.1074  -20461674.38345 -15829265.00761
  17459547.8804  -23503014.97946 -18093104.63162
  16637080.0754  -40956062.08547 -31655861.25264
 97  2  6  3 51 59.9850000  0  7G30G 5G 6G 4G 9G10G24
  16782027.9274  -28572660.80047 -22033644.54963
  15899483.4584  -43184870.17447 -33435810.15263
  18956175.7714  -13504954.16045 -10338723.47461
  19467120.9584  -17065237.10446 -13065316.51161
  19577815.9894  -20417079.73545 -15794515.94261
  17439473.6854  -23608504.49246 -18175304.23462
  16638238.3804  -40949983.92847 -31651125.02864
 97  2  6  3 52 29.9850000  0  7G30G 5G 6G 4G 9G10G24
  16761669.7324  -28679649.04747 -22117012.01463
  15891336.9824  -43227687.40747 -33469174.23163
  18934703.560   -13617806.099 5 -10426660.01521
  19476729.2474  -17014747.35246 -13025973.85361
  19586306.2474  -20372450.88745 -15759740.20861
  17419484.0444  -23713538.33846 -18257148.78462
  16639460.4504  -40943555.86447 -31646116.14064
 97  2  6  3 52 59.9850000  0  7G30G 5G 6G 4G 9G10G24
  16741391.5914  -28786200.55447 -22200039.15963
  15883298.1224  -43269930.07548 -33502090.59763
  18913236.427   -13730613.425 5 -10514561.78521
  19486345.6534  -16964215.21746 -12986598.17161
  19594806.419   -20327790.874 5 -15724940.20821
  17399584.4824  -23818113.71546 -18338636.07962
  16640751.3804  -40936774.55747 -31640832.00664
 97  2  6  3 53 29.9850000  0  7G30G 5G 6G 4G 9G10G24
  16721198.0134  -28892323.19347 -22282732.12163
  15875364.4824  -43311619.03348 -33534575.49963
  18891778.5284  -13843364.30645 -10602419.58861
  19495970.8494  -16913634.43046 -12947184.58761
  19603309.841   -20283086.960 5 -15690106.02321
  17379774.2084  -23922239.48446 -18419773.02162
  16642109.0364  -40929644.26847 -31635275.93164
 97  2  6  3 53 59.9850000  0  7G30G 5G 6G 4G 9G10G24
  16701085.4894  -28998015.67147 -22365089.89363
  15867532.161   -43352782.176 8 -33566650.70223
  18870333.5754  -13956065.64545 -10690238.78961
  19505607.3024  -16862984.82245 -12907717.36561
  19611827.1934  -20238333.33445 -15655233.11461
  17360042.2004  -24025912.55446 -18500557.22562
  16643530.7084  -40922171.20147 -31629452.75664
 97  2  6  3 54 29.9850000  0  7G30G 5G 6G 4G 9G10G24
  16681054.9504  -29103281.42147 -22447115.15163
  15859792.5134  -43393449.23848 -33598339.34163
  18848896.6934  -14068713.37945 -10778016.21961
  19515261.0994  -16812277.38845 -12868205.08361
  19620350.5754  -20193545.02545 -15620333.16461
  17340404.2714  -24129113.05446 -18580973.18462
  16645013.1384  -40914378.66147 -31623380.64864
 97  2  6  3 54 59.9850000  0  7G30G 5G 6G 4G 9G10G24
  16661101.9664  -29208126.78547 -22528812.83363
  15852148.9744  -43433620.93148 -33629641.96863
  18827472.3414  -14181306.86645 -10865751.38361
  19524916.4274  -16761525.27345 -12828657.99761
  19628878.5604  -20148721.32545 -15585405.64261
  17320856.6854  -24231843.13146 -18661022.58662
  16646552.9664  -40906286.71047 -31617075.23264
 97  2  6  3 55 29.9850000  0  7G30G 5G 6G 4G 9G10G24
  16641228.6534  -29312571.07847 -22610197.99363
  15844597.5834  -43473298.11048 -33660559.25363
  18806052.1304  -14293863.23245 -10953457.63161
  19534576.0914  -16710757.49545 -12789098.70661
  19637416.1934  -20103868.13744 -15550455.11461
  17301392.0754  -24334116.75146 -18740716.29562
  16648145.5674  -40897917.27447 -31610553.59564
 97  2  6  3 55 59.9850000  0  7G30G 5G 6G 4G 9G10G24
  16621428.1224  -29416608.16547 -22691265.85563
  15837146.6694  -43512458.77648 -33691074.07163
  18784639.716   -14406381.964 5 -11041134.53121
  19544237.9354  -16659980.52245 -12749532.24361
  19645955.0134  -20058997.81145 -15515491.21861
  17282024.1224  -24435917.17146 -18820041.28362
  16649789.4584  -40889281.13547 -31603824.13264
 97  2  6  3 56 29.9850000  0  7G30G 5G 6G 4G 9G10G24
  16601710.6614  -29520235.87547 -22772014.71863
  15829797.4194  -43551083.23848 -33721171.04563
  18763237.083   -14518858.104 5 -11128778.25721
  19553903.5054  -16609184.06745 -12709950.61361
  19654495.8884  -20014120.27044 -15480521.71961
  17262739.9584  -24537241.56546 -18898995.34662
  16651483.4664  -40880374.02347 -31596883.52864
 97  2  6  3 56 59.9850000  0  7G30G 5G 6G 4G 9G10G24
  16582068.5214  -29623451.16647 -22852442.21363
  15822551.5444  -43589154.65148 -33750837.08163
  18741839.3024  -14631300.13345 -11216395.41561
  19563576.7554  -16558355.21745 -12670343.72761
  19663038.7784  -19969240.82744 -15445550.74661
  17243547.3724  -24638100.66746 -18977586.84162
  16653232.9744  -40871178.89847 -31589718.50164
 97  2  6  3 57 29.9850000  0  7G30G 5G 6G 4G 9G10G24
  16562514.2164  -29726222.06147 -22932523.43263
  15815414.4664  -43626661.60348 -33780063.28363
  18720449.9824  -14743693.04145 -11303974.28661
  19573259.864   -16507469.114 5 -12630692.23721
  19671578.4894  -19924348.00945 -15410569.34261
  17224445.8334  -24738467.04746 -19055794.39762
  16655039.0284  -40861690.95947 -31582325.29364
 97  2  6  3 57 59.9850000  0  7G30G 5G 6G 4G 9G10G24
  16543043.1854  -29828529.05547 -23012243.17663
  15808382.7164  -43663611.48048 -33808855.38863
  18699074.146   -14856041.511 5 -11391518.52821
  19582956.7554  -16456515.20945 -12590987.90061
  19680119.2554  -19879452.31145 -15375585.70361
  17205447.4274  -24838332.55146 -19133611.65962
  16656901.9584  -40851904.56047 -31574699.53064
 97  2  6  3 58 29.9850000  0  7G30G 5G 6G 4G 9G10G24
  16523664.3724  -29930368.26547 -23091598.40163
  15801454.8884  -43700022.58948 -33837227.69563
  18677705.9114  -14968348.35846 -11479030.35561
  19592664.4664  -16405503.84145 -12551238.79361
  19688660.638   -19834562.874 4 -15340606.95921
  17186530.5134  -24937712.03446 -19211050.21162
  16658820.5604  -40841818.74047 -31566840.45564
 97  2  6  3 58 59.9850000  0  7G30G 5G 6G 4G 9G10G24
  16504376.9824  -30031726.52047 -23170578.86363
  15794627.7164  -43735900.23348 -33865184.31963
  18656337.2634  -15080619.82345 -11566514.60461
  19602378.427   -16354459.999 5 -12511464.38221
  19697206.1534  -19789677.51545 -15305631.35361
  17167715.4894  -25036599.44046 -19288105.32162
  16660796.0524  -40831437.74247 -31558751.36864
 97  2  6  3 59 29.9850000  0  7G30G 5G 6G 4G 9G10G24
  16485179.4114  -30132605.82347 -23249186.11363
  15787901.7474  -43771243.35048 -33892724.42963
  18634974.5054  -15192860.22345 -11653974.63561
  19612095.0754  -16303397.49745 -12471675.41861
  19705742.9194  -19744801.15745 -15270662.75461
  17148993.6694  -25134991.60146 -19364774.52462
  16662824.2944  -40820778.65247 -31550445.58464
 97  2  6  3 59 59.9850000  0  7G30G 5G 6G 4G 9G10G24
  16466075.2164  -30233008.85047 -23327422.23263
  15781279.669   -43806034.213 8 -33919834.21923
  18613629.6384  -15305060.56345 -11741403.45461
  19621817.1464  -16252309.70045 -12431866.76061
  19714283.5444  -19699935.66345 -15235702.60561
  17130360.6464  -25232886.97446 -19441056.62062
  16664909.8254  -40809825.87947 -31541910.95664
 97  2  6  4  0 29.9850000  0  7G30G 5G 6G 4G 9G10G24
  16447051.9744  -30332965.59447 -23405310.60163
  15774764.7784  -43840283.21448 -33946521.76963
  18592281.0914  -15417235.45445 -11828812.43761
  19631538.693   -16201217.352 5 -12392054.55921
  19722814.224   -19655107.518 5 -15200771.62521
  17111824.8414  -25330310.62546 -19516971.14362
  16667042.3574  -40798607.17147 -31533169.11764
 97  2  6  4  0 59.9850000  0  7G30G 5G 6G 4G 9G10G24
  16428114.9424  -30432477.85047 -23482852.61563
  15768353.6534  -43873966.53848 -33972768.52863
  18570941.2554  -15529377.14145 -11916195.54761
  19641263.622   -16150104.475 5 -12352226.33821
  19731337.4974  -19610299.37445 -15165856.17961
  17093376.7324  -25427248.93246 -19592507.47262
  16669230.5524  -40787116.68547 -31524215.49364
 97  2  6  4  1 29.9850000  0  7G30G 5G 6G 4G 9G10G24
  16409267.2864  -30531542.14047 -23560045.56463
  15762053.4824  -43907075.63047 -33998567.83163
  18549609.482   -15641457.191 5 -12003530.62921
  19650995.9584  -16098947.20245 -12312363.55461
  19739866.3024  -19565500.21045 -15130947.74361
  17075024.1534  -25523682.59646 -19667650.57362
  16671473.1464  -40775336.87647 -31515036.42364
 97  2  6  4  1 59.9850000  0  7G30G 5G 6G 4G 9G10G24
  16390500.6074  -30630159.00647 -23636889.87463
  15755859.638   -43939619.052 7 -34023926.36323
  18528298.6384  -15753468.23345 -12090811.94661
  19660742.4504  -16047752.35845 -12272471.47961
  19748388.4744  -19520706.66245 -15096043.71161
  17056771.5444  -25619609.65846 -19742398.92463
  16673772.2394  -40763253.35647 -31505620.69264
 97  2  6  4  2 29.9840000  0  7G30G 5G 6G 4G 9G10G24
  16371821.4534  -30728309.67347 -23713370.91363
  15749772.258   -43971610.018 8 -34048854.41223
  18506995.477   -15865406.660 5 -12178036.66421
  19670487.3444  -15996540.29245 -12232565.98761
  19756910.695   -19475915.736 4 -15061141.72721
  17038616.6024  -25715023.91246 -19816747.68362
  16676128.7974  -40750867.84447 -31495969.64663
 97  2  6  4  2 59.9840000  0  7G30G 5G 6G 4G 9G10G24
  16353232.1644  -30825996.83847 -23789490.77863
  15743786.7664  -44003069.14447 -34073368.03763
  18485705.2584  -15977279.74545 -12265210.46961
  19680233.7194  -15945320.45845 -12192654.45161
  19765437.852   -19431114.895 4 -15026231.97621
  17020558.7974  -25809923.41546 -19890695.33362
  16678541.6954  -40738184.95947 -31486086.87763
 97  2  6  4  3 29.9840000  0  7G30G 5G 6G 4G 9G10G24
  16334736.4924  -30923196.72047 -23865230.94563
  15737899.6414  -44034000.19347 -34097470.15363
  18464434.727   -16089084.168 5 -12352330.78521
  19689982.1564  -15894093.52845 -12152737.37661
  19773962.9774  -19386308.12344 -14991317.65261
  17002596.7274  -25904297.21246 -19964233.34862
  16681014.0004  -40725203.26947 -31475971.27063
 97  2  6  4  3 59.9840000  0  7G30G 5G 6G 4G 9G10G24
  16316335.1724  -31019895.07847 -23940580.32463
  15732117.0704  -44064393.07347 -34121152.93063
  18443167.0554  -16200829.73146 -12439405.23061
  19699735.2114  -15842839.16445 -12112798.93261
  19782488.672   -19341494.751 4 -14956398.14121
  16984739.3914  -25998138.54646 -20037356.44862
  16683535.6804  -40711935.93247 -31465633.08263
 97  2  6  4  4 29.9840000  0  7G30G 5G 6G 4G 9G10G24
  16298029.3364  -31116097.98347 -24015543.62863
  15726434.1024  -44094260.73347 -34144426.43863
  18421911.2664  -16312537.69446 -12526450.38161
  19709494.1174  -15791562.85545 -12072843.36961
  19791016.141   -19296693.168 4 -14921487.82921
  16966982.5244  -26091445.99546 -20110063.53862
  16686107.7744  -40698421.89247 -31455102.65863
 97  2  6  4  4 59.9840000  0  7G30G 5G 6G 4G 9G10G24
  16279813.8834  -31211817.98547 -24090130.64563
  15720850.5474  -44123602.27847 -34167289.99963
  18400658.2744  -16424216.65946 -12613472.93761
  19719255.836   -15740262.835 5 -12032869.32721
  19799540.328   -19251901.726 4 -14886585.40921
  16949330.5944  -26184214.88746 -20182350.97962
  16688725.5474  -40684668.79047 -31444385.95563
 97  2  6  4  5 29.9840000  0  7G30G 5G 6G 4G 9G10G24
  16261689.2664  -31307059.62147 -24164344.90263
  15715370.383   -44152400.321 7 -34189730.05423
  18379413.4454  -16535869.18146 -12700474.89261
  19729024.578   -15688929.403 5 -11992869.28121
  19808060.4384  -19207137.86044 -14851704.51661
  16931780.4144  -26276441.54847 -20254215.89462
  16691390.0944  -40670670.32247 -31433478.04963
 97  2  6  4  5 59.9840000  0  7G30G 5G 6G 4G 9G10G24
  16243655.2664  -31401829.78847 -24238191.78563
  15709993.1954  -44180650.48147 -34211743.17863
  18358170.1724  -16647491.16146 -12787453.02561
  19738793.6884  -15637579.95845 -11952856.73961
  19816571.8204  -19162407.74644 -14816849.88361
  16914333.7744  -26368129.23347 -20325660.82462
  16694100.3674  -40656424.13947 -31422377.12763
 97  2  6  4  6 29.9840000  0  7G30G 5G 6G 4G 9G10G24
  16225707.9224  -31496143.16647 -24311682.72163
  15704721.4064  -44208358.67047 -34233333.97863
  18336939.2894  -16759073.84646 -12874400.55461
  19748559.9144  -15586259.92645 -11912867.10561
  19825074.8364  -19117717.37944 -14782026.24061
  16896984.5244  -26459292.33847 -20396697.00063
  16696859.7344  -40641917.66947 -31411073.38164
 97  2  6  4  6 59.9840000  0  7G30G 5G 6G 4G 9G10G24
  16207849.7194  -31589994.23447 -24384813.41563
  15699554.2974  -44235513.58847 -34254493.66163
  18315712.1804  -16870600.58046 -12961304.49261
  19758321.9064  -15534967.38845 -11872898.90861
  19833570.8284  -19073071.21244 -14747237.03461
  16879730.9694  -26549956.07747 -20467344.05663
  16699674.5944  -40627122.61947 -31399544.76863
 97  2  6  4  7 29.9840000  0  7G30G 5G 6G 4G 9G10G24
  16190082.0164  -31683359.53947 -24457565.60363
  15694495.7814  -44262097.07047 -34275208.06963
  18294505.6564  -16982058.72946 -13048154.99361
  19768080.1564  -15483682.31145 -11832936.52561
  19842055.938   -19028476.543 4 -14712487.95921
  16862574.0704  -26640115.87047 -20537598.42663
  16702549.3444  -40612021.32547 -31387777.52163
 97  2  6  4  7 59.9840000  0  7G30G 5G 6G 4G 9G10G24
  16172410.9614  -31776227.59647 -24529930.32663
  15689540.8674  -44288131.35047 -34295494.53463
  18273308.1564  -17093449.82446 -13134953.22161
  19777834.008   -15432425.901 5 -11792996.46921
  19850536.563   -18983940.283 4 -14677784.39521
  16845510.6884  -26729784.44346 -20607470.02863
  16705477.9454  -40596630.79547 -31375784.89764
 97  2  6  4  8 29.9840000  0  7G30G 5G 6G 4G 9G10G24
  16154835.8134  -31868585.51847 -24601897.54363
  15684692.9454  -44313608.06747 -34315346.53863
  18252122.7504  -17204764.82646 -13221692.17061
  19787590.180   -15381164.400 5 -11753052.46921
  19858993.867   -18939459.240 4 -14643123.85521
  16828546.3674  -26818939.13547 -20676941.20063
  16708462.3594  -40580957.87147 -31363572.22864
 97  2  6  4  8 59.9840000  0  7G30G 5G 6G 4G 9G10G24
  16137361.1884  -31960410.54047 -24673449.50963
  15679951.9694  -44338520.96947 -34334759.20363
  18230953.0634  -17316026.83946 -13308389.81961
  19797350.617   -15329863.158 5 -11713077.48721
  19867450.0704  -18895032.86844 -14608505.92261
  16811681.5864  -26907567.59647 -20746002.33063
  16711492.5944  -40565019.97347 -31351153.07764
 97  2  6  4  9 29.9840000  0  7G30G 5G 6G 4G 9G10G24
  16119983.3284  -32051713.65147 -24744594.79363
  15675313.6644  -44362893.96947 -34353751.16863
  18209786.3204  -17427264.14946 -13395068.22861
  19807117.7114  -15278541.63245 -11673086.67861
  19875894.4774  -18850671.13844 -14573938.31661
  16794921.2974  -26995646.69547 -20814635.38063
  16714570.3524  -40548862.81247 -31338563.08764
 97  2  6  4  9 59.9840000  0  7G30G 5G 6G 4G 9G10G24
  16102709.1254  -32142502.78847 -24815339.57363
  15670778.2744  -44386729.50047 -34372324.32763
  18188620.6104  -17538474.45946 -13481725.59561
  19816884.5084  -15227210.01545 -11633088.02561
  19884322.8754  -18806360.20544 -14539410.36361
  16778267.8754  -27083168.88347 -20882834.47563
  16717682.0634  -40532505.76147 -31325817.33564
 97  2  6  4 10 29.9840000  0  7G30G 5G 6G 4G 9G10G24
  16085529.6724  -32232778.87047 -24885684.57163
  15666346.1954  -44410012.87347 -34390467.23263
  18167462.5084  -17649667.18546 -13568369.27361
  19826660.344   -15175851.769 5 -11593068.63521
  19892751.4614  -18762082.47144 -14504908.25661
  16761720.4694  -27170125.23147 -20950592.66063
  16720835.6414  -40515937.67347 -31312907.13864
 97  2  6  4 10 59.9840000  0  7G30G 5G 6G 4G 9G10G24
  16068451.1804  -32322535.08847 -24955624.49663
  15662021.2974  -44432747.19147 -34408182.28763
  18146307.2034  -17760838.99846 -13654996.64361
  19836433.445   -15124489.719 5 -11553046.23221
  19901169.5244  -18717827.30144 -14470423.70461
  16745277.8834  -27256522.75747 -21017915.39563
  16724029.2344  -40499141.69347 -31299819.36364
 97  2  6  4 11 29.9840000  0  7G30G 5G 6G 4G 9G10G24
  16051466.6254  -32411791.32847 -25025174.81663
  15657798.8054  -44454937.77247 -34425473.66063
  18125163.094   -17871957.604 6 -13741582.54321
  19846204.9774  -15073136.48545 -11513030.72961
  19909590.7894  -18673606.22144 -14435965.70361
  16728942.5864  -27342359.61847 -21084801.24963
  16727271.6724  -40482111.12847 -31286548.80064
 97  2  6  4 11 59.9840000  0  7G30G 5G 6G 4G 9G10G24
  16034576.2274  -32500545.16447 -25094333.65563
  15653681.9614  -44476572.11847 -34442331.61263
  18104028.4614  -17983006.56346 -13828114.18961
  19855976.3284  -15021784.68545 -11473016.34061
  19917992.735   -18629420.446 4 -14401535.22421
  16712713.2504  -27427654.19947 -21151264.55563
  16730559.4774  -40464830.06847 -31273083.03964
 97  2  6  4 12 29.9840000  0  7G30G 5G 6G 4G 9G10G24
  16017782.3994  -32588786.71447 -25163093.31863
  15649673.3914  -44497644.15547 -34458751.38563
  18082914.4454  -18093963.45946 -13914574.08961
  19865749.3204  -14970427.41445 -11432997.68561
  19926389.258   -18585283.323 4 -14367142.68121
  16696588.2114  -27512400.45047 -21217300.57863
  16733897.3754  -40447289.31347 -31259414.92664
 97  2  6  4 12 59.9840000  0  7G30G 5G 6G 4G 9G10G24
  16001092.9304  -32676507.51247 -25231447.19263
  15645769.3594  -44518157.11647 -34474735.51563
  18061823.5314  -18204801.92346 -14000941.69961
  19875521.2894  -14919075.29245 -11392983.04461
  19934782.289   -18541210.618 4 -14332800.32421
  16680561.7424  -27596593.51147 -21282905.55663
  16737282.6564  -40429497.48047 -31245551.16764
 97  2  6  4 13 29.9840000  0  7G30G 5G 6G 4G 9G10G24
  15984499.7274  -32763704.88647 -25299393.20363
  15641970.2894  -44538106.86647 -34490280.77663
  18040751.3604  -18315524.39846 -14087218.94061
  19885296.063   -14867717.132 5 -11352963.72021
  19943149.453   -18497212.382 4 -14298515.98821
  16664648.8834  -27680228.06147 -21348075.32263
  16740715.6334  -40411466.49647 -31231501.04964
 97  2  6  4 13 59.9840000  0  7G30G 5G 6G 4G 9G10G24
  15967999.4304  -32850393.51447 -25366942.78863
  15638279.9224  -44557520.58047 -34505408.35763
  18019698.7424  -18426177.39346 -14173442.03861
  19895062.6104  -14816384.76545 -11312964.46661
  19951507.289   -18453309.766 4 -14264306.18021
  16648833.6334  -27763342.41147 -21412839.74363
  16744185.7274  -40393217.84647 -31217281.31764
 97  2  6  4 14 29.9840000  0  7G30G 5G 6G 4G 9G10G24
  15951608.7504  -32936546.71747 -25434075.15963
  15634685.9534  -44576387.63247 -34520109.98063
  17998656.0084  -18536752.45246 -14259604.40761
  19904831.602   -14765063.352 5 -11272973.77321
  19959845.641   -18409491.005 4 -14230161.70221
  16633121.8054  -27845907.15647 -21477175.90063
  16747707.3134  -40374720.60247 -31202867.87864
 97  2  6  4 14 59.9840000  0  7G30G 5G 6G 4G 9G10G24
  15935313.8134  -33022180.36447 -25500802.67563
  15631197.4064  -44594729.07647 -34534402.02863
  17977621.9534  -18647293.73946 -14345740.47461
  19914590.672   -14713767.617 5 -11233003.07021
  19968162.844   -18365776.923 3 -14196098.80021
  16617511.1174  -27927932.35147 -21541091.63263
  16751270.4694  -40355996.67747 -31188277.80464
 97  2  6  4 15 29.9840000  0  7G30G 5G 6G 4G 9G10G24
  15919112.1024  -33107309.84247 -25567137.33463
  15627807.3834  -44612544.81847 -34548284.43263
  17956588.086   -18757823.017 6 -14431867.17121
  19924347.1104  -14662493.88945 -11193049.52461
  19976460.563   -18322179.363 3 -14162126.67421
  16602007.2584  -28009420.84247 -21604589.14563
  16754873.1414  -40337057.05447 -31173519.65464
 97  2  6  4 15 59.9840000  0  7G30G 5G 6G 4G 9G10G24
  15903012.9774  -33191921.69047 -25633068.65063
  15624520.7664  -44629816.60347 -34561742.98263
  17935559.8914  -18868324.57046 -14517972.25161
  19934103.203   -14611232.438 5 -11153105.53821
  19984734.391   -18278689.351 3 -14128238.34021
  16586603.3524  -28090353.91247 -21667653.86263
  16758521.2424  -40317892.33147 -31158586.10663
 97  2  6  4 16 29.9840000  0  7G30G 5G 6G 4G 9G10G24
  15887008.1724  -33276018.40747 -25698598.56863
  15621338.047   -44646541.623 7 -34574775.48623
  17914536.1804  -18978795.56746 -14604053.52861
  19943855.141   -14559988.050 5 -11113174.85621
  19992990.6804  -18235313.54643 -14094439.02861
  16571315.8524  -28170706.45647 -21730266.22263
  16762206.1174  -40298525.62347 -31143495.16663
 97  2  6  4 16 59.9840000  0  7G30G 5G 6G 4G 9G10G24
  15871104.4064  -33359599.46447 -25763726.67563
  15618259.8754  -44662711.23747 -34587375.20663
  17893525.1334  -19089225.40046 -14690102.75261
  19953603.2814  -14508760.55845 -11073257.34661
  20001227.781   -18192033.425 3 -14060714.26321
  16556135.0554  -28250471.36347 -21792420.68563
  16765928.9224  -40278966.99747 -31128254.68663
 97  2  6  4 17 29.9840000  0  7G30G 5G 6G 4G 9G10G24
  15855300.6334  -33442642.70147 -25828435.69363
  15615292.3754  -44678312.14947 -34599531.77063
  17872523.5084  -19199588.42246 -14776099.91361
  19963344.9224  -14457547.86244 -11033351.36461
  20009451.3284  -18148815.10343 -14027037.66161
  16541069.2894  -28329651.33247 -21854119.34763
  16769693.2744  -40259185.13647 -31112840.24363
 97  2  6  4 17 59.9840000  0  7G30G 5G 6G 4G 9G10G24
  15839597.6094  -33525168.40147 -25892741.44063
  15612425.1644  -44693376.49347 -34611270.22863
  17851529.0634  -19309903.73246 -14862059.87461
  19973082.0394  -14406398.94345 -10993495.03961
  20017663.9614  -18105671.06943 -13993418.90961
  16526106.6724  -28408269.05947 -21915379.91563
  16773496.6644  -40239193.70047 -31097262.50863
 97  2  6  4 18 29.9840000  0  7G30G 5G 6G 4G 9G10G24
  15823992.6174  -33607157.98547 -25956629.43563
  15609662.2034  -44707903.81547 -34622590.22563
  17830548.9304  -19420150.62446 -14947966.53961
  19982804.0004  -14355303.17845 -10953680.16761
  20025862.469   -18062576.625 3 -13959838.84621
  16511260.7744  -28486298.38947 -21976181.98163
  16777345.8994  -40218963.89247 -31081499.02863
 97  2  6  4 18 59.9840000  0  7G30G 5G 6G 4G 9G10G24
  15808498.5634  -33688600.25447 -26020090.95163
  15606999.8524  -44721889.01347 -34633487.79163
  17809586.5474  -19530321.44546 -15033813.91661
  19992516.1254  -14304255.53445 -10913902.77261
  20034050.313   -18019527.641 3 -13926294.17021
  16496517.3054  -28563755.24447 -22036537.96363
  16781245.2974  -40198474.75847 -31065533.46963
 97  2  6  4 19 29.9830000  0  6G30G 5G 6G 4G10G24
  15793102.6594  -33769497.45647 -26083127.72763
  15604442.7764  -44735327.87047 -34643959.63763
  17788634.2224  -19640417.45446 -15119603.00661
  20002221.433   -14253260.561 4 -10874166.40921
  16481888.9804  -28640640.87947 -22096448.83363
  16785192.2224  -40177732.42947 -31049370.61863
 97  2  6  4 19 59.9830000  0  6G30G 5G 6G 4G10G24
  15777812.2764  -33849843.40747 -26145734.96163
  15601991.8234  -44748205.46347 -34653994.13963
  17767701.0584  -19750443.80546 -15205337.83361
  20011923.6124  -14202290.65245 -10834449.59361
  16467372.5344  -28716922.03947 -22155888.69063
  16789185.4804  -40156746.39847 -31033017.86763
 97  2  6  4 20 29.9830000  0  6G30G 5G 6G 4G10G24
  15762630.4254  -33929638.23947 -26207912.75463
  15599648.4804  -44760523.70247 -34663592.78863
  17746770.776   -19860408.867 6 -15291024.87521
  20021614.9484  -14151341.11945 -10794748.66361
  16452967.0504  -28792618.54647 -22214872.97563
  16793219.8394  -40135542.80847 -31016495.59963
 97  2  6  4 20 59.9830000  0  5G30G 5G 6G10G24
  15747552.0194  -34008866.14747 -26269648.79363
  15597413.4254  -44772264.51847 -34672741.49063
  17725856.4094  -19970309.59346 -15376661.79661
  16438674.2064  -28867742.22147 -22273410.89563
  16797295.1754  -40114136.87547 -30999815.64263
 97  2  6  4 21 29.9830000  0  5G30G 5G 6G10G24
  15732584.1444  -34087526.62047 -26330942.67263
  15595287.9724  -44783443.40347 -34681452.32363
  17704957.5424  -20080151.58446 -15462252.96561
  16424486.8704  -28942285.75547 -22331496.76163
  16801400.0814  -40092553.58947 -30982997.49763
 97  2  6  4 21 59.9830000  0  5G30G 5G 6G10G24
  15717728.1514  -34165605.20047 -26391783.12763
  15593265.1594  -44794070.38847 -34689733.11063
  17684067.5664  -20189919.76346 -15547786.61461
  16410412.6054  -29016244.16647 -22389126.67463
  16805541.5664  -40070791.79547 -30966040.25963
 97  2  6  4 22 29.9830000  0  5G30G 5G 6G10G24
  15702976.6364  -34243109.95447 -26452176.45063
  15591343.9014  -44804163.75347 -34697598.07763
  17663194.7454  -20299599.81846 -15633251.58461
  16396448.5584  -29089643.47247 -22446320.93263
  16809717.2144  -40048854.33847 -30948946.14263
 97  2  6  4 22 59.9830000  0  5G30G 5G 6G10G24
  15688333.5814  -34320060.09247 -26512137.60663
  15589520.5344  -44813741.47147 -34705061.24463
  17642338.8864  -20409204.45546 -15718657.79661
  16382586.4254  -29162476.64447 -22503074.04463
  16813925.5424  -40026742.16447 -30931715.87663
 97  2  6  4 23 29.9830000  0  5G30G 5G 6G10G24
  15673798.3164  -34396452.27047 -26571663.98663
  15587798.6514  -44822791.70847 -34712113.38863
  17621500.526   -20518716.572 6 -15803991.89321
  16368839.2614  -29234713.13947 -22559362.21063
  16818172.1204  -40004421.37847 -30914323.06163
 97  2  6  4 23 59.9830000  0  5G30G 5G 6G10G24
  15659365.0264  -34472294.20347 -26630761.60963
  15586178.2374  -44831310.87047 -34718751.71563
  17600678.2454  -20628137.23146 -15889254.72961
  16355206.4564  -29306364.36247 -22615194.32963
  16822461.9174  -39981873.73247 -30896753.48063
 97  2  6  4 24 29.9830000  0  6G30G 5G 6G17G10G24
  15645033.2064  -34547597.25347 -26689439.31963
  15584659.581   -44839293.500 7 -34724971.97023
  17579872.0814  -20737485.89946 -15974461.46861
  20058132.284     -140093.038 3
  16341683.8864  -29377428.78947 -22670569.19863
  16826795.7064  -39959102.34447 -30879009.53063
 97  2  6  4 24 59.9830000  0  6G30G 5G 6G17G10G24
  15630806.3084  -34622369.17847 -26747703.16963
  15583241.511   -44846741.344 7 -34730775.51523
  17559068.839   -20846792.652 6 -16059635.54521
  20031504.0114    -280029.05543        -0.08571
  16328271.5504  -29447900.53147 -22725482.22663
  16831169.6984  -39936121.59647 -30861102.45863
 97  2  6  4 25 29.9830000  0  6G30G 5G 6G17G10G24
  15616682.7454  -34696597.91347 -26805543.75263
  15581925.0344  -44853656.44547 -34736163.92563
  17538279.300   -20956055.166 6 -16144775.13921
  20004903.4014    -419801.86043   -108913.93961
  16314970.0264  -29517786.52647 -22779938.83563
  16835578.2614  -39912946.94247 -30843044.29663
 97  2  6  4 25 59.9830000  0  6G30G 5G 6G17G10G24
  15602660.9174  -34770285.77247 -26862962.87663
  15580708.3704  -44860046.05147 -34741142.86163
  17517493.378   -21065283.329 6 -16229887.98021
  19978339.5114    -559418.27243   -217705.92061
  16301781.4874  -29587099.26847 -22833948.76763
  16840021.1204  -39889610.78547 -30824860.28163
 97  2  6  4 26 29.9830000  0  6G30G 5G 6G17G10G24
  15588748.0264  -34843388.46447 -26919926.03063
  15579598.0034  -44865874.73847 -34745684.71363
  17496722.1284  -21174430.52146 -16314937.72661
  19951802.589     -698842.477 3   -326348.11021
  16288713.1364  -29655778.89347 -22887465.34863
  16844494.5814  -39866100.78747 -30806540.81063
 97  2  6  4 26 59.9830000  0  6G30G 5G 6G17G10G24
  15574942.7614  -34915932.02347 -26976453.49463
  15578589.8784  -44871177.56647 -34749816.80363
  17475961.191   -21283520.582 6 -16399942.94321
  19925304.284     -838127.158 3   -434881.56621
  16275759.3394  -29723863.10847 -22940517.96963
  16848995.7064  -39842446.16247 -30788108.64063
 97  2  6  4 27 29.9830000  0  6G30G 5G 6G17G10G24
  15561245.4954  -34987906.94347 -27032537.86263
  15577685.0584  -44875934.40247 -34753523.43963
  17455220.4014  -21392520.94146 -16484878.28261
  19898823.4724    -977264.51543   -543300.24461
  16262918.5734  -29791344.05447 -22993100.51763
  16853529.0034  -39818621.34747 -30769543.84763
 97  2  6  4 27 59.9830000  0  6G30G 5G 6G17G10G24
  15547658.5344  -35059305.12747 -27088172.81263
  15576886.8704  -44880128.68647 -34756791.73163
  17434500.4644  -21501418.52146 -16569733.53561
  19872378.167    -1116231.377 3   -651586.09321
  16250195.5664  -29858202.17747 -23045197.74763
  16858098.5894  -39794604.35247 -30750829.30163
 97  2  6  4 28 29.9830000  0  6G30G 5G 6G17G10G24
  15534177.1674  -35130155.12847 -27143380.61463
  15576188.0264  -44883797.31447 -34759650.41863
  17413788.1204  -21610247.48046 -16654535.32661
  19845961.0894   -1255060.71443   -759764.74261
  16237585.9254  -29924469.50847 -23096834.62163
  16862702.5664  -39770410.48347 -30731976.94063
 97  2  6  4 28 59.9830000  0  6G30G 5G 6G17G10G24
  15520800.1834  -35200448.11947 -27198154.38063
  15575592.2224  -44886937.71247 -34762097.49363
  17393090.9414  -21719010.95346 -16739286.06762
  19819576.0424   -1393745.72843   -867830.92361
  16225084.8394  -29990156.89947 -23148019.58863
  16867345.8234  -39746014.27047 -30712966.90263
 97  2  6  4 29 29.9830000  0  6G30G 5G 6G17G10G24
  15507534.5584  -35270167.46347 -27252481.14363
  15575095.8864  -44889547.87347 -34764131.40163
  17372410.2694  -21827699.39546 -16823978.35261
  19793210.378    -1532274.404 3   -975775.30721
  16212697.5734  -30055252.41147 -23198743.35963
  16872024.3004  -39721427.89747 -30693808.68963
 97  2  6  4 29 59.9830000  0  6G30G 5G 6G17G10G24
  15494376.0664  -35339307.46647 -27306356.47863
  15574694.5344  -44891648.63447 -34765768.37763
  17351739.4254  -21936321.03646 -16908618.56561
  19766872.3554   -1670664.48143  -1083611.68961
  16200422.2224  -30119761.72847 -23249010.35363
  16876734.5584  -39696676.61947 -30674521.98463
 97  2  6  4 30 29.9830000  0  6G30G 5G 6G17G10G24
  15481325.6124  -35407885.79747 -27359794.14663
  15574385.6364  -44893261.30047 -34767025.02163
  17331078.1674  -22044890.70646 -16993218.31961
  19740561.644    -1808950.065 3  -1191366.66421
  16188255.4484  -30183706.64747 -23298837.55963
  16881471.9564  -39671790.71947 -30655130.36863
 97  2  6  4 30 59.9830000  0  6G30G 5G 6G17G10G24
  15468385.6754  -35475895.43247 -27412788.65963
  15574175.948   -44894370.244 7 -34767889.16123
  17310432.1594  -22153390.44446 -17077763.56561
  19714262.753    -1947118.147 3  -1299030.07321
  16176196.1284  -30247076.18147 -23348216.40463
  16886231.9014  -39646774.95847 -30635637.56463
 97  2  6  4 31 29.9830000  0  6G30G 5G 6G17G10G24
  15455551.4174  -35543333.66047 -27465337.93163
  15574064.9254  -44894956.26747 -34768345.82163
  17289800.8474  -22261804.51746 -17162242.04961
  19687999.972    -2085144.608 3  -1406583.14121
  16164249.9564  -30309854.86247 -23397134.85763
  16891013.9874  -39621632.68947 -30616046.18763
 97  2  6  4 31 59.9830000  0  6G30G 5G 6G17G10G24
  15442825.2614  -35610207.43647 -27517447.36163
  15574053.9484  -44895007.80747
  17269186.6674  -22370139.95846 -17246659.26662
  19661769.2764   -2223006.14843  -1514007.69461
  16152416.5504  -30372040.91547 -23445591.51163
  16895828.8554  -39596338.60547 -30596336.51263
 97  2  6  4 32 29.9830000  0  6G30G 5G 6G17G10G24
  15430207.2064  -35676520.99447 -27569120.27663
  15574151.4874  -44894518.15347
  17248582.526   -22478415.339 6 -17331029.67622
  19635565.3234   -2360691.88643  -1621295.26561
  16140695.0114  -30433636.16747 -23493587.79963
  16900670.6834  -39570888.39047 -30576505.17562
 97  2  6  4 32 59.9830000  0  6G30G 5G 6G17G10G24
  15417698.5034  -35742261.14347 -27620346.37563
  15574346.8314  -44893482.87447 -34767197.74463
  17227991.2144  -22586631.16246 -17415353.69062
  19609405.167    -2498177.721 3  -1728427.05821
  16129086.2764  -30494629.89547 -23541115.37463
  16905546.5894  -39545264.81247 -30556538.75163
 97  2  6  4 33 29.9830000  0  6G30G 5G 6G17G10G24
  15405301.2694  -35807410.94547 -27671112.46563
  15574644.651   -44891898.906 7 -34765963.51323
  17207410.1284  -22694777.68846 -17499623.70562
  19583278.917    -2635446.536 3  -1835389.74621
  16117595.2064  -30555009.89447 -23588164.71763
  16910460.8314  -39519451.94647 -30536424.83563
 97  2  6  4 33 59.9830000  0  6G30G 5G 6G17G10G24
  15393018.4804  -35871958.45547 -27721409.23863
  15575051.7614  -44889773.70047 -34764307.53063
  17186843.1444  -22802860.17946 -17583843.83761
  19557199.3394   -2772515.27943  -1942196.57361
  16106221.0894  -30614775.86147 -23634735.59363
  16915405.6514  -39493447.50947 -30516161.63763
 97  2  6  4 34 29.9830000  0  6G30G 5G 6G17G10G24
  15380850.9174  -35935899.16247 -27771233.17963
  15575555.2844  -44887122.56747 -34762241.71963
  17166289.0344  -22910864.55946 -17668003.09962
  19531149.284    -2909398.438 3  -2048858.71721
  16094963.6914  -30673927.25847 -23680827.58863
  16920389.4564  -39467272.86747 -30495765.82163
 97  2  6  4 34 59.9830000  0  6G30G 5G 6G17G10G24
  15368794.0664  -35999251.45647 -27820598.61063
  15576153.4644  -44883978.54547 -34759791.83563
  17145750.6514  -23018795.86346 -17752105.39962
  19505130.144    -3046129.628 3  -2155402.52021
  16083822.1284  -30732489.12847 -23726460.21063
  16925399.0974  -39440949.24447 -30475253.90563
 97  2  6  4 35 29.9830000  0  6G30G 5G 6G17G10G24
  15356848.6054  -36062016.30947 -27869506.28763
  15576847.0344  -44880338.11247 -34756955.14863
  17125228.1204  -23126646.57846 -17836144.90762
  19479139.4174   -3182717.97343  -2261834.97761
  16072792.7304  -30790454.02547 -23771627.65463
  16930434.8314  -39414480.31547 -30454628.78163
 97  2  6  4 35 59.9830000  0  6G30G 5G 6G17G10G24
  15345017.9484  -36124192.60647 -27917955.36463
  15577636.3624  -44876204.16347 -34753733.89463
  17104721.2764  -23234410.58946 -17920116.86962
  19453174.5344   -3319164.47143  -2368156.89661
  16061879.6054  -30847812.14747 -23816322.29063
  16935498.7374  -39387867.04747 -30433891.17963
 97  2  6  4 36 29.9830000  0  6G30G 5G 6G17G10G24
  15333294.0114  -36185800.36447 -27965961.42163
  15578513.3234  -44871596.18547 -34750143.27263
  17084229.4724  -23342091.07046 -18004023.74062
  19427238.464    -3455471.532 3  -2474370.17521
  16051079.2534  -30904567.64847 -23860547.35363
  16940587.6124  -39361122.76547 -30413051.48863
 97  2  6  4 36 59.9820000  0  6G30G 5G 6G17G10G24
  15321682.7794  -36246828.01447 -28013515.44763
  15579483.5294  -44866485.55147 -34746160.97763
  17063759.1234  -23449668.19646 -18087850.07662
  19401328.1004   -3591612.93743  -2580454.38061
  16040395.7254  -30960700.28847 -23904287.06863
  16945706.2404  -39334227.78947 -30392094.37263
 97  2  6  4 37 29.9820000  0  6G30G 5G 6G17G10G24
  15310179.4594  -36307284.79747 -28060624.63363
  15580553.428   -44860867.717 7 -34741783.48323
  17043305.1934  -23557157.36846 -18171607.86262
  19375454.686    -3727582.289 3  -2686404.53221
  16029831.0064  -31016206.04447 -23947538.30463
  16950850.4044  -39307194.62947 -30371029.58463
 97  2  6  4 37 59.9820000  0  6G30G 5G 6G17G10G24
  15298790.6934  -36367119.48047 -28107249.07763
  15581727.8034  -44854702.42647 -34736979.37963
  17022875.2644  -23664518.92746 -18255266.21562
  19349622.678    -3863334.058 3  -2792185.10521
  16019394.3654  -31071062.70347 -23990283.73863
  16956025.0764  -39279993.31547 -30349833.75863
 97  2  6  4 38 29.9820000  0  6G30G 5G 6G17G10G24
  15287521.2724  -36426341.63747 -28153396.21963
  15583003.2954  -44847992.66347 -34731751.00763
  17002463.1784  -23771777.47346 -18338844.30862
  19323824.6314   -3998885.54343  -2897809.63261
  16009075.9904  -31125293.58147 -24032541.55763
  16961230.4284  -39252645.44247 -30328523.74463
 97  2  6  4 38 59.9820000  0  6G30G 5G 6G17G10G24
  15276364.2564  -36484976.34747 -28199085.60363
  15584376.3814  -44840769.07747 -34726122.24763
  16982063.6004  -23878981.19446 -18422379.67262
  19298067.6704   -4134266.04744  -3003300.92661
  15998866.5064  -31178943.03647 -24074346.32663
  16966456.3184  -39225194.90147 -30307133.71663
 97  2  6  4 39 29.9820000  0  6G30G 5G 6G17G10G24
  15265322.8974  -36543004.89247 -28244302.65063
  15585850.6864  -44833029.55047 -34720091.46163
  16961674.1004  -23986123.48146 -18505867.15762
  19272337.217    -4269465.307 4  -3108651.00021
  15988769.1934  -31231999.58047 -24115689.07763
  16971699.9514  -39197631.78947 -30285655.96862
 97  2  6  4 39 59.9820000  0  6G30G 5G 6G17G10G24
  15254395.0144  -36600432.25147 -28289051.24563
  15587421.264   -44824781.944 7 -34713664.78023
  16941299.3584  -24093200.77046 -18589303.98762
  19246643.7334   -4404491.47744  -3213866.18761
  15978780.9364  -31284476.44947 -24156580.13863
  16976965.3974  -39169951.57547 -30264086.98262
 97  2  6  4 40 29.9820000  0  6G30G 5G 6G17G10G24
  15243581.5374  -36657241.15847 -28333317.92063
  15589089.7094  -44816001.85947 -34706823.17763
  16920940.6154  -24200177.90846 -18672662.79162
  19220988.9904   -4539303.64144  -3318914.60961
  15968918.1474  -31336319.38247 -24196977.21863
  16982262.0614  -39142122.48547 -30242401.98162
 97  2  6  4 40 59.9820000  0  6G30G 5G 6G17G10G24
  15232878.8504  -36713480.68047 -28377140.92963
  15590852.4284  -44806741.17647 -34699607.07763
  16900597.1934  -24307084.45146 -18755966.57862
  19195365.475    -4673944.700 4  -3423829.71621
  15959166.9904  -31387565.43847 -24236909.20563
  16987578.9284  -39114188.19947 -30220635.00662
 97  2  6  4 41 29.9820000  0  6G30G 5G 6G17G10G24
  15222294.631   -36769121.167 7 -28420497.16923
  15592712.5844  -44796971.67147 -34691994.49463
  16880273.670   -24413888.697 6 -18839190.64122
  19169780.4834   -4808404.84344  -3528603.83061
  15949532.1544  -31438180.77847 -24276349.72663
  16992920.3814  -39086115.86247 -30198760.46962
 97  2  6  4 41 59.9820000  0  6G30G 5G 6G17G10G24
  15211824.873   -36824135.399 7 -28463365.42623
  15594673.4204  -44786670.51247 -34683967.64163
  16859971.1544  -24520577.11846 -18922324.45562
  19144231.764    -4942661.523 4  -3633219.39821
  15940025.6624  -31488140.18247 -24315279.12263
  16998290.0064  -39057890.36247 -30176766.57462
 97  2  6  4 42 29.9820000  0  6G30G 5G 6G17G10G24
  15201481.9834  -36878469.77847 -28505703.93163
  15596740.9044  -44775797.18047 -34675494.92763
  16839698.7334  -24627109.90446 -19005337.01362
  19118733.490    -5076673.281 4  -3737644.11921
  15930656.0684  -31537391.96647 -24353657.13963
  17003699.6234  -39029472.90047 -30154623.10662
 97  2  6  4 42 59.9820000  0  6G30G 5G 6G17G10G24
  15191260.6934  -36932202.15447 -28547573.32963
  15598903.5764  -44764428.27747 -34666636.05663
  16819439.4364  -24733567.88246 -19088291.26862
  19093260.076    -5210532.408 4  -3841949.90521
  15921396.7874  -31586036.88147 -24391562.26263
  17009127.9044  -39000948.73147 -30132396.48162
 97  2  6  4 43 29.9820000  0  6G30G 5G 6G17G10G24
  15181135.9984  -36985414.61047 -28589037.58063
  15601144.9594  -44752651.36647 -34657459.24163
  16799180.1864  -24840041.43746 -19171257.67362
  19067804.404    -5344311.766 4  -3946193.54521
  15912237.1084  -31634162.10947 -24429062.44163
  17014560.6394  -38972395.46747 -30110147.19362
 97  2  6  4 43 59.9820000  0  6G30G 5G 6G17G10G24
  15171115.9284  -37038050.36647 -28630052.46463
  15603478.1704  -44740401.42347 -34647913.85063
  16778932.2484  -24946440.45646 -19254165.98862
  19042373.475    -5477917.814 4  -4050302.14021
  15903195.0534  -31681699.77547 -24466104.77863
  17020010.9594  -38943743.57747 -30087821.04662
 97  2  6  4 44 29.9820000  0  6G30G 5G 6G17G10G24
  15161211.7724  -37090106.71447 -28670615.86363
  15605899.1474  -44727667.29547 -34637991.17263
  16758704.9434  -25052739.01246 -19336996.02162
  19016985.2094   -5611333.61044  -4154262.47361
  15894262.9204  -31728641.56147 -24502682.79363
  17025489.2014  -38914967.27547 -30065397.95662
 97  2  6  4 44 59.9820000  0  6G30G 5G 6G17G10G24
  15151425.5844  -37141539.09047 -28710693.04763
  15608425.3654  -44714398.33047 -34627651.73863
  16738506.4904  -25158884.00546 -19419706.39762
  18991646.3814   -5744509.95644  -4258036.21061
  15885449.1544  -31774935.07847 -24538755.65863
  17031001.9904  -38886004.89447 -30042829.87762
 97  2  6  4 45 29.9820000  0  6G30G 5G 6G17G10G24
  15141745.1704  -37192391.65447 -28750318.42963
  15611038.3894  -44700661.47947 -34616947.72063
  16718327.8894  -25264922.10646 -19502333.47562
  18966342.842    -5877488.492 4  -4361655.83421
  15876759.2334  -31820619.33647 -24574353.77863
  17036541.4364  -38856897.70347 -30020148.95562
 97  2  6  4 45 59.9820000  0  6G30G 5G 6G17G10G24
  15132179.2954  -37242676.07147 -28789501.09963
  15613742.5144  -44686457.03447 -34605879.32763
  16698167.2874  -25370860.43246 -19584882.81162
  18941068.975    -6010287.304 4  -4465135.39621
  15868179.1474  -31865698.14947 -24609480.12663
  17042104.9434  -38827652.38747 -29997360.39962
 97  2  6  4 46 29.9820000  0  6G30G 5G 6G17G10G24
  15122721.3974  -37292379.40547 -28828230.97663
  15616533.8034  -44671793.69647 -34594453.36163
  16678023.1004  -25476723.04446 -19667373.13962
  18915826.787    -6142934.369 4  -4568496.73921
  15859714.7794  -31910174.68747 -24644137.16663
  17047692.6474  -38798285.50347 -29974477.11762
 97  2  6  4 46 59.9820000  0  6G30G 5G 6G17G10G24
  15113375.7484  -37341474.32647 -28866486.76263
  15619411.6864  -44656665.62347 -34582665.25463
  16657893.8184  -25582500.42546 -19749797.06462
  18890613.7484   -6275420.56744  -4671732.72461
  15851371.0064  -31954038.27947 -24678316.58863
  17053300.9204  -38768808.25747 -29951507.84862
 97  2  6  4 47 29.9820000  0  6G30G 5G 6G17G10G24
  15104151.1934  -37389972.16547 -28904277.28863
  15622376.6154  -44641080.35747 -34570520.90063
  16637779.9984  -25688196.91446 -19832157.96962
  18865438.5224   -6407746.35644  -4774843.72061
  15843134.7794  -31997301.48047 -24712028.17063
  17058927.1934  -38739245.10147 -29928471.62962
 97  2  6  4 47 59.9820000  0  6G30G 5G 6G17G10G24
  15095032.1544  -37437873.88847 -28941603.30863
  15625432.240   -44625030.168 7 -34558014.28523
  16617679.9434  -25793827.22946 -19914467.30562
  18840289.3034   -6539912.88844  -4877830.60261
  15835017.7484  -32039970.46647 -24745276.72663
  17064564.2644  -38709616.39247 -29905384.33262
 97  2  6  4 48 29.9820000  0  6G30G 5G 6G17G10G24
  15086018.0614  -37485245.41247 -28978516.19063
  15628558.6704  -44608594.42447 -34545207.23063
  16597580.6474  -25899453.95546 -19996773.82862
  18815155.889    -6671975.874 4  -4980736.81121
  15826995.7484  -32082124.76447 -24778124.23063
  17070201.1934  -38680006.22747 -29882311.48162
 97  2  6  4 48 59.9820000  0  6G30G 5G 6G17G10G24
  15077130.1704  -37531960.45247 -29014917.53163
  15631791.4834  -44591617.81547 -34531978.72964
  16577513.1314  -26004913.42746 -20078950.03162
  18790075.3814   -6803766.26244  -5083430.59761
  15819096.9594  -32123622.68347 -24810460.26363
  17075859.4834  -38650256.12647 -29859129.58862
 97  2  6  4 49 29.9820000  0  6G30G 5G 6G17G10G24
  15068306.9434  -37578316.52047 -29051039.16363
  15635071.6934  -44574382.28447 -34518548.43963
  16557418.6544  -26110499.20746 -20161224.65362
  18764994.3974   -6935573.92044  -5186137.86461
  15811273.1864  -32164757.34647 -24842513.24963
  17081496.3424  -38620636.17647 -29836049.11062
 97  2  6  4 49 59.9820000  0  6G30G 5G 6G17G10G24
  15059607.1084  -37624049.92447 -29086675.59763
  15638449.6394  -44556626.06247 -34504712.44464
  16537354.061   -26215950.688 7 -20243394.61822
  18739957.7254   -7067140.09744  -5288656.94461
  15803560.8424  -32205267.18747 -24874079.35263
  17087161.1004  -38590874.92447 -29812858.52962
 97  2  6  4 50 29.9820000  0  6G30G 5G 6G17G10G24
  15051010.2794  -37669215.11247 -29121869.26563
  15641913.803   -44538409.999 7 -34490518.13123
  16517304.0614  -26321308.20347 -20325491.37962
  18714959.4904   -7198534.77445  -5391042.38561
  15795962.2794  -32245207.66747 -24905201.80463
  17092840.9124  -38561028.38747 -29789601.49162
 97  2  6  4 50 59.9820000  0  6G30G 5G 6G17G10G24
  15042524.0064  -37713812.60847 -29156620.57063
  15645466.240   -44519746.346 7 -34475975.05223
  16497267.5534  -26426593.64746 -20407531.97962
  18689980.1474   -7329782.23945  -5493313.13461
  15788471.3504  -32284573.53447 -24935876.50163
  17098537.2254  -38531102.40547 -29766282.53862
 97  2  6  4 51 29.9820000  0  6G30G 5G 6G17G10G24
  15034147.0144  -37757841.60047 -29190928.88263
  15649100.920   -44500650.932 7 -34461095.53423
  16477240.6084  -26531840.79647 -20489542.75562
  18665026.7564   -7460910.20145  -5595490.75961
  15781085.8584  -32323370.31647 -24966107.76063
  17104240.4904  -38501130.07047 -29742927.48062
 97  2  6  4 51 59.9820000  0  6G30G 5G 6G17G10G24
  15025866.4754  -37801341.22447 -29224824.69463
  15652802.943   -44481185.951 7 -34445928.04223
  16457213.0844  -26637086.16547 -20571552.12962
  18640085.6394   -7591974.35945  -5697618.66561
  15773807.2404  -32361637.56447 -24995926.38563
  17109938.4984  -38471188.45047 -29719596.35662
 97  2  6  4 52 29.9820000  0  6G30G 5G 6G17G10G24
  15017712.7954  -37844204.70647 -29258224.81663
  15656595.029   -44461268.099 7 -34430407.67223
  16437204.9284  -26742223.29047 -20653477.14962
  18615177.022    -7722872.032 5  -5799616.82821
  15766642.3114  -32399279.45847 -25025257.73063
  17115643.7094  -38441193.31547 -29696223.52762
 97  2  6  4 52 59.9820000  0  6G30G 5G 6G17G10G24
  15009673.9204  -37886432.77347 -29291129.81563
  15660471.9594  -44440888.28947 -34414527.32463
  16417221.0064  -26847245.91647 -20735312.96762
  18590305.6934   -7853579.11445  -5901466.50061
  15759599.5614  -32436291.69847 -25054098.42863
  17121368.7644  -38411116.96047 -29672787.42162
 97  2  6  4 53 29.9820000  0  6G30G 5G 6G17G10G24
  15001757.4984  -37928038.91947 -29323550.19263
  15664436.7094  -44420055.98247 -34398294.37263
  16397259.7484  -26952141.12847 -20817049.50962
  18565464.1704   -7984096.79545  -6003168.58061
  15752672.6474  -32472693.71247 -25082463.62763
  17127108.3814  -38380960.84147 -29649289.15762
 97  2  6  4 53 59.9820000  0  6G30G 5G 6G17G10G24
  14993961.5374  -37969017.41347 -29355481.50563
  15668485.9984  -44398775.68547 -34381712.33563
  16377328.5374  -27056878.80547 -20898663.29462
  18540674.5684   -8114401.61745  -6104704.79761
  15745861.7794  -32508477.39947 -25110347.01763
  17132866.5294  -38350693.51547 -29625704.23262
 97  2  6  4 54 29.9810000  0  6G30G 5G 6G17G10G24
  14986272.6104  -38009408.62847 -29386955.19563
  15672620.5324  -44377060.15547 -34364791.16063
  16357421.5404  -27161495.48947 -20980182.78362
  18515912.0404   -8244505.65445  -6206084.55961
  15739166.3144  -32543673.86147 -25137772.82063
  17138645.5484  -38320318.69147 -29602035.55062
 97  2  6  4 54 59.9810000  0  6G30G 5G 6G17G10G24
  14978704.1654  -38049194.89747 -29417957.49163
  15676842.556   -44354865.095 7 -34347496.33023
  16337534.6894  -27265998.03647 -21061613.34762
  18491194.2594   -8374403.25945  -6307303.45961
  15732584.3844  -32578256.27847 -25164720.15163
  17144450.1814  -38289811.84247 -29578263.98462
 97  2  6  4 55 29.9810000  0  6G30G 5G 6G17G10G24
  14971251.3764  -38088360.08747 -29448475.82263
  15681157.7754  -44332181.26747 -34329820.62963
  16317673.5874  -27370371.75847 -21142943.52862
  18466521.6894   -8504074.73845  -6408346.16261
  15726123.2824  -32612203.74447 -25191172.71463
  17150281.4934  -38259186.35647 -29554399.97662
 97  2  6  4 55 59.9810000  0  6G30G 5G 6G17G10G24
  14963878.0714  -38127089.43747 -29478654.52763
  15685534.5794  -44309184.38647 -34311900.99463
  16297800.2984  -27474810.40647 -21224324.29762
  18441853.2124   -8633693.88545  -6509348.10061
  15719754.8064  -32645689.02947 -25217265.13963
  17156093.9234  -38228635.35047 -29530594.00662
 97  2  6  4 56 29.9810000  0  6G30G 5G 6G17G10G24
  14956622.9784  -38165228.86247 -29508373.55763
  15690000.0794  -44285727.01247 -34293622.54063
  16277942.579   -27579161.692 7 -21305636.97622
  18417229.6654   -8763113.64445  -6610194.64661
  15713493.9854  -32678567.43547 -25242884.67063
  17161916.7514  -38198026.04547 -29506742.60862
 97  2  6  4 56 59.9810000  0  6G30G 5G 6G17G10G24
  14949496.0324  -38202666.77147 -29537545.96263
  15694565.7284  -44261724.27547 -34274919.13463
  16258124.2594  -27683304.54747 -21386787.24362
  18392655.235    -8892219.190 5  -6710796.36721
  15707377.4464  -32710727.32047 -25267944.31563
  17167772.6504  -38167266.79547 -29482774.36562
 97  2  6  4 57 29.9810000  0  6G30G 5G 6G17G10G24
  14942515.946   -38239364.521 7 -29566141.63723
  15699242.0254  -44237148.87347 -34255769.46963
  16238359.1734  -27787172.69647 -21467723.44862
  18368157.4934   -9020958.10545  -6811112.40661
  15701398.9314  -32742133.63147 -25292416.75463
  17173662.9074  -38136310.32747 -29458652.44962
 97  2  6  4 57 59.9810000  0  6G30G 5G 6G17G10G24
  14935588.1964  -38275762.49147 -29594503.70363
  15703944.439   -44212441.434 7 -34236516.95923
  16218562.9624  -27891206.79247 -21548788.97462
  18343644.603    -9149786.161 5  -6911497.89421
  15695482.1964  -32773233.30247 -25316650.25963
  17179509.2754  -38105590.50247 -29434714.92462
 97  2  6  4 58 29.9810000  0  6G30G 5G 6G17G10G24
  14928834.7204  -38311252.40747 -29622158.19363
  15708788.1654  -44186992.23047 -34216686.43063
  16198848.6814  -27994806.93547 -21629516.36262
  18319222.4154   -9278108.47745  -7011489.31561
  15689735.2044  -32803434.12047 -25340183.35563
  17185421.9464  -38074505.23246 -29410492.65062
 97  2  6  4 58 59.9810000  0  6G30G 5G 6G17G10G24
  14922185.4004  -38346199.86347 -29649389.99263
  15713704.3764  -44161157.56647 -34196555.53663
  16179141.6264  -28098360.73347 -21710207.63762
  18294830.7594   -9406296.20645  -7111375.84761
  15684087.9004  -32833101.74447 -25363300.97863
  17191340.6344  -38043417.21646 -29386268.22462
 97  2  6  4 59 29.9810000  0  6G30G 5G 6G17G10G24
  14915638.8374  -38380593.92747 -29676190.57963
  15718696.3924  -44134918.05547 -34176109.16563
  16159446.7124  -28201862.12447 -21790858.08362
  18270462.6574   -9534353.52045  -7211160.76361
  15678547.6894  -32862224.58147 -25385994.09263
  17197261.1034  -38012307.78246 -29362027.11562
 97  2  6  4 59 59.9810000  0  6G30G 5G 6G17G10G24
  14909203.8454  -38414428.24647 -29702554.98363
  15723766.9234  -44108271.93147 -34155345.96263
  16139760.6964  -28305308.18347 -21871465.39762
  18246118.8604   -9662275.87945  -7310840.51561
  15673109.7284  -32890791.82747 -25408254.27763
  17203186.5564  -37981169.75746 -29337763.72062
 97  2  6  5  0 29.9810000  0  6G30G 5G 6G17G10G24
  14902859.6814  -38447742.29147 -29728513.99763
  15728904.2514  -44081280.85847 -34134313.97863
  16120078.0174  -28408740.20947 -21952061.77963
  18221795.001    -9790098.901 5  -7410442.85621
  15667772.8144  -32918851.43547 -25430118.89863
  17209107.2594  -37950044.84046 -29313510.54762
 97  2  6  5  0 59.9810000  0  6G30G 5G 6G17G10G24
  14896635.9704  -38480459.58247 -29754008.01463
  15734118.595   -44053882.793 7 -34112964.86723
  16100417.1964  -28512060.42947 -22032571.04362
  18197510.3064   -9917738.82445  -7509902.53661
  15662546.5254  -32946312.45747 -25451517.08863
  17215045.3374  -37918840.50646 -29289195.48962
 97  2  6  5  1 29.9810000  0  6G30G 5G 6G17G10G24
  14890525.4854  -38512571.45947 -29779030.26563
  15739410.5644  -44026076.26147 -34091297.46963
  16080783.2754  -28615237.79847 -22112968.98362
  18173258.5174  -10045183.29445  -7609209.90861
  15657434.7514  -32973169.45247 -25472444.60663
  17220998.1574  -37887551.90046 -29264814.77662
 97  2  6  5  1 59.9810000  0  6G30G 5G 6G17G10G24
  14884544.5714  -38543999.69747 -29803519.80663
  15744795.5324  -43997782.36847 -34069250.28863
  16061190.6654  -28718196.91747 -22193196.87262
  18149058.2754  -10172346.84245  -7708298.38161
  15652452.1964  -32999359.02847 -25492852.06563
  17226978.6504  -37856118.75546 -29240321.42662
 97  2  6  5  2 29.9810000  0  6G30G 5G 6G17G10G24
  14878685.9234  -38574797.94247 -29827518.43363
  15750259.7044  -43969055.01447 -34046865.33863
  16041629.0404  -28821003.66547 -22273306.02462
  18124900.6734  -10299282.94945  -7807209.61961
  15647580.1734  -33024947.48947 -25512791.11563
  17232975.8374  -37824618.50746 -29215775.78962
 97  2  6  5  2 59.9810000  0  6G30G 5G 6G17G10G24
  14872932.3604  -38605016.47747 -29851065.35263
  15755799.8684  -43939936.97847 -34024175.96863
  16022082.3924  -28923712.02047 -22353338.50263
  18100785.1654  -10426030.83245  -7905974.19361
  15642819.0324  -33049989.31247 -25532304.21863
  17238973.5714  -37793109.74046 -29191223.51662
 97  2  6  5  3 29.9810000  0  6G30G 5G 6G17G10G24
  14867255.7434  -38634844.17347 -29874307.72063
  15761381.2514  -43910620.78447 -34001332.18363
  16002517.1574  -29026526.99947 -22433454.05363
  18076662.1184  -10552781.36245  -8004740.82061
  15638117.0174  -33074690.57147 -25551551.94263
  17244928.4154  -37761808.50746 -29166832.95262
 97  2  6  5  3 59.9810000  0  6G30G 5G 6G17G10G24
  14861694.6034  -38664088.97447 -29897095.89763
  15767032.8144  -43880915.93647 -33978185.55063
  15982965.2984  -29129271.15847 -22513514.42863
  18052580.9154  -10679348.92545  -8103364.89161
  15633514.5644  -33098862.38747 -25570387.11263
  17250881.4854  -37730521.42046 -29142453.40861
 97  2  6  5  4 29.9810000  0  6G30G 5G 6G17G10G24
  14856246.626   -38692709.382 7 -29919397.53224
  15772763.2674  -43850795.74647 -33954715.29063
  15963434.8844  -29231906.37147 -22593489.92663
  18028533.5014  -10805695.05145  -8201816.39861
  15629028.9624  -33122447.71247 -25588765.28363
  17256844.4704  -37699191.90146 -29118040.80461
 97  2  6  5  4 59.9810000  0  6G30G 5G 6G17G10G24
  14850908.4544  -38720751.33547 -29941248.41563
  15778565.9004  -43820306.06547 -33930957.11363
  15943919.7904  -29334461.78847 -22673403.24763
  18004522.845   -10931870.040 5  -8300134.55121
  15624648.5174  -33145472.57547 -25606706.72663
  17262808.3144  -37667838.74746 -29093609.78061
 97  2  6  5  5 29.9810000  0  6G30G 5G 6G17G10G24
  14845701.2824  -38748124.55347 -29962578.21063
  15784456.8684  -43789346.87547 -33906833.07863
  15924437.8144  -29436832.57747 -22753172.69463
  17980563.2354  -11057786.99045  -8398251.64661
  15620394.4074  -33167819.41147 -25624119.84363
  17268802.2044  -37636360.27546 -29069081.10761
 97  2  6  5  5 59.9810000  0  6G30G 5G 6G17G10G24
  14840608.2354  -38774895.71147 -29983438.86163
  15790424.6964  -43757976.01247
  15904984.8924  -29539066.33647 -22832835.35263
  17956639.8764  -11183500.06745  -8496209.87661
  15616260.5014  -33189534.54847 -25641040.72663
  17274808.5874  -37604794.94946
 97  2  6  5  6 29.9810000  0  6G30G 5G 6G17G10G24
  14835640.267   -38800987.207 7 -30003769.91724
  15796490.2044  -43726110.04347 -33857557.66163
  15885575.0404  -29641068.19847 -22912317.30563
  17932774.3214  -11308911.13545  -8593932.77661
  15612267.3604  -33210532.94947 -25657403.11163
  17280846.2204  -37573057.01446 -29019753.90361
 97  2  6  5  6 59.9810000  0  6G30G 5G 6G17G10G24
  14830787.681   -38826489.715 7 -30023642.02523
  15802633.6344  -43693832.84147 -33832406.58963
  15866195.017   -29742905.635 7 -22991671.17323
  17908952.2904  -11434105.54345  -8691486.84561
  15608388.4854  -33230912.07847 -25673282.94063
  17286900.8454  -37541226.39146 -28994950.82461
 97  2  6  5  7 29.9810000  0  6G30G 5G 6G17G10G24
  14826030.1034  -38851503.07747 -30043132.96963
  15808833.3924  -43661241.91647 -33807011.06363
  15846827.8924  -29844685.27747 -23070979.99263
  17885152.0174  -11559183.69145  -8788950.32761
  15604604.3454  -33250786.28047 -25688769.33263
  17292956.5874  -37509419.06946 -28970165.89861
 97  2  6  5  7 59.9810000  0  6G30G 5G 6G17G10G24
  14821390.4934  -38875873.63347 -30062123.02863
  15815123.7594  -43628196.03647 -33781261.04463
  15827496.8294  -29946262.06747 -23150130.72263
  17861397.360   -11684003.533 5  -8886212.51321
  15600944.6894  -33270033.41447 -25703767.09563
  17299029.8294  -37477496.96346 -28945291.52861
 97  2  6  5  8 29.9810000  0  6G30G 5G 6G17G10G24
  14816866.9464  -38899641.34547 -30080643.33464
  15821489.4314  -43594748.40247 -33755197.95463
  15808196.1034  -30047689.79547 -23229165.30263
  17837686.0404  -11808619.17645  -8983315.59661
  15597391.2904  -33288706.61747 -25718317.63263
  17305113.6734  -37445523.25246 -28920376.95761
 97  2  6  5  8 59.9810000  0  6G30G 5G 6G17G10G24
  14812461.0564  -38922811.76247 -30098698.20663
  15827924.7754  -43560918.32347 -33728836.86563
  15788920.5644  -30148981.03347 -23308093.52863
  17814007.782   -11933047.948 5  -9080273.06421
  15593940.1734  -33306827.92347 -25732438.12763
  17311200.2434  -37413542.13846 -28895456.61661
 97  2  6  5  9 29.9810000  0  6G30G 5G 6G17G10G24
  14808166.7674  -38945375.80247 -30116280.58963
  15834436.3764  -43526699.01647 -33702172.47963
  15769672.7044  -30250135.41847 -23386915.11363
  17790368.3534  -12057278.20445  -9177075.83661
  15590596.7284  -33324402.42947 -25746132.53763
  17317283.2754  -37381574.89446 -28870547.08361
 97  2  6  5  9 59.9810000  0  6G30G 5G 6G17G10G24
  14803985.9624  -38967332.06947 -30133389.37663
  15841020.1184  -43492096.47447 -33675209.46363
  15750450.6894  -30351150.99947 -23465628.54863
  17766765.3064  -12181306.37545  -9273721.14461
  15587358.9624  -33341425.37447 -25759397.16663
  17323368.1034  -37349614.19046 -28845642.64361
 97  2  6  5 10 29.9810000  0  6G30G 5G 6G17G10G24
  14799921.2514  -38988693.70547 -30150034.81463
  15847677.2434  -43457126.58347 -33647960.19763
  15731253.3294  -30452035.05847 -23544239.50763
  17743198.8214  -12305142.25745  -9370216.63161
  15584225.5014  -33357896.76947 -25772232.01163
  17329448.2674  -37317663.82646 -28820746.26361
 97  2  6  5 10 59.9810000  0  6G30G 5G 6G17G10G24
  14795969.6424  -39009465.84147 -30166220.89763
  15854402.0714  -43421785.25547 -33620421.50663
  15712083.1964  -30552774.46147 -23622737.73763
  17719669.9934  -12428782.35345  -9466559.55561
  15581196.7124  -33373805.59347 -25784628.49463
  17335525.9464  -37285709.09646 -28795846.47161
 97  2  6  5 11 29.9810000  0  6G30G 5G 6G17G10G24
  14792129.2044  -39029656.09847 -30181953.57863
  15861202.1964  -43386063.50947 -33592586.38663
  15692939.1504  -30653372.32647 -23701125.69063
  17696177.275   -12552234.011 5  -9562755.62521
  15578281.0954  -33389120.39847 -25796562.10163
  17341613.1964  -37253715.45646 -28770916.36661
 97  2  6  5 11 59.9800000  0  6G30G 5G 6G17G10G24
  14788393.051   -39049288.196 7 -30197251.33523
  15868064.8324  -43349984.86547 -33564473.16863
  15673819.3714  -30753850.32747 -23779420.23963
  17672719.3014  -12675511.77645  -9658816.22061
  15575476.7854  -33403850.54247 -25808040.12863
  17347708.7074  -37221695.24046 -28745965.55861
 97  2  6  5 12 29.9800000  0  6G30G 5G 6G17G10G24
  14784765.707   -39068341.908 7 -30212098.41523
  15875004.2854  -43313519.93047 -33536058.93363
  15654727.2624  -30854179.61847 -23857598.89563
  17649301.004   -12798584.035 5  -9754716.65921
  15572790.1924  -33417978.53847 -25819048.94963
  17353810.0514  -37189633.03146 -28720982.02061
 97  2  6  5 12 59.9800000  0  6G30G 5G 6G17G10G24
  14781248.7544  -39086814.86047 -30226492.94963
  15882016.4424  -43276661.11347 -33507337.79163
  15635664.4184  -30954359.95947 -23935661.48463
  17625923.668   -12921429.561 5  -9850440.42621
  15570218.4574  -33431504.50347 -25829588.65563
  17359917.1994  -37157532.87446 -28695968.91161
 97  2  6  5 13 29.9800000  0  6G30G 5G 6G17G10G24
  14777851.3014  -39104685.75747 -30240418.32864
  15889111.3014  -43239392.76347 -33478297.53262
  15616631.6214  -31054375.73247 -24013595.85263
  17602593.6684  -13044021.90245  -9945966.92461
  15567759.0824  -33444421.60147 -25839653.92763
  17366037.5904  -37125370.10846 -28670907.02661
 97  2  6  5 13 59.9800000  0  6G30G 5G 6G17G10G24
  14774562.277   -39121978.626 7 -30253893.30723
  15896272.4424  -43201757.68847 -33448971.50262
  15597625.8714  -31154250.29247 -24091420.19463
  17579313.9264  -13166375.59345 -10041307.45161
  15565405.5824  -33456782.24347 -25849285.59263
  17372168.4964  -37093171.39146 -28645817.12161
 97  2  6  5 14 29.9800000  0  6G30G 5G 6G17G10G24
  14771383.520   -39138672.328 7 -30266901.41323
  15903507.4574  -43163736.48846 -33419344.59662
  15578652.5674  -31253960.50647 -24169116.46663
  17556075.4964  -13288477.34945 -10136451.67361
  15563164.1684  -33468553.26447 -25858457.80663
  17378303.0354  -37060909.02146 -28620677.62061
 97  2  6  5 14 59.9800000  0  6G30G 5G 6G17G10G24
  14768307.996   -39154823.639 7 -30279486.87723
  15910803.8014  -43125394.42046 -33389467.65662
  15559696.2314  -31353566.42047 -24246731.44863
  17532879.8094  -13410397.08045 -10231454.02561
  15561029.9344  -33479783.35447 -25867208.52063
  17384448.3244  -37028625.06546 -28595521.29961
 97  2  6  5 15 29.9800000  0  6G30G 5G 6G17G10G24
  14765353.0044  -39170349.17647 -30291584.71763
  15918174.0274  -43086662.28146 -33359286.77062
  15540780.3484  -31452977.25147 -24324194.42263
  17509722.449   -13532062.454 5 -10326258.17821
  15559010.8014  -33490404.46747 -25875484.70863
  17390609.8014  -36996246.97846 -28570291.63061
 97  2  6  5 15 59.9800000  0  6G30G 5G 6G17G10G24
  14762526.8634  -39185208.01247 -30303163.03063
  15925625.4494  -43047507.09546 -33328776.24162
  15521903.731   -31552168.291 7 -24401486.15623
  17486625.660   -13653446.962 5 -10420843.48521
  15557108.1764  -33500395.29247 -25883269.76263
  17396788.9814  -36963771.74546 -28544986.26661
 97  2  6  5 16 29.9800000  0  6G30G 5G 6G17G10G24
  14759780.317   -39199649.835 7 -30314416.40923
  15933109.8634  -43008176.93346 -33298129.36062
  15503022.0744  -31651388.46447 -24478800.57563
  17463532.5044  -13774801.86745 -10515405.71561
  15555277.3484  -33510012.11847 -25890763.38063
  17402935.0044  -36931472.86446 -28519818.31961
 97  2  6  5 16 59.9800000  0  6G30G 5G 6G17G10G24
  14757145.129   -39213496.830 7 -30325206.32723
  15940657.6924  -42968509.32046 -33267219.54762
  15484171.3874  -31750456.62047 -24555996.53563
  17440479.5984  -13895945.96345 -10609803.69661
  15553545.9654  -33519109.87847 -25897852.54163
  17409077.1604  -36899186.85246 -28494660.38661
 97  2  6  5 17 29.9800000  0  6G30G 5G 6G17G10G24
  14754626.973   -39226736.855 7 -30335523.27923
  15948273.4734  -42928492.48646 -33236037.60362
  15465350.2154  -31849362.02147 -24633065.67563
  17417467.2074  -14016870.52246 -10704030.62461
  15551910.6924  -33527694.05647 -25904541.50963
  17415220.4344  -36866911.65846 -28469510.89361
 97  2  6  5 17 59.9800000  0  6G30G 5G 6G17G10G24
  14752222.5514  -39239374.74047 -30345370.99063
  15955954.2934  -42888118.14346 -33204577.07362
  15446560.6454  -31948097.01347 -24710002.02163
  17394498.7624  -14137576.63745 -10798087.33061
  15550379.4574  -33535739.76247 -25910810.88463
  17421364.2154  -36834632.52346 -28444358.32761
 97  2  6  5 18 29.9800000  0  6G30G 5G 6G17G10G24
  14749929.9184  -39251412.22247 -30354750.84963
  15963705.9184  -42847391.00846 -33172841.65062
  15427810.3634  -32046635.61447 -24786785.34763
  17371571.7384  -14258061.67645 -10891971.75661
  15548955.6214  -33543228.00247 -25916645.86863
  17427511.2234  -36802329.40846 -28419187.06861
 97  2  6  5 18 59.9800000  0  6G30G 5G 6G17G10G24
  14747751.7314  -39262855.31947 -30363667.55263
  15971522.0824  -42806314.45146 -33140833.94662
  15409097.1604  -32144968.59847 -24863408.46063
  17348681.3634  -14378339.80245 -10985694.96361
  15547639.5594  -33550151.56247 -25922040.84363
  17433664.5824  -36769993.10046 -28393989.95961
 97  2  6  5 19 29.9800000  0  6G30G 5G 6G17G10G24
  14745678.5514  -39273746.27847 -30372154.02463
  15979398.5354  -42764922.92346 -33108580.82162
  15390415.5204  -32243143.75847 -24939908.59063
  17325825.1294  -14498457.12946 -11079292.86761
  15546423.7854  -33556542.34647 -25927020.67763
  17439816.1374  -36737664.22546 -28368798.63761
 97  2  6  5 19 59.9800000  0  6G30G 5G 6G17G10G24
  14743712.863   -39284078.503 7 -30380205.13123
  15987335.7234  -42723213.60046 -33076080.04462
  15371765.0904  -32341154.67847 -25016280.73663
  17302999.2774  -14618396.67445 -11172752.23261
  15545311.4814  -33562388.89247 -25931576.42663
  17445966.9424  -36705338.57046 -28343609.81961
 97  2  6  5 20 29.9800000  0  6G30G 5G 6G17G10G24
  14741855.145   -39293835.943 7 -30387808.35323
  15995334.8794  -42681172.27846 -33043320.58462
  15353147.6844  -32438995.33447 -25092520.21663
  17280213.9494  -14738138.86846 -11266057.81961
  15544302.4654  -33567692.60447 -25935709.18663
  17452123.3174  -36672999.49046 -28318410.54661
 97  2  6  5 20 59.9800000  0  6G30G 5G 6G17G10G24
  14740114.5744  -39302985.95147 -30394938.24563
  16003407.2544  -42638758.12746 -33010270.60562
  15334564.6214  -32536643.84247 -25168609.96863
  17257474.3324  -14857641.17446 -11359176.49461
  15543399.5904  -33572428.09647 -25939399.17863
  17458287.1764  -36640604.05946 -28293167.36561
 97  2  6  5 21 29.9800000  0  6G30G 5G 6G17G10G24
  14738449.9654  -39311735.87247 -30401756.37463
  16011511.8954  -42596179.78946 -32977092.69162
  15315977.5124  -32634317.89347 -25244719.59763
  17234745.067   -14977086.675 6 -11452250.92221
  15542566.2544  -33576795.97347 -25942802.71163
  17464422.3634  -36608353.96846 -28268037.43161
 97  2  6  5 21 59.9800000  0  6G30G 5G 6G17G10G24
  14736829.5984  -39320255.24347 -30408394.86563
  16019611.8874  -42553600.54346 -32943914.07162
  15297358.1134  -32732171.19847 -25320968.92663
  17211999.1604  -15096629.09046 -11545400.85661
  15541777.2314  -33580948.12547 -25946038.15563
  17470503.8324  -36576404.43246 -28243141.70161
 97  2  6  5 22 29.9800000  0  6G30G 5G 6G17G10G24
  14735316.3174  -39328211.58547 -30414594.60463
  16027781.0984  -42510674.74546 -32910465.39662
  15278769.3094  -32829851.90747 -25397083.75863
  17189296.6064  -15215932.80046 -11638364.79261
  15541094.2384  -33584530.25047 -25948829.41763
  17476590.2854  -36544410.72046 -28218211.55761
 97  2  6  5 22 59.9800000  0  6G30G 5G 6G17G10G24
  14733909.6844  -39335600.76847 -30420352.40463
  16036014.2704  -42467411.45146 -32876753.74962
  15260214.2774  -32927351.73447 -25473057.64163
  17166641.3404  -15334987.68346 -11731134.81361
  15540527.9104  -33587531.32247 -25951167.91763
  17482684.3324  -36512390.63146 -28193260.83561
 97  2  6  5 23 29.9800000  0  6G30G 5G 6G17G10G24
  14732620.8094  -39342366.58647 -30425624.46663
  16044319.2774  -42423756.28846 -32842736.74462
  15241706.4184  -33024616.59047 -25548848.42363
  17144040.3634  -15453746.68846 -11823674.27761
  15540079.0904  -33589895.18247 -25953009.88163
  17488788.5124  -36480302.99646 -28168257.50261
 97  2  6  5 23 59.9800000  0  6G30G 5G 6G17G10G24
  14731449.0124  -39348522.72747 -30430421.45663
  16052698.4964  -42379728.80046 -32808429.61562
  15223239.3794  -33121660.68047 -25624467.19563
  17121487.7624  -15572255.41946 -11916018.73861
  15539742.1524  -33591656.64847 -25954382.45263
  17494902.6524  -36448174.06446 -28143221.98561
 97  2  6  5 24 29.9800000  0  6G30G 5G 6G17G10G24
  14730393.457   -39354069.555 7 -30434743.68323
  16061143.8564  -42335349.42046 -32773848.30062
  15204813.0354  -33218496.15847 -25699923.40363
  17098982.2314  -15690532.88946 -12008182.98561
  15539514.7384  -33592835.81147 -25955301.27563
  17501024.1454  -36416021.02746 -28118167.67761
 97  2  6  5 24 59.9800000  0  6G30G 5G 6G17G10G24
  14729455.692   -39359008.064 7 -30438591.90623
  16069654.0044  -42290633.52246 -32739004.75062
  15186423.512   -33315131.870 7 -25775223.97923
  17076513.9344  -15808583.61146 -12100170.56361
  15539397.7074  -33593457.06747
  17507145.3484  -36383852.31846 -28093101.16161
 97  2  6  5 25 29.9800000  0  6G30G 5G 6G17G10G24
  14728663.840   -39363178.000 7 -30441841.22423
  16078258.8564  -42245404.92646 -32703761.70662
  15168106.4964  -33411395.44147 -25850234.55463
  17054123.1134  -15926244.98246 -12191854.72961
  15539416.5434  -33593364.88847
  17513306.3714  -36351480.95046 -28067876.72361
 97  2  6  5 25 59.9800000  0  6G30G 5G 6G17G10G24
  14727966.1684  -39366833.87747 -30444689.98663
  16086914.0204  -42199922.17446 -32668320.59862
  15149813.5124  -33507514.14247 -25925132.23663
  17031764.2384  -16043759.39646 -12283424.40161
  15539523.2314  -33592807.74447
  17519457.8174  -36319151.60546 -28042685.02661
 97  2  6  5 26 29.9800000  0  6G30G 5G 6G17G10G24
  14727365.926   -39369985.897 7 -30447146.12523
  16095620.5124  -42154173.95946 -32632672.65362
  15131553.5904  -33603472.09847 -25999904.67363
  17009435.1374  -16161099.01546 -12374857.83961
  15539718.4574  -33591784.42147 -25954482.00463
  17525599.2384  -36286872.26446 -28017532.29561
 97  2  6  5 26 59.9800000  0  6G30G 5G 6G17G10G24
  14726865.2934  -39372636.54247 -30449211.57163
  16104377.6764  -42108145.23246 -32596806.12962
  15113326.895   -33699259.891 7 -26074544.51923
  16987146.621   -16278243.789 6 -12466139.45221
  15539997.6524  -33590293.92047 -25953320.57763
  17531733.5354  -36254638.85546 -27992415.37361
 97  2  6  5 27 29.9800000  0  6G30G 5G 6G17G10G24
  14726439.2314  -39374843.08447 -30450930.97063
  16113179.9104  -42061895.46846 -32560767.36362
  15095118.9734  -33794939.73547 -26149100.25363
  16964879.9184  -16395251.20846 -12557314.03861
  15540358.8404  -33588409.13747 -25951851.91163
  17537843.1524  -36222519.83746 -27967387.57561
 97  2  6  5 27 59.9800000  0  6G30G 5G 6G17G10G24
  14726136.2934  -39376458.64047 -30452189.87063
  16122049.2384  -42015294.18746 -32524454.68362
  15076958.199   -33890370.794 7 -26223462.10823
  16942665.8094  -16511981.85946 -12648272.97361
  15540819.6994  -33585989.99847 -25949966.86463
  17543959.9734  -36190388.49746 -27942350.16961
 97  2  6  5 28 29.9800000  0  6G30G 5G 6G17G10G24
  14725963.1064  -39377351.56647 -30452885.66863
  16131005.8874  -41968219.88246 -32487773.41862
  15058868.5674  -33985439.58447 -26297541.67363
  16920526.7314  -16628304.63646 -12738914.08261
  15541406.2154  -33582908.67247 -25947565.82963
  17550101.0274  -36158114.47846 -27917201.58961
 97  2  6  5 28 59.9800000  0  6G30G 5G 6G17G10G24
  14725890.1844  -39377730.33047
  16140009.2774  -41920910.88946 -32450909.27762
  15040805.731   -34080359.758 7 -26371505.42123
  16898427.1844  -16744449.81046 -12829416.81161
  15542079.4574  -33579363.86247 -25944803.63763
  17556233.0354  -36125888.19846 -27892090.21361
 97  2  6  5 29 29.9790000  0  6G30G 5G 6G17G10G24
  14725927.773   -39377544.152 7
  16149064.3194  -41873333.36546 -32413835.89262
  15022782.4374  -34175070.43447 -26445305.96463
  16876368.7734  -16860375.53046 -12919748.53161
  15542854.0384  -33575290.34447 -25941629.45963
  17562367.6944  -36093648.70946 -27866968.53361
 97  2  6  5 29 59.9790000  0  6G30G 5G 6G17G10G24
  14726065.8824  -39376810.37047 -30452464.02163
  16158165.3434  -41825506.57246 -32376568.24862
  15004796.7494  -34269583.06347 -26518952.18063
  16854347.077   -16976100.045 6 -13009923.45221
  15543737.9764  -33570663.27147 -25938023.94663
  17568508.2264  -36061393.58646 -27841834.67361
 97  2  6  5 30 29.9790000  0  6G30G 5G 6G17G10G24
  14726316.9294  -39375518.04147 -30451457.02563
  16167315.1634  -41777416.74046 -32339095.67161
  14986853.460   -34363879.680 7 -26592430.08523
  16832365.296   -17091599.556 6 -13099923.02421
  15544723.9994  -33565457.54447 -25933967.53263
  17574649.8354  -36029099.41746 -27816670.39261
 97  2  6  5 30 59.9790000  0  6G30G 5G 6G17G10G24
  14726651.1404  -39373734.73047 -30450067.45263
  16176505.4844  -41729130.98946 -32301470.42662
  14968938.1404  -34458029.51547 -26665793.58863
  16810414.3594  -17206949.98546 -13189806.44261
  15545814.3904  -33559742.75247 -25929514.45063
  17580791.3044  -35996843.21746 -27791535.69161
 97  2  6  5 31 29.9790000  0  6G30G 5G 6G17G10G24
  14727105.1634  -39371362.12047 -30448218.67063
  16185748.2574  -41680550.76146 -32263615.71362
  14951062.6404  -34551956.60147 -26738983.53163
  16788511.6164  -17322048.67946 -13279493.73561
  15547011.2414  -33553447.34547 -25924608.93063
  17586933.6244  -35964555.26346 -27766376.24761
 97  2  6  5 31 59.9790000  0  6G30G 5G 6G17G10G24
  14727660.7414  -39368420.49347 -30445926.49963
  16195047.0234  -41631679.17446 -32225533.97061
  14933227.3274  -34645682.62447 -26812016.79163
  16766659.6404  -17436904.24046 -13368991.56961
  15548314.0624  -33546608.10147 -25919279.65462
  17593077.4054  -35932268.20646 -27741217.51961
 97  2  6  5 32 29.9790000  0  6G30G 5G 6G17G10G24
  14728342.4684  -39364866.12347 -30443156.87563
  16204415.8744  -41582450.97446 -32187174.34161
  14915441.0304  -34739154.97547 -26884852.40063
  16744856.7574  -17551459.08646 -13458255.06861
  15549720.9844  -33539200.00447 -25913507.11063
  17599226.991   -35899936.578 6 -27716024.05421
 97  2  6  5 32 59.9790000  0  6G30G 5G 6G17G10G24
  14729129.0384  -39360715.58047 -30439922.69963
  16213850.4524  -41532877.62546 -32148545.76961
  14897700.9054  -34832378.77847 -26957494.33363
  16723114.3354  -17665717.53246 -13547287.61261
  15551235.7654  -33531254.10347 -25907315.49963
  17605387.7104  -35867579.48046 -27690810.73461
 97  2  6  5 33 29.9790000  0  6G30G 5G 6G17G10G24
  14729990.9764         -0.21457
  16223307.3194  -41483168.36246 -32109811.28161
  14879966.1324  -34925574.30247 -27030114.22563
  16701388.3744  -17779895.18646 -13636257.19461
  15552803.265          -0.33417
  17611509.1794  -35835412.98446 -27665745.94561
 97  2  6  5 33 59.9790000  0  6G30G 5G 6G17G10G24
  14730946.3434       5039.10247        -0.19773
  16232826.7344  -41433146.49046 -32070833.19961
  14862272.9994  -35018552.50947 -27102564.76663
  16679704.1874  -17893835.23146 -13725041.63061
  15554465.3984       8719.76247        -0.01173
  17617631.8274  -35803248.52746 -27640682.74161
 97  2  6  5 34 29.9790000  0  6G30G 5G 6G17G10G24
  14732017.343       10651.452 7      4373.02523
  16242413.0934  -41382781.61646 -32031587.86261
  14844630.9054  -35111262.96347 -27174806.68763
  16658077.6094  -18007493.77346 -13813606.71861
  15556222.9054      17961.10047      7201.03663
  17623760.6794  -35771030.20746 -27615577.55861
 97  2  6  5 34 59.9790000  0  6G30G 5G 6G17G10G24
  14733167.5074      16688.07347      9076.86163
  16252028.2654  -41332244.30646 -31992208.14961
  14827008.1244  -35203869.80547 -27246967.86164
  16636469.6404  -18121048.65146 -13902091.02661
  15558047.2734      27559.14747     14680.02963
  17629868.6324  -35738917.52446 -27590554.69261
 97  2  6  5 35 29.9790000  0  6G30G 5G 6G17G10G24
  14734431.0624      23344.70447     14263.84463
  16261712.6014  -41281355.57746 -31952554.60761
  14809443.8664  -35296180.25347 -27318898.08463
  16614910.8274  -18234327.72746 -13990360.42661
  15559982.2184      37717.03147     22595.26463
  17636002.3274  -35706708.26146 -27565456.56761
 97  2  6  5 35 59.9790000  0  6G30G 5G 6G17G10G24
  14735937.984       31264.021 7     20434.72923
  16271579.0234  -41229503.32046 -31912150.25761
  14792055.9524  -35387546.59047 -27390092.62763
  16593530.1484  -18346696.71846 -14077920.66961
  15562147.4994      49088.51047     31456.15263
  17642269.8594  -35673770.90446 -27539791.11061
 97  2  6  5 36 29.9790000  0  6G30G 5G 6G17G10G24
  14737421.3744      39054.10647     26504.90563
  16281359.1094  -41178108.29946 -31872102.20661
  14774579.9054  -35479384.27847 -27461654.46363
  16572052.8824  -18459550.48246 -14165858.67861
  15564276.7414      60280.96347     40177.54863
  17648405.1094  -35641522.92646 -27514662.81561
 97  2  6  5 36 59.9790000  0  6G30G 5G 6G17G10G24
  14739008.7414      47385.51047     32996.89863
  16291182.0624  -41126482.27346 -31831874.14861
  14757146.3044  -35570999.58247 -27533043.01163
  16550618.241   -18572203.355 6 -14253640.13121
  15566500.6554      71982.35147     49295.51063
  17654541.4374  -35609275.59046 -27489535.02661
 97  2  6  5 37 29.9790000  0  6G30G 5G 6G17G10G24
  14740691.7104      56232.50147     39890.64763
  16301047.7574  -41074647.68446 -31791483.56861
  14739752.8124  -35662404.49247 -27604267.61063
  16529219.319   -18684659.733 6 -14341268.45321
  15568822.0854      84180.62447     58800.65862
  17660674.3354  -35577048.84546 -27464423.29861
 97  2  6  5 37 59.9790000  0  6G30G 5G 6G17G10G24
  14742456.054       65516.679 7     47125.04523
  16310944.6164  -41022651.92746 -31750967.40861
  14722385.4054  -35753668.08247 -27675382.10463
  16507845.202   -18796964.440 6 -14428778.59321
  15571225.1094      96798.10847     68632.46362
  17666785.8044  -35544921.28046 -27439388.82561
 97  2  6  5 38 29.9790000  0  6G30G 5G 6G17G10G24
  14744326.0934      75349.54947     54787.00963
  16320892.7804  -40970351.85646 -31710214.11961
  14705069.9054  -35844668.79947 -27746291.75363
  16486529.968   -18908977.898 6 -14516061.76221
  15573725.8354     109933.76647     78868.04062
  17672907.3594  -35512770.50446 -27414336.28561
 97  2  6  5 38 59.9790000  0  6G30G 5G 6G17G10G24
  14746288.9374      85652.52047     62815.28464
  16330891.1164  -40917818.65346 -31669279.16161
  14687787.7964  -35935478.52947 -27817052.56663
  16465258.241   -19020778.767 6 -14603179.28321
  15576307.2734     123496.90147     89436.72062
  17679014.9684  -35480673.80246 -27389325.88361
 97  2  6  5 39 29.9790000  0  6G30G 5G 6G17G10G24
  14748348.9914      96480.80347     71252.90163
  16340941.3664  -40865010.82646 -31628130.21361
  14670550.6794  -36026065.62747 -27887639.92063
  16444026.7654  -19132328.92146 -14690101.45861
  15578974.3044     137513.80947    100358.99163
  17685115.8044  -35448604.69546 -27364336.96661
 97  2  6  5 39 59.9790000  0  7G30G 5G 6G17G26G10G24
  14750502.1554     107788.21247     80063.86063
  16351032.8124  -40811973.87246 -31586802.72961
  14653346.2184  -36116470.54947 -27958085.31663
  16422843.0304  -19243670.25046 -14776860.91961
  18273168.3194         -0.20253
  15581717.0934     151930.23047    111592.56662
  17691204.3354  -35416616.33846 -27339410.98461
 97  2  6  5 40 29.9790000  0  7G30G 5G 6G17G26G10G24
  14752738.0694     119539.62447     89220.79463
  16361153.7804  -40758784.89446 -31545356.78461
  14636171.2804  -36206731.53847 -28028418.55063
  16401682.5304  -19354860.43246 -14863502.60861
  18249444.7884    -124669.20343
  15584529.7344     166711.93047    123110.76962
  17697267.8354  -35384743.46346 -27314574.98161
 97  2  6  5 40 59.9790000  0  7G30G 5G 6G17G26G10G24
  14755069.1324     131801.89547     98775.77863
  16371314.3744  -40705398.40846 -31503756.92361
  14619037.2654  -36296769.19147 -28098577.75563
  16380561.0154  -19465846.23846 -14949985.04561
  18225717.0074    -249355.22443        -0.33771
  15587428.8354     181947.85647    134982.92363
  17703329.2734  -35352906.49346 -27289766.96461
 97  2  6  5 41 29.9790000  0  7G30G 5G 6G17G26G10G24
  14757502.2024     144583.20347    108735.22363
  16381513.8664  -40651796.37646 -31461989.11061
  14601952.2804  -36386550.36747 -28168537.10763
  16359489.218   -19576601.734 6 -15036288.00421
  18201989.913     -374043.803 3    -97160.22021
  15590420.5304     197662.72947    147228.27863
  17709379.5304  -35321087.29846 -27264972.78561
 97  2  6  5 41 59.9790000  0  7G30G 5G 6G17G26G10G24
  14760005.8744     157738.22647    118985.88163
  16391725.5934  -40598129.88146 -31420171.06561
  14584891.6484  -36476205.64047 -28238398.36263
  16338427.1094  -19687265.42246 -15122519.39061
  18178235.9914    -498865.62043   -194423.93461
  15593476.3124     213725.86847    159745.01063
  17715404.0234  -35289419.24746 -27240296.38461
 97  2  6  5 42 29.9790000  0  7G30G 5G 6G17G26G10G24
  14762595.3744     171343.02347    129587.01064
  16401966.2884  -40544323.14946 -31378243.75361
  14567870.0464  -36565648.94147 -28308094.44063
  16317395.2344  -19797780.09046 -15208634.70461
  18154472.8824    -623751.96843   -291737.96361
  15596613.5624     230220.94247    172598.31262
  17721421.2414  -35257815.97546 -27215670.46161
 97  2  6  5 42 59.9790000  0  7G30G 5G 6G17G26G10G24
  14765280.8124     185442.82247    140573.84663
  16412246.0624  -40490295.13946 -31336144.01261
  14550900.4444  -36654824.20547 -28377581.66163
  16296404.8354  -19908100.85446 -15294598.92561
  18130713.2024    -748623.74543   -389040.58561
  15599840.6554     247192.00647    185822.52263
  17727432.5074  -35226235.19245 -27191062.06361
 97  2  6  5 43 29.9790000  0  7G30G 5G 6G17G26G10G24
  14768101.4994     200261.42647    152120.80064
  16422610.8044  -40435821.99746 -31293697.41661
  14534021.0774  -36743525.69347 -28446699.70963
  16275488.0384  -20018011.83446 -15380243.81561
  18106997.898     -873236.898 3   -486141.70621
  15603200.7414     264844.42747    199577.65863
  17733477.8044  -35194474.40745 -27166313.39161
 97  2  6  5 43 59.9790000  0  7G30G 5G 6G17G26G10G24
  14771015.2414     215587.74147    164063.37563
  16433020.8664  -40381128.38946 -31251079.02961
  14517192.3274  -36831973.48447 -28515620.05763
  16254609.5544  -20127724.34846 -15465734.06361
  18083293.624     -997806.986 3   -583209.25221
  15606652.9684     282970.07647    213701.53263
  17739515.468   -35162728.932 5 -27141576.67421
 97  2  6  5 44 29.9790000  0  7G30G 5G 6G17G26G10G24
  14774030.7024     231443.52747    176418.50863
  16443478.6714  -40326166.79646 -31208251.83061
  14500414.4844  -36920135.00647 -28584317.34263
  16233779.0154  -20237189.06946 -15551031.26861
  18059606.491    -1122291.771 4   -680210.38021
  15610200.5304     301605.78047    228222.86163
  17745559.7344  -35130958.99845 -27116820.88861
 97  2  6  5 44 59.9790000  0  7G30G 5G 6G17G26G10G24
  14777133.5694     247747.18747    189122.65263
  16453970.2344  -40271018.76546 -31165279.35061
  14483674.6404  -37008102.78347 -28652863.66963
  16212989.0154  -20346451.38646 -15636170.73561
  18035920.4444   -1246741.11244   -777183.86461
  15613825.6794     320663.73647    243073.21863
  17751592.6554  -35099246.27345 -27092109.67161
 97  2  6  5 45 29.9790000  0  7G30G 5G 6G17G26G10G24
  14780320.9844     264482.82447    202163.39463
  16464498.7184  -40215712.88346 -31122183.86061
  14466967.7024  -37095895.73347 -28721273.76863
  16192238.9134  -20455500.21246 -15721143.85461
  18012239.585    -1371186.953 3   -874154.61521
  15617526.7184     340125.79047    258238.45163
  17757616.5774  -35067597.02945 -27067447.93461
 97  2  6  5 45 59.9790000  0  7G30G 5G 6G17G26G10G24
  14783589.9684     281668.33047    215554.66963
  16475058.351   -40160218.648 6 -31078941.61121
  14450300.8514  -37183485.88947 -28789525.83563
  16171532.5464  -20564310.58946 -15805931.15061
  17988559.335    -1495615.308 4   -971111.75621
  15621311.4524     360010.27947    273732.85463
  17763636.5854  -35035991.38445 -27042820.16661
 97  2  6  5 46 29.9780000  0  7G30G 5G 6G17G26G10G24
  14786940.2684     299279.31147    229277.50563
  16485650.7294  -40104555.88446 -31035568.03661
  14433667.4944  -37270897.24147 -28857638.58263
  16150863.8074  -20672909.15946 -15890553.40961
  17964885.510    -1620029.832 4  -1068058.13321
  15625169.9864     380270.26847    289519.86863
  17769628.3304  -35004476.34945 -27018263.01161
 97  2  6  5 46 59.9780000  0  7G30G 5G 6G17G26G10G24
  14790384.8154     317371.53747    243375.33663
  16496280.2214  -40048692.59646 -30992038.21061
  14417073.2444  -37358097.21247 -28925586.61063
  16130243.3154  -20781275.38946 -15974994.60061
  17941218.0024   -1744402.47144  -1164971.83561
  15629101.9324     400941.26947    305627.13363
  17775616.526   -34973007.230 5 -26993741.62821
 97  2  6  5 47 29.9780000  0  7G30G 5G 6G17G26G10G24
  14793937.2684     336033.86047    257917.39363
  16506961.7364  -39992555.30446 -30948294.88361
  14400537.0264  -37444988.22847 -28993293.89363
  16109679.502   -20889350.463 6 -16059208.92121
  17917574.065    -1868661.699 3  -1261797.19621
  15633130.6664     422118.83747    322129.12862
  17781616.158   -34941497.258 5 -26969188.41421
 97  2  6  5 47 59.9780000  0  7G30G 5G 6G17G26G10G24
  14797559.6514     355089.74447    272766.13163
  16517662.2444  -39936333.44446 -30904485.65561
  14384031.2914  -37531731.71047 -29060886.20963
  16089132.869   -20997325.643 6 -16143345.39121
  17893918.2914   -1992968.64144  -1358659.72861
  15637225.5724     443625.60147    338887.64962
  17787584.783   -34910123.965 5 -26944741.70621
 97  2  6  5 48 29.9780000  0  7G30G 5G 6G17G26G10G24
  14801291.3934     374674.50447    288026.96963
  16528398.4014  -39879903.34546 -30860514.16361
  14367582.0264  -37618172.05647 -29128242.32763
  16068629.1584  -21105059.77346 -16227294.05261
  17870281.4864   -2117171.70344  -1455441.33361
  15641405.6824     465608.31647    356017.02962
  17793558.7364  -34878730.39145 -26920279.19161
 97  2  6  5 48 59.9780000  0  7G30G 5G 6G17G26G10G24
  14805098.7364     394706.69047    303636.47163
  16539160.7444  -39823352.09146 -30816448.25861
  14351180.1274  -37704368.67147 -29195408.52563
  16048158.4164  -21212636.20046 -16311119.83661
  17846652.830    -2241349.655 4  -1552203.34421
  15645672.2214     488006.34847    373470.03762
  17799521.768   -34847385.805 5 -26895854.86021
 97  2  6  5 49 29.9780000  0  7G30G 5G 6G17G26G10G24
  14809000.4714     415193.18447    319599.96663
  16549950.0414  -39766647.10146 -30772262.56161
  14334832.7364  -37790270.81147 -29262345.26263
  16027722.252   -21320017.904 6 -16394793.84921
  17823036.018    -2365468.699 4  -1648919.46321
  15650015.2914     510846.55247    391267.59862
  17805487.369   -34816068.792 5 -26871452.00421
 97  2  6  5 49 59.9780000  0  7G30G 5G 6G17G26G10G24
  14812983.2444     436133.79247    335917.32563
  16560775.721   -39709769.516 6 -30727942.38921
  14318545.0024  -37875865.73447 -29329042.59963
  16007330.744   -21427174.988 6 -16478292.83521
  17799430.2764   -2489503.79644  -1745570.17961
  15654446.3304     534121.08947    409403.59762
  17811439.8544  -34784768.81845 -26847062.42461
 97  2  6  5 50 29.9780000  0  7G30G 5G 6G17G26G10G24
  14817053.2294     457515.68547    352578.51963
  16571633.1354  -39652722.15846 -30683489.91461
  14302310.9554  -37961180.94747 -29395521.99063
  15986981.1514  -21534121.91846 -16561628.08461
  17775840.9244   -2613467.58744  -1842165.33061
  15658951.5264     557814.41947    427865.92562
  17817390.4404  -34753506.45245 -26822702.15761
 97  2  6  5 50 59.9780000  0  7G30G 5G 6G17G26G10G24
  14821200.4084     479323.60547    369571.69763
  16582518.7214  -39595509.27346 -30638908.45761
  14286124.1584  -38046233.69747 -29461796.87563
  15966667.1354  -21640871.05946 -16644809.21961
  17752261.5654   -2737369.72444  -1938712.43861
  15663537.9164     581898.00247    446632.35562
  17823328.658   -34722300.140 5 -26798385.56821
 97  2  6  5 51 29.9780000  0  7G30G 5G 6G17G26G10G24
  14825438.0414     501572.57547    386908.55563
  16593441.4944  -39538116.23946 -30594186.62361
  14269989.7214  -38131024.65247 -29527867.75163
  15946397.1354  -21747400.72046 -16727819.35061
  17728703.104    -2861192.062 4  -2035197.37421
  15668188.4014     606360.85447    465694.31462
  17829261.721   -34691134.345 5 -26774100.52921
 97  2  6  5 51 59.9780000  0  8G30G 5G 6G17G26G10G24G23
  14829757.4244     524282.18847    404604.34963
  16604394.0334  -39480545.12946 -30549326.02161
  14253902.5024  -38215560.00147 -29593739.46063
  15926167.3154  -21853717.37446 -16810663.46661
  17705157.791    -2984916.534 4  -2131606.05221
  15672921.2764     631205.13447    485053.49262
  17835179.6824  -34660005.92945 -26749844.64461
  18134144.1514         -0.68853
 97  2  6  5 52 29.9780000  0  8G30G 5G 6G17G26G10G24G23
  14834176.1434     547496.55147    422693.46263
  16615393.1904  -39422751.97946 -30504292.40661
  14237872.1514  -38299799.88247 -29659380.92763
  15905979.4944  -21959791.14446 -16893318.33961
  17681642.6514   -3108496.72345  -2227902.29561
  15677729.3074     656479.38347    504747.70762
  17841105.955   -34628875.480 5 -26725587.15721
  18105318.174     -151487.779 3        -0.39131
 97  2  6  5 52 59.9780000  0  8G30G 5G 6G17G26G10G24G23
  14838684.1434     571185.16247    441152.10563
  16626427.7764  -39364770.80346 -30459112.28461
  14221893.7764  -38383766.06247 -29724809.10863
  15885837.6274  -22065641.33746 -16975798.99661
  17658147.9164   -3231959.04244  -2324106.70361
  15682614.1514     682158.01447    524757.02562
  17847021.0804  -34597771.18045 -26701350.03961
  18076504.2444    -302913.20344   -117994.20661
 97  2  6  5 53 29.9780000  0  8G30G 5G 6G17G26G10G24G23
  14843272.9634     595304.92847    459946.71463
  16637484.5184  -39306659.30446 -30413830.60861
  14205956.9944  -38467520.91247 -29790072.62863
  15865726.7604  -22171311.98946 -17058139.74161
  17634664.7364   -3355367.19245  -2420268.88861
  15687571.9324     708200.91647    545050.18762
  17852927.5104  -34566750.00345 -26677177.70661
  18047688.9714    -454325.47544   -235977.80261
 97  2  6  5 53 59.9780000  0  8G30G 5G 6G17G26G10G24G23
  14847947.2914     619872.70847    479090.42763
  16648571.8774  -39248401.52646 -30368434.94361
  14190062.7914  -38551039.62247 -29855152.14363
  15845658.2994  -22276779.93746 -17140322.54961
  17611196.5264   -3478712.29744  -2516381.93361
  15692604.0024     734643.28247    565654.62362
  17858813.705   -34535805.576 5 -26653065.18821
  18018886.1824    -605687.84243   -353922.51961
 97  2  6  5 54 29.9780000  0  8G30G 5G 6G17G26G10G24G23
  14852712.9554     644912.75247    498602.14063
  16659689.2764  -39189975.67646 -30322908.31961
  14174221.8224  -38634283.36847 -29920017.41063
  15825637.6354  -22381997.30546 -17222310.09561
  17587739.135    -3601968.417 4  -2612425.69921
  15697718.0804     761514.73447    586593.41662
  17864698.2524  -34504893.34445 -26628977.73361
  17990104.291     -756948.224 4   -471787.76321
 97  2  6  5 54 59.9780000  0  8G30G 5G 6G17G26G10G24G23
  14857565.8464     670409.33147    518469.60463
  16670834.6434  -39131408.79846 -30277271.79361
  14158433.6194  -38717252.64847 -29984668.80663
  15805662.408   -22486957.137 6 -17304096.94521
  17564296.7914   -3725147.93944  -2708409.73461
  15702907.9944     788802.36247    607856.49962
  17870572.8544  -34474017.19045 -26604918.40861
  17961339.3464    -908095.29944   -589564.70061
 97  2  6  5 55 29.9780000  0  8G30G 5G 6G17G26G10G24G23
  14862506.7294     696373.42847    538701.36763
  16682008.4404  -39072691.20646 -30231517.84261
  14142702.5964  -38799927.17047 -30049090.51363
  15785738.190   -22591656.811 6 -17385681.08121
  17540877.8614   -3848218.42444  -2804308.80661
  15708180.0024     816512.83847    629449.07562
  17876445.9014  -34443149.44045 -26580865.63461
  17932600.9014   -1059106.08144   -707235.43261
 97  2  6  5 55 59.9780000  0  8G30G 5G 6G17G26G10G24G23
  14867531.9474     722780.03747    559277.93963
  16693205.9404  -39013836.95846 -30185657.38461
  14127026.6664  -38882290.14447 -30113269.45863
  15765862.2914  -22696117.75346 -17467079.22461
  17517485.549    -3971149.403 5  -2900099.18321
  15713532.8694     844638.59047    651365.24362
  17882317.8464  -34412283.25645 -26556814.08261
  17903894.401    -1209975.749 4   -824796.21121
 97  2  6  5 56 29.9780000  0  8G30G 5G 6G17G26G10G24G23
  14872635.7294     749603.34847    580179.20863
  16704429.783   -38954861.964 5 -30139702.86921
  14111411.3854  -38964361.54847 -30177221.21163
  15746021.6044  -22800371.75546 -17548316.10661
  17494115.736    -4093944.103 5  -2995783.36921
  15718960.2994     873154.65547    673585.54762
  17888199.6744  -34381417.80645 -26532763.10561
  17875204.135    -1360725.146 4   -942263.28321
 97  2  6  5 56 59.9780000  0  8G30G 5G 6G17G26G10G24G23
  14877819.3614     776854.49647    601413.85963
  16715681.252   -38895746.062 6 -30093638.53521
  14095848.2134  -39046139.74747 -30240944.50163
  15726222.541   -22904427.109 6 -17629398.18121
  17470775.4244   -4216602.66545  -3091361.46461
  15724462.3854     902071.28047    696117.96662
  17894067.5494  -34350563.33745 -26508720.68261
  17846541.0574   -1511361.07944  -1059641.93561
 97  2  6  5 57 29.9780000  0  8G30G 5G 6G17G26G10G24G23
  14883091.322      804551.209 7    622995.69123
  16726955.0884  -38836480.87645 -30047457.87561
  14080346.8694  -39127608.30247 -30304426.48663
  15706458.002   -23008284.968 6 -17710326.35821
  17447459.8464   -4339115.27945  -3186825.84861
  15730046.2834     931403.58347    718974.31362
  17899935.588   -34319723.231 5 -26484689.44521
  17817899.6824   -1661875.03844  -1176925.53461
 97  2  6  5 57 59.9780000  0  8G30G 5G 6G17G26G10G24G23
  14888434.6904     832641.64447    644884.32263
  16738254.5494  -38777114.84246 -30001198.64061
  14064891.7834  -39208819.78647 -30367708.16763
  15686728.3544  -23111974.79046 -17791123.61061
  17424162.5884   -4461554.17245  -3282232.75461
  15735697.8224     961103.45447    742117.06462
  17905791.690   -34288965.400 5 -26460722.32421
  17789273.7364   -1812318.04444  -1294153.86961
 97  2  6  5 58 29.9780000  0  8G30G 5G 6G17G26G10G24G23
  14893869.9404     861204.09147    667140.76663
  16749585.2914  -38717578.65145 -29954806.81461
  14049499.3304  -39289714.47047 -30430742.98463
  15667044.1434  -23215400.19946 -17871714.82161
  17400886.236    -4583879.372 5  -3377551.08921
  15741430.1274     991226.23947    765589.35662
  17911630.533   -34258246.493 5 -26436785.51421
  17760667.9634   -1962633.53544  -1411282.84561
 97  2  6  5 58 59.9780000  0  8G30G 5G 6G17G26G10G24G23
  14899397.6584     890248.73147    689772.94363
  16760946.9244  -38657870.58945 -29908281.06461
  14034169.6904  -39370263.82647 -30493508.72463
  15647418.9714  -23318533.50946 -17952078.39761
  17377634.1584   -4706069.65445  -3472764.27161
  15747243.4244    1021773.16347
  17917468.182   -34227573.099 5
  17732090.4554   -2112809.35444  -1528302.96561
 97  2  6  5 59 29.9780000  0  8G30G 5G 6G17G26G10G24G23
  14905010.0964     919738.47147    712751.94963
  16772334.9474  -38598013.67645 -29861639.31361
  14018907.5804  -39450470.23447 -30556007.21263
  15627849.276   -23421385.034 6 -18032222.40122
  17354409.1354   -4828114.87245  -3567864.44361
  15753129.3154    1052707.92147    813497.15462
  17923300.8934  -34196946.38945
  17703534.6434   -2262862.96444  -1645227.86761
 97  2  6  5 59 59.9780000  0  8G30G 5G 6G17G26G10G24G23
  14910696.8544     949611.71247    736029.78463
  16783744.0104  -38538056.66945 -29814919.58861
  14003700.0884  -39530389.75247 -30618282.16563
  15608318.705   -23524006.828 6 -18112187.45121
  17331204.0264   -4950051.01345  -3662879.57961
  15759076.8154    1083965.02647    837853.33562
  17929110.307   -34166403.851 5        -0.38431
  17674993.7994   -2412855.05444  -1762104.83761
 97  2  6  6  0 29.9780000  0  8G30G 5G 6G17G26G10G24G23
  14916448.4944     979837.33347
  16795167.2604  -38478028.12145 -29768144.10261
  13988542.0884  -39610043.08947 -30680349.69763
  15588822.6664  -23626450.66046 -18192013.81062
  17308021.6664   -5071877.46845  -3757809.27461
  15765079.1434    1115516.94147    862439.23662
  17934909.721   -34135951.140 5
  17646458.6904   -2562809.65945  -1878952.59361
 97  2  6  6  0 59.9780000  0  8G30G 5G 6G17G26G10G24G23
  14922265.5184    1010408.68347    783404.03263
  16806607.830   -38417924.243 5 -29721309.94621
  13973433.6974  -39689438.87147 -30742216.54163
  15569356.330   -23728744.814 6 -18271723.50821
  17284863.0024   -5193577.87245  -3852640.74261
  15771138.9324    1147368.51447    887258.63762
  17940689.682   -34105560.261 5     47410.16821
  17617924.7134   -2712716.40245  -1995763.03861
 97  2  6  6  1 29.9780000  0  8G30G 5G 6G17G26G10G24G23
  14928153.9944    1041357.43347    807519.91362
  16818064.7524  -38357713.64645 -29674392.60261
  13958374.3854  -39768569.14747 -30803876.50363
  15549924.354   -23830873.384 6 -18351304.19121
  17261733.1274   -5315126.61745  -3947354.04261
  15777269.4244    1179566.64947    912348.07862
  17946473.7294  -34075183.77745     71080.14661
  17589421.197    -2862540.308 5  -2112508.94021
 97  2  6  6  1 59.9780000  0  8G30G 5G 6G17G26G10G24G23
  14934122.2294    1072723.66947    831961.11163
  16829544.6514  -38297377.71345 -29627377.61661
  13943368.4864  -39847430.65647 -30865327.03363
  15530525.4474  -23932810.31346 -18430735.53261
  17238635.307    -5436503.402 5  -4041933.31521
  15783471.4634    1212150.64347    937738.20862
  17952251.494   -34044800.050 5     94755.76421
  17560934.5334   -3012238.87645  -2229157.18861
 97  2  6  6  2 29.9780000  0  8G30G 5G 6G17G26G10G24G23
  14940169.9714    1104505.91947    856726.48262
  16841044.6044  -38236927.24245 -29580273.36061
  13928411.6194  -39926026.12147 -30926570.26363
  15511164.7214  -24034554.17146 -18510016.48562
  17215571.7834   -5557716.59345  -4136385.14961
  15789743.3384    1245113.13747    963423.25962
  17958033.580   -34014419.328 5    118429.03521
  17532478.0724   -3161804.15045  -2345701.57461
 97  2  6  6  2 59.9780000  0  8G30G 5G 6G17G26G10G24G23
  14946305.7684    1136736.84047    881841.47562
  16852576.2524  -38176340.91145 -29533063.24561
  13913514.2604  -40004317.24747 -30987576.33663
  15491847.8384  -24136065.71046 -18589116.41061
  17192539.682    -5678747.521 5  -4230694.94621
  15796090.4634    1278483.40347    989426.06262
  17963815.072   -33984031.475 5    142107.86721
  17504045.510    -3311199.047 5  -2462113.15621
 97  2  6  6  3 29.9780000  0  8G30G 5G 6G17G26G10G24G23
  14952510.4324    1169349.34947    907253.81162
  16864117.4084  -38115696.02345 -29485807.50761
  13898666.7364  -40082341.21247 -31048374.23863
  15472564.9014  -24237392.27746 -18668072.17362
  17169529.7214   -5799655.56145  -4324908.98261
  15802509.6904    1312198.52247   1015697.57562
  17969584.1904  -33953715.51445    165730.68761
  17475640.002    -3460475.045 5  -2578432.11721
 97  2  6  6  3 59.9770000  0  8G30G 5G 6G17G26G10G24G23
  14958786.7474    1202344.67347    932964.44462
  16875667.810   -38054994.796 5 -29438507.87121
  13883876.4894  -40160063.99647 -31108937.45063
  15453324.3184  -24338512.95346 -18746867.48262
  17146548.841    -5920429.939 5  -4419018.86421
  15808988.0914    1346248.85347   1042230.29162
  17975339.7714  -33923479.76745    189290.99061
  17447258.9114   -3609614.93145  -2694645.01661
 97  2  6  6  4 29.9770000  0  8G30G 5G 6G17G26G10G24G23
  14965157.6774    1235809.88147    959041.21962
  16887249.372   -37994132.071 5 -29391082.38621
  13869164.6074  -40237370.32247 -31169176.15263
  15434138.818   -24439342.093 6 -18825435.62722
  17123608.747    -6040985.969 5  -4512958.61121
  15815549.3574    1380733.14047   1069101.15962
  17981093.896   -33893237.480 5    212856.38921
  17418919.9664   -3758534.22145  -2810686.02361
 97  2  6  6  4 59.9770000  0  8G30G 5G 6G17G26G10G24G23
  14971598.8024    1269659.26847    985417.35362
  16898853.1774  -37933161.42545 -29343572.80461
  13854521.8884  -40314325.67847 -31229141.36363
  15414992.7864  -24539943.89246 -18903826.63262
  17100697.544    -6161382.157 5  -4606773.80621
  15822181.9434    1415582.95447   1096256.85662
  17986838.0914  -33863057.32745    236373.39361
  17390610.3964   -3907295.62945  -2926603.98161
 97  2  6  6  5 29.9770000  0  8G30G 5G 6G17G26G10G24G23
  14978116.7324    1303921.45747   1012115.14562
  16910479.8574  -37872046.63045 -29295950.90561
  13839947.3414  -40390912.94947 -31288819.76163
  15395901.6384  -24640274.84046 -18982006.60862
  17077827.0684   -6281570.41345  -4700426.96061
  15828886.1854    1450811.41847   1123707.59362
  17992575.6614  -33832902.77545    259870.43261
  17362340.5834   -4055875.62745  -3042380.59161
 97  2  6  6  5 59.9770000  0  7G30G 5G 6G17G26G10G23
  14984731.4354    1338667.05247   1039189.61562
  16922154.2784  -37810717.20245 -29248161.75861
  13825451.3334  -40467088.90547 -31348177.64263
  15376871.8804  -24740274.19946 -19059928.17062
  17055008.396    -6401488.426 5  -4793869.55621
  15835668.6854    1486466.96647   1151491.13562
  17334108.646    -4204218.619 5  -3157972.52021
 97  2  6  6  6 29.9770000  0  7G30G 5G 6G17G26G10G23
  14991406.0214    1373752.49947   1066528.91362
  16933841.685   -37749302.261 5 -29200305.96321
  13811007.1694  -40542993.17447 -31407323.82263
  15357879.7634  -24840079.26646 -19137698.33762
  17032213.1464   -6521267.47345  -4887203.86861
  15842508.9434    1522403.47647   1179493.60762
  17305897.841    -4352463.913 5  -3273488.31821
 97  2  6  6  6 59.9770000  0  7G30G 5G 6G17G26G10G23
  14998160.0284    1409227.83247   1094172.02462
  16945548.5134  -37687770.02345 -29152358.78261
  13796620.8724  -40618592.01747 -31466232.01363
  15338930.2164  -24939652.03046 -19215287.48062
  17009454.8184   -6640866.42845  -4980397.84661
  15849404.7164    1558645.49247   1207734.13262
  17277714.935    -4500578.185 5  -3388902.01021
 97  2  6  6  7 29.9770000  0  7G30G 5G 6G17G26G10G23
  15004978.2004    1445074.69747   1122104.63862
  16957267.4744  -37626176.25945 -29104363.65061
  13782288.4974  -40693907.95847 -31524919.77363
  15320022.5684  -25039025.28946 -19292721.19062
  16986722.3104   -6760319.41445  -5073478.07761
  15856358.4114    1595165.56247   1236191.32762
  17249547.4824   -4648588.39445  -3504234.63561
 97  2  6  6  7 59.9770000  0  7G30G 5G 6G17G26G10G23
  15011874.1614    1481300.56847   1150332.57862
  16969002.107   -37564514.022 5 -29056315.16421
  13768017.5684  -40768908.93747 -31583362.09563
  15301147.9824  -25138200.57146 -19370000.62162
  16964020.1694   -6879623.58545  -5166442.34961
  15863362.8644    1631992.98747   1264888.01162
  17221406.286    -4796468.584 5  -3619465.92521
 97  2  6  6  8 29.9770000  0  7G30G 5G 6G17G26G10G23
  15018848.1614    1517953.75147   1178893.48262
  16980758.5914  -37502742.31745 -29008181.38161
  13753818.2004  -40843527.26047 -31641506.25063
  15282319.9194  -25237131.44346 -19447089.60562
  16941357.7244   -6998719.64245  -5259244.45061
  15870440.0134    1669186.55547   1293870.00462
  17193299.8644   -4944172.88245  -3734560.16061
 97  2  6  6  8 59.9770000  0  7G30G 5G 6G17G26G10G23
  15025882.3494    1554926.41647   1207703.34362
  16992507.6224  -37441000.66545 -28960071.01261
  13739669.9434  -40917873.46547 -31699438.36163
  15263520.2864  -25335931.76446 -19524076.86762
  16918713.7784   -7117707.72945  -5351962.42561
  15877570.6074    1706645.36747   1323058.67862
  17165206.747    -5091803.578 5  -3849597.04921
 97  2  6  6  9 29.9770000  0  7G30G 5G 6G17G26G10G23
  15033007.3574    1592360.56847   1236872.79762
  17004280.325   -37379139.228 5 -28911867.30321
  13725606.0834  -40991779.57647 -31757027.55163
  15244775.6934  -25434441.48746 -19600837.69462
  16896123.318    -7236415.814 5  -5444462.21821
  15884777.6774    1744534.10347   1352582.36162
  17137159.9894   -5239185.19945  -3964439.87261
 97  2  6  6  9 59.9770000  0  7G30G 5G 6G17G26G10G23
  15040182.5524    1630064.50347   1266252.46362
  17016043.8574  -37317325.28345 -28863700.59161
  13711592.4664  -41065422.10147 -31814411.34763
  15226047.2244  -25532851.41246 -19677520.73662
  16873554.4194   -7355013.02845  -5536875.62561
  15892033.8104    1782668.05847   1382297.12862
  17109128.2944   -5386503.53045  -4079233.35561
 97  2  6  6 10 29.9770000  0  7G30G 5G 6G17G26G10G23
  15047411.0284    1668054.80347   1295855.28362
  17027800.4824  -37255535.20745 -28815552.50261
  13697634.2244  -41138778.89447 -31871572.48863
  15207345.482   -25631129.673 6 -19754101.20922
  16851014.0524   -7473461.76345  -5629173.33461
  15899343.0054    1821068.54346   1412219.57462
  17081113.9504   -5533735.00945  -4193959.16261
 97  2  6  6 10 59.9770000  0  7G30G 5G 6G17G26G10G23
  15054720.8184    1706479.50647   1325796.59462
  17039586.6464  -37193595.17445 -28767287.53161
  13683756.4744  -41211699.03547 -31928393.38463
  15188702.5524  -25729112.53846 -19830451.50362
  16828538.4434   -7591600.18145  -5721229.23461
  15906729.1934    1859879.13246   1442461.59062
  17053141.7784   -5680709.44645  -4308484.69561
 97  2  6  6 11 29.9770000  0  7G30G 5G 6G17G26G10G23
  15062101.2004    1745248.48247   1356006.17862
  17051391.9824  -37131556.08245 -28718945.38761
  13669946.5754  -41284273.23747 -31984944.72063
  15170095.1304  -25826884.81046 -19906637.67262
  16806095.2164   -7709515.28845  -5813111.12761
  15914175.6304    1899014.81246   1472956.91562
  17025202.6694   -5827526.19445  -4422887.34961
 97  2  6  6 11 59.9770000  0  7G30G 5G 6G17G26G10G23
  15069550.4274    1784394.49847   1386509.54562
  17063221.8644  -37069393.71545 -28670507.18361
  13656205.9974  -41356482.68547 -32041211.82463
  15151536.4434  -25924408.23646 -19982629.94262
  16783704.7394   -7827180.31045  -5904798.15261
  15921686.0684    1938496.84646   1503722.13162
  16997297.0604   -5974171.79645  -4537156.63961
 97  2  6  6 12 29.9770000  0  7G30G 5G 6G17G26G10G23
  15077067.9034    1823911.75447   1417302.21362
  17075071.9664  -37007128.19345 -28621988.60261
  13642528.3494  -41428358.54047 -32097218.99563
  15133026.7784  -26021681.68046 -20058427.41862
  16761363.6304   -7944597.88945  -5996292.34861
  15929262.6854    1978304.61646   1534741.16962
  16969421.911    -6120649.940 5  -4651295.44721
 97  2  6  6 12 59.9770000  0  7G30G 5G 6G17G26G10G23
  15084650.8804    1863762.49747   1448354.73062
  17086935.1694  -36944788.32545 -28573412.07561
  13628907.7084  -41499936.80447 -32152994.27363
  15114557.4504  -26118740.06746 -20134057.32162
  16739062.6304   -8061796.07845  -6087615.60461
  15936895.8024    2018407.50146   1565990.15962
  16941575.7554   -6266988.91245  -4765325.82561
 97  2  6  6 13 29.9770000  0  7G30G 5G 6G17G26G10G23
  15092298.9744    1903939.97547   1479661.84762
  17098804.028   -36882407.071 5 -28524803.32821
  13615341.7634  -41571222.38647 -32208541.49163
  15096126.4894  -26215593.97547 -20209527.89162
  16716801.232    -8178780.666 5  -6178772.40421
  15944583.6854    2058804.85946   1597468.61162
  16913754.4744   -6413192.15045  -4879250.42061
 97  2  6  6 13 59.9770000  0  7G30G 5G 6G17G26G10G23
  15100010.5604    1944481.58447
  17110687.5604  -36819973.43645 -28476153.72561
  13601839.1534  -41642174.18847 -32263828.61363
  15077742.7084  -26312208.93447 -20284812.24962
  16694585.1614   -8295510.00445  -6269730.33161
  15952330.1934    2099516.39046
  16885970.1464   -6559202.65345  -4993024.85261
 97  2  6  6 14 29.9770000  0  7G30G 5G 6G17G26G10G23
  15107794.5524    1985374.14847
  17122578.2944  -36757483.82445 -28427460.52161
  13588403.9114  -41712785.69547 -32318850.57363
  15059399.3254  -26408594.09547 -20359917.55662
  16672422.0684   -8411976.43345  -6360483.36261
  15960134.7784    2140531.74146
  16858225.4504   -6705007.57145  -5106639.05461
 97  2  6  6 14 59.9770000  0  7G30G 5G 6G17G26G10G23
  15115639.5444    2026593.32647
  17134473.1464  -36694966.64145 -28378745.82761
  13575034.0684  -41783044.01047 -32373597.31863
  15041098.6384  -26504761.67247 -20434853.30962
  16650303.5834   -8528214.60645  -6451058.54161
  15967992.4664    2181835.30146
  16830515.3494   -6850617.92445  -5220101.67161
 97  2  6  6 15 29.9770000  0  7G30G 5G 6G17G26G10G23
  15123548.6074    2068173.33847
  17146373.7634  -36632419.07945 -28330007.46061
  13561738.9274  -41852911.81647 -32428039.76163
  15022844.3644  -26600689.21447 -20509602.03362
  16628227.880    -8644217.972 5  -6541450.76021
  15975912.9194    2223429.50346
  16802846.8804   -6996020.25745  -5333402.18961
 97  2  6  6 15 59.9770000  0  7G30G 5G 6G17G26G10G23
  15131512.1614    2110007.16647
  17158270.1224  -36569917.67545 -28281305.06761
  13548502.6934  -41922465.24247 -32482237.22263
  15004621.028   -26696453.472 7 -20584223.49722
  16606181.755    -8760077.731 5  -6631731.06921
  15983861.1534    2265218.43246
  16775200.8184   -7141304.39245  -5446610.61261
 97  2  6  6 16 29.9770000  0  7G30G 5G 6G17G26G10G23
  15139543.2164    2152211.68347
  17170178.5284  -36507337.15245 -28232541.01761
  13535352.7714  -41991571.10147 -32536085.93863
  14986452.286   -26791929.868 7 -20658620.63022
  16584182.7244   -8875680.61045  -6721811.22561
  15991876.7714    2307333.27646
  16747596.8574   -7286353.22345  -5559635.66861
 97  2  6  6 16 59.9770000  0  7G30G 5G 6G17G26G10G23
  15147627.4974    2194705.54447
  17182084.2244  -36444767.17745 -28183785.19561
  13522267.6384  -42060325.72047 -32589660.97063
  14968323.146   -26887214.889 7 -20732868.67122
  16562212.8254   -8991119.75545  -6811763.78861
  15999938.4434    2349698.47246
  16720023.513    -7431255.130 5  -5672546.24821
 97  2  6  6 17 29.9770000  0  7G30G 5G 6G17G26G10G23
  15155774.9664    2237516.14747
  17193997.3644  -36382167.82845 -28135006.47861
  13509251.7864  -42128724.09347 -32642958.40563
  14950230.5994  -26982291.97747 -20806954.68762
  16540287.4504   -9106337.57045  -6901543.88261
  16008053.5284    2392338.53746
  16692485.1614   -7575981.83345  -5785320.30961
 97  2  6  6 17 59.9770000  0  7G30G 5G 6G17G26G10G23
  15163987.2324    2280673.01347   1773219.94762
  17205922.2164  -36319485.31145 -28086162.95361
  13496310.5444  -42196738.22047 -32695956.42963
  14932183.661   -27077115.843 7 -20880843.37922
  16518417.0284   -9221267.20345  -6991099.42461
  16016229.4894    2435307.54446   1890847.24661
  16664988.4664   -7720475.59145  -5897912.85461
 97  2  6  6 18 29.9770000  0  7G30G 5G 6G17G26G10G23
  15172263.8884    2324167.03147   1807111.37062
  17217858.1304  -36256776.80145 -28037299.19861
  13483429.5524  -42264416.83847 -32748693.02263
  14914179.974   -27171745.216 7 -20954580.49022
  16496599.5754   -9335932.46445  -7080448.96861
  16024462.1534    2478579.72946   1924565.83061
  16637530.2634   -7864768.54245  -6010348.92061
 97  2  6  6 18 59.9770000  0  7G30G 5G 6G17G26G10G23
  15180616.6224    2368051.75447   1841307.24362
  17229806.9504  -36193985.72145 -27988371.08261
  13470626.8254  -42331711.28747 -32801130.26463
  14896215.419   -27266128.550 7 -21028125.90922
  16474841.9664   -9450266.51145  -7169540.41461
  16032764.0054    2522203.33946   1958558.23961
  16610121.0754   -8008804.49645  -6122584.72661
 97  2  6  6 19 29.9770000  0  7G30G 5G 6G17G26G10G23
  15189034.5284    2412279.69447   1875770.55662
  17241762.6934  -36131148.64545 -27939407.14761
  13457889.5754  -42398639.78547 -32853282.34263
  14878297.4664  -27360293.66047 -21101501.29262
  16453141.4114   -9564300.27945  -7258397.88261
  16041124.3104    2566140.71646   1992795.16261
  16582751.4504   -8152626.59545  -6234653.90661
 97  2  6  6 19 59.9770000  0  7G30G 5G 6G17G26G10G23
  15197503.0054    2456791.32747   1910454.91962
  17253718.552   -36068332.620 5 -27890459.59421
  13445215.3414  -42465235.50247 -32905175.12263
  14860409.1224  -27454297.21347 -21174750.80862
  16431489.396    -9678097.923 5  -7347071.35021
  16049537.0444    2610341.86946   2027237.60761
  16555412.5364   -8296287.16445  -6346597.20261
 97  2  6  6 20 29.9770000  0  7G30G 5G 6G17G26G10G23
  15206023.3724    2501579.75947   1945354.98262
  17265669.810   -36005536.836 5 -27841527.81921
  13432606.9894  -42531493.18547 -32956804.48663
  14842550.0214  -27548147.78947 -21247881.11662
  16409875.3254   -9791669.68845  -7435568.81361
  16057997.2474    2654795.57946   2061876.85761
  16528105.8184   -8439789.83445  -6458417.46761
 97  2  6  6 20 59.9760000  0  7G30G 5G 6G17G26G10G23
  15214604.3834    2546662.67046   1980484.51462
  17277625.164   -35942703.387 5 -27792566.73121
  13420075.6024  -42597351.69847 -33008122.81163
  14824735.1254  -27641769.38047 -21320833.00062
  16388315.5084   -9904958.04045  -7523845.43961
  16066507.8994    2699527.12046   2096732.59461
  16500836.7894   -8583080.56245  -6570072.56861
 97  2  6  6 21 29.9760000  0  7G30G 5G 6G17G26G10G23
  15223219.0004    2591925.73047   2015754.42162
  17289567.5784  -35879957.16545 -27743673.57261
  13407595.8204  -42662930.03847 -33059222.81963
  14806942.3204  -27735274.53247 -21393694.17362
  16366788.0944  -10018079.55345  -7611992.06561
  16075046.3054    2744404.22146   2131701.76061
  16473589.1024   -8726276.57545  -6681653.87561
 97  2  6  6 21 59.9760000  0  8G30G 5G 6G17G26G10G22G23
  15231888.8364    2637495.50547   2051263.32762
  17301511.7274  -35817182.81245 -27694758.50961
  13395195.9144  -42728103.20147 -33110007.10863
  14789192.8914  -27828529.82147 -21466360.61762
  16345321.9924  -10130901.58845  -7699905.31261
  16083634.8834    2789522.61246   2166858.93761
  17541653.9854         -0.63155
  16446385.9224   -8869231.56146  -6793047.36761
 97  2  6  6 22 29.9760000  0  8G30G 5G 6G17G26G10G22G23
  15240611.0244    2683330.86346   2086979.17162
  17313456.063   -35754424.888 5 -27645856.26521
  13382862.6334  -42792910.98947 -33160506.67663
  14771492.2974  -27921566.11647 -21538856.43462
  16323903.6954  -10243455.04945  -7787609.29161
  16092255.7894    2834832.04546   2202164.98161
  17518971.0474    -119206.76145
  16419221.2034   -9011987.15946  -6904285.49461
 97  2  6  6 22 59.9760000  0  8G30G 5G 6G17G26G10G22G23
  15249382.0864    2729410.48346   2122885.37262
  17325387.227   -35691725.857 5 -27596999.87821
  13370594.4384  -42857377.77047 -33210740.53363
  14753824.1564  -28014409.30847 -21611201.77262
  16302533.1884  -10355756.47645  -7875116.88061
  16100906.4694    2880305.43346   2237598.79161
  17496345.164     -238097.701 5        -0.02531
  16392087.8994   -9154572.97546  -7015391.32161
 97  2  6  6 23 29.9760000  0  8G30G 5G 6G17G26G10G22G23
  15258191.2354    2775715.92446   2158967.51262
  17337299.336   -35629108.623 5 -27548207.23421
  13358386.2424  -42921535.87347 -33260733.87163
  14736182.6804  -28107107.99847 -21683434.50062
  16281204.578   -10467842.416 5  -7962456.56021
  16109592.7744    2925934.99546   2273154.28661
  17473775.414     -356700.618 5    -92417.87621
  16364979.4774   -9297019.53846  -7126388.64561
 97  2  6  6 23 59.9760000  0  8G30G 5G 6G17G26G10G22G23
  15267060.7114    2822319.04746   2195281.62662
  17349216.578   -35566487.952 5 -27499411.94521
  13346251.3284  -42985306.09547 -33310424.96663
  14718583.156   -28199598.638 7 -21755505.10522
  16259928.8994  -10579640.23045  -8049571.73061
  16118322.6414    2971822.37246   2308910.67661
  17451279.141     -474929.555 5   -184544.32121
  16337915.1174   -9439250.65946  -7237218.08361
 97  2  6  6 24 29.9760000  0  8G30G 5G 6G17G26G10G22G23
  15275984.1174    2869215.33146   2231824.17462
  17361136.1254  -35503855.92945 -27450607.77761
  13334187.4384  -43048694.14647 -33359818.26063
  14701020.3364  -28291888.55447 -21827419.31862
  16238709.9534  -10691144.58545  -8136458.22061
  16127109.3444    3017980.02346   2344877.67461
  17428852.3284    -592776.14145   -276372.86461
  16310889.3994   -9581270.71446  -7347883.03761
 97  2  6  6 24 59.9760000  0  8G30G 5G 6G17G26G10G22G23
  15284987.6884    2916525.69546   2268689.38661
  17373082.422   -35441081.723 5 -27401692.81321
  13322218.8364  -43111588.14547 -33408826.57463
  14683518.6254  -28383868.40247 -21899091.92662
  16217568.6564  -10802241.28045  -8223027.07061
  16135963.9454    3064520.81846   2381143.22161
  17406519.797     -710124.037 5   -367812.80521
  16283930.3834   -9722948.36246  -7458281.19561
 97  2  6  6 25 29.9760000  0  8G30G 5G 6G17G26G10G22G23
  15294046.4384    2964137.55446   2305789.52661
  17385034.2274  -35378265.59744 -27352745.21461
  13310327.9064  -43174078.71147 -33457520.53563
  14666055.7584  -28475637.62247 -21970600.41362
  16196488.125   -10913026.384 5  -8309353.10121
  16144875.3444    3111341.36646   2417626.75761
  17384266.7584    -827073.13445   -458941.97861
  16257017.6954   -9864373.60746  -7568482.67561
 97  2  6  6 25 59.9760000  0  8G30G 5G 6G17G26G10G22G23
  15303155.6494    3011995.82546   2343081.66261
  17396982.985   -35315474.575 5 -27303817.13521
  13298504.8914  -43236206.55047 -33505931.83863
  14648622.7504  -28567241.24647 -22041979.87462
  16175458.5704  -11023533.30445  -8395462.38161
  16153823.2114    3158377.05446   2454277.93061
  17362081.555     -943663.633 5   -549791.71321
  16230144.2274  -10005593.87546  -7678524.44161
 97  2  6  6 26 29.9760000  0  8G30G 5G 6G17G26G10G22G23
  15312304.5394    3060074.49746   2380545.55961
  17408920.914   -35252750.268 5 -27254941.04621
  13286748.9614  -43297993.23347 -33554077.31363
  14631218.6174  -28658694.66847 -22113242.26062
  16154480.3134  -11133772.12745  -8481362.74661
  16162810.7114    3205596.51346   2491072.30361
  17339962.133    -1059914.997 5   -640377.17421
  16203305.6254  -10146634.90046  -7788426.53861
 97  2  6  6 26 59.9760000  0  8G30G 5G 6G17G26G10G22G23
  15321508.117     3108434.594 6   2418228.73421
  17420850.7974  -35190043.43045 -27206078.59661
  13275068.8604  -43359360.60247 -33601896.04563
  14613861.7274  -28749924.34847 -22184330.31962
  16133569.7584  -11243671.64345  -8566998.71361
  16171845.7194    3253085.86446   2528076.99161
  17317914.1024   -1175760.74845   -730646.58061
  16176514.0864  -10287429.73146  -7898136.78461
 97  2  6  6 27 29.9760000  0  8G30G 5G 6G17G26G10G22G23
  15330745.1334    3156987.20546   2456061.91361
  17432763.8524  -35127438.05344 -27157295.17761
  13263459.7114  -43420380.74447 -33649444.21063
  14596529.3754  -28840994.17147 -22255293.82662
  16112704.6024  -11353302.18145  -8652425.09361
  16180921.7354    3300768.74646   2565232.47561
  17295932.8834   -1291271.70845   -820655.13661
  16149749.7974  -10428060.99546  -8007719.57761
 97  2  6  6 27 59.9760000  0  8G30G 5G 6G17G26G10G22G23
  15340026.7814    3205762.41546   2494068.55961
  17444660.531   -35064909.444 4 -27108571.59421
  13251916.8994  -43481033.64447 -33696706.22963
  14579239.1024  -28931867.02247 -22326103.82062
  16091897.3364  -11462647.11846  -8737628.91261
  16190036.0084    3348669.28646   2602557.56261
  17274019.6024   -1406423.16045   -910383.51961
  16123025.2114  -10568501.86946  -8117154.01761
 97  2  6  6 28 29.9760000  0  8G30G 5G 6G17G26G10G22G23
  15349359.9924    3254808.97746   2532286.64961
  17456558.0394  -35002395.89744 -27059859.74261
  13240455.4224  -43541269.27147 -33743643.08863
  14561992.8834  -29022485.52947 -22396715.62662
  16071154.2584  -11571656.29945  -8822571.10261
  16199200.9924    3396832.96546   2640087.69861
  17252185.8284   -1521160.92445   -999789.57761
  16096348.7744  -10708687.83846  -8226389.82561
 97  2  6  6 28 59.9760000  0  8G30G 5G 6G17G26G10G22G23
  15358746.4534    3304127.98846   2570717.02961
  17468453.188   -34939879.786 4 -27011145.88821
  13229072.4144  -43601087.80747 -33790254.93763
  14544796.2194  -29112845.57647 -22467126.03962
  16050472.649   -11680331.668 5  -8907253.18121
  16208416.1174    3445250.18546   2677815.38061
  17230431.649    -1635483.121 5  -1088871.81321
  16069722.7424  -10848613.00846  -8335422.41561
 97  2  6  6 29 29.9760000  0  7G30G 6G17G26G10G22G23
  15368180.7354    3353706.93046   2609349.96361
  13217765.3134  -43660504.60047 -33836553.73963
  14527646.4774  -29202967.33147 -22537350.79162
  16029855.352   -11788682.505 5  -8991682.38121
  16217668.9064    3493889.31946   2715716.00761
  17208752.3134   -1749400.65945  -1177638.73461
  16043144.1724  -10988284.03546  -8444256.96761
 97  2  6  6 29 59.9760000  0  7G30G 6G17G26G10G22G23
  15377666.5474    3403559.19746   2648195.86961
  13206536.7664  -43719512.39447 -33882533.85063
  14510542.7194  -29292842.78447 -22607383.59162
  16009301.4694  -11896693.84245  -9075847.03761
  16226971.0704    3542763.55646   2753799.83361
  17187157.4454   -1862900.15645  -1266079.88461
  16016613.719   -11127696.464 6  -8552890.01521
 97  2  6  6 30 29.9760000  0  7G30G 6G17G26G10G22G23
  15387190.4614    3453608.22546   2687195.10261
  13195369.9924  -43778187.78747 -33928254.94963
  14493472.8054  -29382557.08647 -22677290.82162
  15988799.9774  -12004431.95846  -9159798.78961
  16236301.1644    3591795.48146   2792006.51761
  17165624.820    -1976054.565 5  -1354252.15421
  15990119.297   -11266929.911 6  -8661383.59021
 97  2  6  6 30 59.9760000  0  7G30G 6G17G26G10G22G23
  15396752.1024    3503857.27046   2726350.18461
  13184269.0244  -43836520.68647 -33973709.16763
  14476433.3054  -29472109.73547 -22747072.08962
  15968350.297   -12111897.565 6  -9243538.19421
  16245661.0864    3640985.15646   2830336.12661
  17144155.8994   -2088866.46645  -1442157.54661
  15963657.4924  -11405982.98046  -8769736.60961
 97  2  6  6 31 29.9760000  0  7G30G 6G17G26G10G22G23
  15406355.7974    3554322.30546   2765673.57961
  13173238.4144  -43894487.71247 -34018878.27863
  14459421.1724  -29561495.03347 -22816722.95962
  15947954.399   -12219074.554 6  -9327052.71121
  16255054.7974    3690346.55946   2868799.55561
  17122759.6954   -2201310.73945  -1529776.46561
  15937234.6884  -11544832.43646  -8877930.97261
 97  2  6  6 31 59.9760000  0  7G30G 6G17G26G10G22G23
  15416006.1334    3605038.68646   2805192.81861
  13162284.1254  -43952056.41747 -34063736.99863
  14442453.9694  -29650675.13747 -22886213.93262
  15927619.6644  -12325930.91446  -9410317.38861
  16264486.5634    3739906.03846   2907417.32561
  17101439.469    -2313355.982 5  -1617084.43721
  15910858.6254  -11683440.91346  -8985937.56361
 97  2  6  6 32 29.9760000  0  7G30G 6G17G26G10G22G23
  15425707.2114    3656010.15646   2844910.83461
  13151412.2034  -44009194.88447 -34108260.48963
  14425519.3054  -29739648.39247 -22955543.72762
  15907349.3444  -12432454.83346  -9493323.01661
  16273956.5314    3789670.97846   2946195.18961
  17080191.8284   -2424992.80545  -1704074.17861
  15884533.7744  -11821786.84946  -9093739.58161
 97  2  6  6 32 59.9760000  0  7G30G 6G17G26G10G22G23
  15435454.3204    3707234.40846   2884825.82261
  13140621.2504  -44065891.81547 -34152439.91963
  14408628.180   -29828414.407 7 -23024712.02322
  15887147.5244  -12538630.92246  -9576057.62161
  16283465.8134    3839653.19946   2985142.38161
  17059030.1104   -2536206.77645  -1790734.41961
  15858258.7744  -11959863.29746  -9201331.59861
 97  2  6  6 33 29.9760000  0  7G30G 6G17G26G10G22G23
  15445244.0784    3758675.49846   2924909.79261
  13129910.0554  -44122187.88747 -34196306.99763
  14391772.320   -29916991.759 7 -23093733.30922
  15867003.9924  -12644472.66146  -9658531.68761
  16293013.8524    3889829.59846   3024240.86261
  17037940.8134   -2647028.95945  -1877089.33661
  15832027.524   -12097705.271 6  -9308740.90421
 97  2  6  6 33 59.9760000  0  7G30G 6G17G26G10G22G23
  15455083.6564    3810391.36246   2965207.86261
  13119286.7354  -44178010.18847 -34239804.89363
  14374969.7894  -30005294.23047 -23162540.41962
  15846942.1724  -12749901.94146  -9740684.36561
  16302613.7424    3940269.51446   3063544.68361
  17016941.3834   -2757388.78645  -1963084.02961
  15805853.4384  -12235248.44346  -9415917.37461
 97  2  6  6 34 29.9760000  0  7G30G 6G17G26G10G22G23
  15464966.2424    3862325.25846   3005675.82161
  13108745.0704  -44233409.45048 -34282973.15663
  14358208.6804  -30093377.16347 -23231176.46762
  15826949.9924  -12854956.38446  -9822544.95561
  16312252.8604    3990920.09146   3103012.67061
  16996023.4694   -2867316.03745  -2048741.61061
  15779730.0244  -12372536.31446  -9522894.91761
 97  2  6  6 34 59.9760000  0  7G30G 6G17G26G10G22G23
  15474894.3834    3914488.86646   3046322.76961
  13098279.4854  -44288401.92648 -34325824.43863
  14341492.7354  -30181231.96147 -23299634.74462
  15807032.7504  -12959626.29146  -9904105.91261
  16321929.0164    4041774.80946   3142639.71461
  16975186.406    -2976810.318 5  -2134061.81721
  15753654.6104  -12509552.52946  -9629660.77361
 97  2  6  6 35 29.9760000  0  7G30G 6G17G26G10G22G23
  15484859.2894    3966860.44946   3087131.78861
  13087890.2194  -44343003.60748 -34368371.21263
  14324810.5314  -30268872.15947 -23367925.79162
  15787184.2424  -13063932.60846  -9985383.55261
  16331639.0784    4092799.52246   3182399.22761
  16954430.2974   -3085888.07345  -2219057.47361
  15727632.0164  -12646304.42446  -9736220.67461
 97  2  6  6 35 59.9760000  0  7G30G 6G17G26G10G22G23
  15494871.9854    4019479.64246   3128133.75061
  13077582.2274  -44397163.04448 -34410573.37863
  14308181.891   -30356280.143 7 -23436035.87922
  15767412.1564  -13167838.42646 -10066349.11361
  16341387.1494    4144026.77946   3222316.57261
  16933765.8994   -3194493.22245  -2303684.85561
  15701668.867   -12782738.421 6  -9842532.85421
 97  2  6  6 36 29.9760000  0  7G30G 6G17G26G10G22G23
  15504928.0634    4072319.00746   3169307.27561
  13067355.0164  -44450908.46047 -34452452.92663
  14291581.0784  -30443508.31347 -23504005.86862
  15747710.453   -13271366.414 6 -10147020.25421
  16351169.5864    4195433.12046   3262373.45461
  16913177.4614   -3302669.98845  -2387978.44361
  15675765.4304  -12918877.35646  -9948615.11761
 97  2  6  6 36 59.9760000  0  7G30G 6G17G26G10G22G23
  15515020.1494    4125351.02246   3210630.91361
  13057206.9694  -44504244.88147 -34494013.78863
  14275012.1334  -30530570.24247 -23571846.32162
  15728079.0164  -13374537.95346 -10227413.64461
  16360984.8284    4247012.24746   3302564.97961
  16892668.445    -3410444.292 5  -2471958.39321
  15649909.1884  -13054747.10346 -10054487.62861
 97  2  6  6 37 29.9760000  0  7G30G 6G17G26G10G22G23
  15525151.3364    4178593.90146   3252118.86761
  13047142.9304  -44557129.80248 -34535222.82163
  14258482.703   -30617434.419 7 -23639532.66722
  15708518.578   -13477329.419 6 -10307510.87321
  16370839.7354    4298796.07246   3342916.00561
  16872245.2894   -3517771.78045  -2555590.20361
  15624107.3444  -13190327.63646 -10160134.78561
 97  2  6  6 37 59.9750000  0  7G30G 6G17G26G10G22G23
  15535320.9024    4232030.88546   3293758.07161
  13037163.3864  -44609564.54648 -34576081.07363
  14241992.9724  -30704103.75047 -23707067.19262
  15689026.034   -13579754.630 6 -10387322.70921
  16380728.7454    4350772.84446   3383417.38261
  16851903.1914   -3624670.04345  -2638887.54861
  15598365.1124  -13325625.00646 -10265561.28361
 97  2  6  6 38 29.9750000  0  7G30G 6G17G26G10G22G23
  15545523.8394    4285658.21446   3335545.58761
  13027270.0274  -44661560.19748 -34616597.17463
  14225536.7224  -30790571.42947 -23774444.58562
  15669600.6204  -13681832.05646 -10466863.54861
  16390654.7614    4402937.41746   3424065.09561
  16831636.1914   -3731163.07445  -2721869.12161
  15572663.2224  -13460669.15346 -10370790.46961
